Join our chat channel and say hello!

PRE DATA

Datetime Release
2019-11-10 00:00:16 Ex.on.the.Beach.Sverige.Exen.Berattar.Allt.S07E07.SWEDiSH.720p.WEB.x264-DECAPiTATiON
2019-11-10 00:00:23 Ex.on.the.Beach.Sverige.Exen.Berattar.Allt.S07E07.SWEDiSH.1080p.WEB.x264-DECAPiTATiON
2019-11-10 00:00:43 Ex.on.the.Beach.Sverige.S07E07.SWEDiSH.720p.WEB.x264-DECAPiTATiON
2019-11-10 00:01:01 Ex.on.the.Beach.Sverige.S07E07.SWEDiSH.1080p.WEB.x264-DECAPiTATiON
2019-11-10 00:01:53 Dublin.Murders.S01E01.GERMAN.DL.720P.WEB.H264-WAYNE
2019-11-10 00:02:35 Dublin.Murders.S01E01.GERMAN.DL.1080P.WEB.H264-WAYNE
2019-11-10 00:04:41 Death.And.Return.Of.Superman.2019.FRENCH.BDRip.x264-Ulysse
2019-11-10 00:04:57 Death.And.Return.Of.Superman.2019.FRENCH.720p.BluRay.x264-Ulysse
2019-11-10 00:05:25 Have.You.Been.Paying.Attention.NZ.S01E12.720p.HDTV.x264-FiHTV
2019-11-10 00:07:19 Have.You.Been.Paying.Attention.NZ.S01E12.HDTV.x264-FiHTV
2019-11-10 00:08:40 Ailo.Une.odyssee.en.Laponie.2018.FRENCH.1080p.BluRay.x264-Ulysse
2019-11-10 00:09:05 Death.And.Return.Of.Superman.2019.MULTi.1080p.BluRay.x264-Ulysse
2019-11-10 00:09:17 Dublin.Murders.S01E01.GERMAN.DL.1080P.WEB.H264.INTERNAL.DIRFIX-WAYNE
2019-11-10 00:09:29 Dublin.Murders.S01E01.GERMAN.DL.720P.WEB.H264.INTERNAL.DIRFIX-WAYNE
2019-11-10 00:09:35 Miguel_Hiroshi-Oniriko_Orinoko-ES-CD-FLAC-2019-CEBAD
2019-11-10 00:09:47 Javier_Elorrieta-Avec_Le_Temps_Grandes_Exitos-FR-CD-FLAC-2019-CEBAD
2019-11-10 00:09:53 Wellington.Paranormal.S02E04.720p.HDTV.x264-FiHTV
2019-11-10 00:10:01 Miguel_Hiroshi-Oniriko_Orinoko-ES-2019-CEB
2019-11-10 00:10:11 Javier_Elorrieta-Avec_Le_Temps_Grandes_Exitos-FR-2019-CEB
2019-11-10 00:11:22 Wellington.Paranormal.S02E04.HDTV.x264-FiHTV
2019-11-10 00:12:19 Sword.Art.Online.Alicization.War.Of.Underworld.E05.SUBFRENCH.1080p.WEBRip.x264-SLEEPINGFOREST
2019-11-10 00:12:39 Vier.Freunde.und.die.Geisterhand.S01E02.GERMAN.DL.1080P.WEB.H264-WAYNE
2019-11-10 00:13:16 Zombody.Save.Me.S01E04.720p.HDTV.x264-FiHTV
2019-11-10 00:13:50 Vier.Freunde.und.die.Geisterhand.S01E03.GERMAN.DL.1080P.WEB.H264-WAYNE
2019-11-10 00:14:43 Zombody.Save.Me.S01E04.HDTV.x264-FiHTV
2019-11-10 00:14:46 Star.Trek.Discovery.S02E13.iTALiAN.720p.BluRay.x264-HWD
2019-11-10 00:15:02 Vier.Freunde.und.die.Geisterhand.S01E04.GERMAN.DL.1080P.WEB.H264-WAYNE
2019-11-10 00:15:06 The.Mildew.from.Planet.Xonader.2015.COMPLETE.BLURAY-TRADEABLE
2019-11-10 00:15:11 Star.Trek.Discovery.S02E14.iTALiAN.720p.BluRay.x264-HWD
2019-11-10 00:16:42 Police.Ten.7.S26E34.720p.HDTV.x264-FiHTV
2019-11-10 00:16:58 The.X.Factor.Celebrity.S01E05.HDTV.x264-LiNKLE
2019-11-10 00:17:45 Vier.Freunde.und.die.Geisterhand.S01E05.GERMAN.DL.1080P.WEB.H264-WAYNE
2019-11-10 00:17:49 Police.Ten.7.S26E34.HDTV.x264-FiHTV
2019-11-10 00:18:38 Vier.Freunde.und.die.Geisterhand.S01E06.GERMAN.DL.1080P.WEB.H264-WAYNE
2019-11-10 00:19:37 Vier.Freunde.und.die.Geisterhand.S01E07.GERMAN.DL.1080P.WEB.H264-WAYNE
2019-11-10 00:20:59 The_Demtones-The_Demtones-WEB-2019-ENTiTLED
2019-11-10 00:23:39 Littleriich-Toca-SINGLE-WEB-2019-KLIN
2019-11-10 00:24:36 Shane_Fuego_Sa-Pick_Up-SINGLE-WEB-2019-KLIN
2019-11-10 00:26:15 Dublin.Murders.S01E01.GERMAN.DL.720P.WEBRIP.X264-WAYNE
2019-11-10 00:30:13 Herbie_Hancock-The_New_Standard-(527715-2)-CD-FLAC-1996-HOUND
2019-11-10 00:31:35 Golden_Toys-Sputnik_Club-SAT-11-09-2019-PTC
2019-11-10 00:32:10 Makossa_and_Sugar_B_and_PermasmokeSoundLab-Swound_Sound_System-SAT-11-09-2019-PTC
2019-11-10 00:38:59 Shadow_Of_The_Tomb_Raider_Linux-Razor1911
2019-11-10 00:56:21 The.X.Factor.Celebrity.S01E05.720p.HDTV.x264-LiNKLE
2019-11-10 01:01:46 Rampue-1LIVE_DJ_Session-SAT-10-11-2019-1KING
2019-11-10 01:06:54 Charlotte_de_Witte-KNTXT_On_Air_055-CABLE-09-11-2019-1KING
2019-11-10 01:09:06 Dublin.Murders.S01E01.GERMAN.DL.1080P.WEBRIP.X264-WAYNE
2019-11-10 01:09:44 Back.in.the.Game.2019.S01E01.Evander.Holyfield.Featuring.Marcus.Lemonis.1080p.HDTV.x264-CRiMSON
2019-11-10 01:10:09 Back.in.the.Game.2019.S01E01.Evander.Holyfield.Featuring.Marcus.Lemonis.720p.HDTV.x264-CRiMSON
2019-11-10 01:10:34 Back.in.the.Game.2019.S01E01.Evander.Holyfield.Featuring.Marcus.Lemonis.HDTV.x264-CRiMSON
2019-11-10 01:11:38 Sheridan-In_the_Mix_(Studio_Brussel)-CABLE-10-11-2019-1KING
2019-11-10 01:17:28 Team.Ingebrigtsen.S01E03.NORWEGiAN.720p.HDTV.x264-NORPiLT
2019-11-10 01:18:21 Team.Ingebrigtsen.S01E04.NORWEGiAN.720p.HDTV.x264-NORPiLT
2019-11-10 01:19:06 Team.Ingebrigtsen.S01E05.NORWEGiAN.720p.HDTV.x264-NORPiLT
2019-11-10 01:19:59 Team.Ingebrigtsen.S01E06.NORWEGiAN.720p.HDTV.x264-NORPiLT
2019-11-10 01:20:41 Team.Ingebrigtsen.S01E07.NORWEGiAN.720p.HDTV.x264-NORPiLT
2019-11-10 01:21:29 Team.Ingebrigtsen.S01E08.NORWEGiAN.720p.HDTV.x264-NORPiLT
2019-11-10 01:21:30 NBL.2019-20.Round.6.South.East.Melbourne.Phoenix.vs.New.Zealand.Breakers.1080p.HDTV.x264-WiNNiNG
2019-11-10 01:23:09 Team.Ingebrigtsen.S03E05.NORWEGiAN.720p.HDTV.x264-NORPiLT
2019-11-10 01:23:55 Love.Island.Australia.S02E24.HDTV.x264-CCT
2019-11-10 01:24:24 Looking.For.Alaska.S01E02.iNTERNAL.HDTV.x264-TURBO
2019-11-10 01:24:25 Looking.For.Alaska.S01E02.iNTERNAL.720p.HDTV.x264-TURBO
2019-11-10 01:26:25 Earth.Odyssey.With.Dylan.Dreyer.S02E11.Andes.1080p.HDTV.x264-CRiMSON
2019-11-10 01:26:51 Earth.Odyssey.With.Dylan.Dreyer.S02E11.Andes.720p.HDTV.x264-CRiMSON
2019-11-10 01:27:15 Earth.Odyssey.With.Dylan.Dreyer.S02E11.Andes.HDTV.x264-CRiMSON
2019-11-10 01:28:09 Andi_Otto-Selektor-SAT-11-09-2019-PTC
2019-11-10 01:28:14 Love.Island.Australia.S02E24.720p.HDTV.x264-CCT
2019-11-10 01:28:45 Ckrono-Selektor-SAT-11-09-2019-PTC
2019-11-10 01:29:22 Tune_Brothers-Housesession-SAT-11-10-2019-PTC
2019-11-10 01:30:49 Castle.Rock.S02E05.SPANiSH.1080p.HDTV.x264-4FiRE
2019-11-10 01:31:06 Bondi.Vet.Coast.to.Coast.S01E05.HDTV.x264-CCT
2019-11-10 01:31:48 Castle.Rock.S02E05.SPANiSH.720p.HDTV.x264-4FiRE
2019-11-10 01:31:53 Travelers.2016.2x07.17.Minutes.720p.HDTV.x264.CZ-SDTV
2019-11-10 01:31:57 Travelers.2016.S02E07.iNTERNAL.1080p.HDTV.X265.CZ-DELi
2019-11-10 01:32:40 Castle.Rock.S02E05.SPANiSH.HDTV.x264-4FiRE
2019-11-10 01:34:26 Bondi.Vet.Coast.to.Coast.S01E05.720p.HDTV.x264-CCT
2019-11-10 01:54:30 Austins_Groove_-_Liftin-SINGLE-WEB-2019-iDC
2019-11-10 01:54:53 City_Soul_Project_And_BOD_-_Presente-SINGLE-WEB-2019-iDC
2019-11-10 01:55:30 Colour_Castle_And_Tim_Light_And_Jaw_-_Over_The_Water_(Remix_Pack_1)-WEB-2019-iDC
2019-11-10 01:55:55 Funkatomic_-_Wont_You_Say-SINGLE-WEB-2019-iDC
2019-11-10 01:58:23 Gy_Fos_-_High_Society-SINGLE-WEB-2019-iDC
2019-11-10 01:58:53 Hrdy_-_Give_A_Heart-SINGLE-WEB-2019-iDC
2019-11-10 01:59:10 James_Mac_And_Vall_-_Work_That_Body-SINGLE-WEB-2019-iDC
2019-11-10 01:59:18 Sanju.2018.LIMITED.720p.BluRay.x264-Chakra
2019-11-10 02:00:21 Goldfox-In_the_Mix_(Studio_Brussel)-CABLE-10-11-2019-1KING
2019-11-10 02:01:42 The.X.Factor.Celebrity.S01E05.1080p.HDTV.x264-LiNKLE
2019-11-10 02:02:41 Johan_S_-_Move_Me-SINGLE-WEB-2019-iDC
2019-11-10 02:03:01 The.Jonathan.Ross.Show.S15E09.HDTV.x264-LiNKLE
2019-11-10 02:03:27 Mad_Funk_-_Tribal_Love-SINGLE-WEB-2019-iDC
2019-11-10 02:04:43 GuiltyBeatz_-_Diplo_and_Friends-SAT-11-09-2019-TALiON
2019-11-10 02:04:55 Eelke_Kleijn-Days_Like_Nights_Radio_105-SAT-10-11-2019-1KING
2019-11-10 02:05:16 Team_Salut_-_Diplo_and_Friends-SAT-11-10-2019-TALiON
2019-11-10 02:05:18 Solsidan.S06E04.SWEDiSH.720p.WEB.X264-AVRATTNING
2019-11-10 02:05:22 Man_Without_A_Clue_And_Lee_Wilson_-_Do_You_Dance_(The_Remixes)-WEB-2019-iDC
2019-11-10 02:05:41 Peter_Brown_-_Soul_Thing-SINGLE-WEB-2019-iDC
2019-11-10 02:05:45 Solsidan.S06E04.SWEDiSH.1080p.WEB.X264-AVRATTNING
2019-11-10 02:06:11 Extreme.Job.2019.LIMITED.BDRip.x264-KEBAP
2019-11-10 02:06:13 Extreme.Job.2019.LIMITED.720p.BluRay.x264-GiMCHi
2019-11-10 02:06:16 Extreme.Job.2019.LIMITED.1080p.BluRay.x264-GiMCHi
2019-11-10 02:06:19 Extreme.Job.2019.LIMITED.COMPLETE.BluRay-GiMCHi
2019-11-10 02:07:26 South_Soul_Symphony_-_Let_Me_Show_You-WEB-2019-iDC
2019-11-10 02:07:47 Joris_Voorn_-_Spectrum_Radio_133-CABLE-11-09-2019-TALiON
2019-11-10 02:08:45 Stace_Cadet_Feat_Klp_-_Get_On_It_(Remixes)-WEB-2019-iDC
2019-11-10 02:10:51 4th_Floor_Music-M-WEB-2019-ENRAGED
2019-11-10 02:10:59 The_Cube_Guys_-_Botoma-SINGLE-WEB-2019-iDC
2019-11-10 02:11:07 BIG_HAM-Thoughts_of_the_Mind-WEB-2019-ENRAGED
2019-11-10 02:11:20 T_Markakis_-_Time_Out-SINGLE-WEB-2019-iDC
2019-11-10 02:11:24 Chief_Reckah-Scarabian_Nightz-WEB-2019-ENRAGED
2019-11-10 02:11:40 Dave_East-Survival-WEB-2019-ENRAGED
2019-11-10 02:11:56 Death_Over_Simplicity-Frodian_Spit-WEB-2019-ENRAGED
2019-11-10 02:12:11 Dirt_Vonnegut_and_the_Illustrated_One-American_Dreamland-WEB-2019-ENRAGED
2019-11-10 02:12:28 Dontcry_Nokiaa-Stray-WEB-2019-ENRAGED
2019-11-10 02:12:43 Dusty_Stragglers-Dusty_Atmosphere-WEB-2019-ENRAGED
2019-11-10 02:12:55 Sanju.2018.LIMITED.BDRip.x264-LoveGuru
2019-11-10 02:12:59 FlitzandSuppe-Deja-reve-WEB-2019-ENRAGED
2019-11-10 02:13:16 Griselda-Chef_Dreds-SINGLE-WEB-2019-ENRAGED
2019-11-10 02:13:31 Holy_Smokes-Space_Smoke-WEB-2019-ENRAGED
2019-11-10 02:13:47 Kid_Mozes-Holographic_Hiatus-WEB-2019-ENRAGED
2019-11-10 02:14:03 Last_Sons-Chekhovs_Gun-WEB-2019-ENRAGED
2019-11-10 02:14:19 Lenox_Hughes-Finding_The_Balance-WEB-2019-ENRAGED
2019-11-10 02:14:36 Loop_Skywalker-Made_From_Scratch-WEB-2019-ENRAGED
2019-11-10 02:14:51 Money_Stacks-HUsTLA-WEB-2019-ENRAGED
2019-11-10 02:15:07 Optimum_Qc_Evil_Dead_and_DJ_Tmb-Ground_Zero-WEB-2019-ENRAGED
2019-11-10 02:15:23 Phaizrok-Snare_Max_90-WEB-2019-ENRAGED
2019-11-10 02:15:36 The.Jonathan.Ross.Show.S15E09.720p.HDTV.x264-LiNKLE
2019-11-10 02:15:39 Repete23-Mono_Dimension-WEB-2019-ENRAGED
2019-11-10 02:15:45 Washington.Week.2019.11.08.1080p.WEB.h264-LiGATE
2019-11-10 02:15:54 Simon_Roofless-THREE-WEB-2019-ENRAGED
2019-11-10 02:16:11 The_Lupus_Dei_Experience-A_Dei_2_Kil-WEB-2019-ENRAGED
2019-11-10 02:16:23 Washington.Week.2019.11.08.720p.WEB.h264-LiGATE
2019-11-10 02:16:28 True_God-Soul_Revival_4-WEB-2019-ENRAGED
2019-11-10 02:16:44 Visual_Visions-Encoded_Files_StreetScape_Vol_I-WEB-2019-ENRAGED
2019-11-10 02:16:57 Washington.Week.2019.11.08.WEB.h264-LiGATE
2019-11-10 02:16:59 Xkwisit-Vigilante-WEB-2019-ENRAGED
2019-11-10 02:19:23 Enen.no.Shouboutai.E16.SUBFRENCH.720p.HDTV.x264-AMB3R
2019-11-10 02:19:29 Enen.no.Shouboutai.E16.SUBFRENCH.HDTV.x264-AMB3R
2019-11-10 02:19:50 Without.a.Trace.S01E07.MULTi.1080p.HDTV.H264-AMB3R
2019-11-10 02:19:56 Without.a.Trace.S01E08.MULTi.1080p.HDTV.H264-AMB3R
2019-11-10 02:24:05 ISL.2019.11.06.Hyderabad.vs.NorthEast.United.FC.720p.WEB.H264-LEViTATE
2019-11-10 02:26:14 ISL.2019.11.06.Hyderabad.vs.NorthEast.United.FC.WEB.H264-LEViTATE
2019-11-10 02:28:37 Sanju.2018.LIMITED.1080p.BluRay.x264-Chakra
2019-11-10 02:29:37 Sports.Sunday.2019.10.20.1080p.HDTV.x264-PLUTONiUM
2019-11-10 02:32:59 Gardening.Australia.S30E41.HDTV.x264-PLUTONiUM
2019-11-10 02:42:54 Sanju.2018.LIMITED.COMPLETE.BLURAY-CBGB
2019-11-10 02:56:07 Boxing.2019.11.10.Josh.Brueckner.Vs.Tyler.Smith.PPV.720p.AHDTV.x264-ACES
2019-11-10 03:02:42 Secret_Cinema-Gem_FM_131-SAT-10-11-2019-1KING
2019-11-10 03:06:57 The.Blacklist.S07E06.iNTERNAL.720p.WEB.h264-BAMBOOZLE
2019-11-10 03:08:44 Ghost.Adventures.S20E02.Cerro.Gordo.Ghost.Town.1080p.WEB.x264-CAFFEiNE
2019-11-10 03:10:13 Ghost.Adventures.S20E02.Cerro.Gordo.Ghost.Town.720p.WEB.x264-CAFFEiNE
2019-11-10 03:11:21 Ghost.Adventures.S20E02.Cerro.Gordo.Ghost.Town.WEB.x264-CAFFEiNE
2019-11-10 03:11:42 Boxing.2019.11.09.Josh.Brueckner.Vs.Tyler.Smith.PPV.DiRFiX.720p.AHDTV.x264-ACES
2019-11-10 03:13:28 AWS-Volt_Festival_(2018)-HU-720p-x264-2018-SRP
2019-11-10 03:13:45 Boxing.2019.11.09.Josh.Brueckner.Vs.Tyler.Smith.PPV.AHDTV.x264-ACES
2019-11-10 03:17:24 Vaart.Lille.Land.S08E05.NORWEGiAN.720p.WEB.H264-HENRETTELSE
2019-11-10 03:18:11 The.TakeOver-SKIDROW
2019-11-10 03:22:49 Real.Time.With.Bill.Maher.2019.11.08.1080p.WEB.h264-TBS
2019-11-10 03:22:53 The.Nature.of.Things.with.David.Suzuki.S59E07.720p.WEBRip.x264-CookieMonster
2019-11-10 03:23:00 Real.Time.With.Bill.Maher.2019.11.08.WEB.h264-TBS
2019-11-10 03:24:22 The.Nature.of.Things.with.David.Suzuki.S59E07.1080p.WEBRip.x264-CookieMonster
2019-11-10 03:24:59 The.Nature.of.Things.with.David.Suzuki.S59E07.WEBRip.x264-CookieMonster
2019-11-10 03:26:49 Boxing.2019.11.09.Josh.Brueckner.Vs.Tyler.Smith.PPV.1080p.AHDTV.x264-ACES
2019-11-10 03:28:02 Crikey.Its.the.Irwins.S02E07.Swimming.with.Steve.1080p.WEB.x264-CAFFEiNE
2019-11-10 03:29:09 Crikey.Its.the.Irwins.S02E07.Swimming.with.Steve.720p.WEB.x264-CAFFEiNE
2019-11-10 03:29:56 S.W.A.T.2017.S02E09.DVDRip.x264-PFa
2019-11-10 03:30:22 S.W.A.T.2017.S02E10.DVDRip.x264-PFa
2019-11-10 03:30:34 Crikey.Its.the.Irwins.S02E07.Swimming.with.Steve.WEB.x264-CAFFEiNE
2019-11-10 03:30:54 S.W.A.T.2017.S02E11.DVDRip.x264-PFa
2019-11-10 03:31:45 S.W.A.T.2017.S02E12.DVDRip.x264-PFa
2019-11-10 03:32:13 S.W.A.T.2017.S02E13.DVDRip.x264-PFa
2019-11-10 03:32:51 S.W.A.T.2017.S02E14.DVDRip.x264-PFa
2019-11-10 03:33:12 S.W.A.T.2017.S02E15.DVDRip.x264-PFa
2019-11-10 03:33:31 S.W.A.T.2017.S02E16.DVDRip.x264-PFa
2019-11-10 03:34:03 S.W.A.T.2017.S02E17.DVDRip.x264-PFa
2019-11-10 03:35:56 S.W.A.T.2017.S02E18.DVDRip.x264-PFa
2019-11-10 03:37:42 S.W.A.T.2017.S02E19.DVDRip.x264-PFa
2019-11-10 03:38:06 S.W.A.T.2017.S02E20.DVDRip.x264-PFa
2019-11-10 03:38:28 S.W.A.T.2017.S02E21.DVDRip.x264-PFa
2019-11-10 03:39:01 S.W.A.T.2017.S02E22.DVDRip.x264-PFa
2019-11-10 03:39:21 S.W.A.T.2017.S02E23.DVDRip.x264-PFa
2019-11-10 03:40:33 Lilly.Singh.2019.11.07.Mackenzie.Davis.REPACK.1080p.WEB.h264-TBS
2019-11-10 03:41:00 Lilly.Singh.2019.11.07.Mackenzie.Davis.REPACK.WEB.h264-TBS
2019-11-10 03:44:02 Ben_Liebrand_-_In_The_Mix_(Radio10)-CABLE-11-09-2019-TALiON
2019-11-10 03:45:01 Dennis_Ruyer_-_Dance_Department_(Radio538)-CABLE-11-09-2019-TALiON
2019-11-10 03:46:01 Kim_Kaey_-_Dance_Department_(Radio538)-CABLE-11-09-2019-TALiON
2019-11-10 03:47:02 Freddy_Moreira_-_Moreiras_Mansion_(FunX)-CABLE-11-09-2019-TALiON
2019-11-10 03:48:01 Regi_-_In_The_Mix_(MNM)-CABLE-11-09-2019-TALiON
2019-11-10 03:49:01 Dimitri_Vegas_and_Like_Mike_-_Smash_The_House-CABLE-11-09-2019-TALiON
2019-11-10 03:50:01 Robin_Schulz_-_Sugar_Radio-CABLE-11-08-2019-TALiON
2019-11-10 03:50:02 WWE.Friday.Night.Smackdown.2019.11.08.WEB.x264-LEViTATE
2019-11-10 03:50:45 WWE.Friday.Night.Smackdown.2019.11.08.720p.WEB.x264-LEViTATE
2019-11-10 03:51:02 Lucas_and_Steve_-_Skyline_Sessions_148-CABLE-11-08-2019-TALiON
2019-11-10 03:51:14 Firenze.E.Gli.Uffizi.3D.iTALiAN.1080p.AUHDTV.x264-iDiB
2019-11-10 03:51:14 Firenze.E.Gli.Uffizi.3D.iTALiAN.720p.AUHDTV.x264-iDiB
2019-11-10 03:51:15 Firenze.E.Gli.Uffizi.3D.iTALiAN.AUHDTV.x264-iDiB
2019-11-10 03:51:24 WWE.Friday.Night.Smackdown.2019.11.08.1080p.WEB.x264-LEViTATE
2019-11-10 03:52:01 Greg_Jake_-_Spinnin_Sessions_339__Incl_The_Him_Guestmix-CABLE-11-08-2019-TALiON
2019-11-10 03:52:07 Cage.Warriors.110.WEB.H264-LEViTATE
2019-11-10 03:52:48 Cage.Warriors.110.720p.WEB.H264-LEViTATE
2019-11-10 03:53:01 Martin_Garrix_-_The_Martin_Garrix_Radio_Show-CABLE-11-08-2019-TALiON
2019-11-10 03:53:29 Roy.Jones.Jr.Boxing.45.WEB.H264-LEViTATE
2019-11-10 03:54:01 Tiesto_-_Club_Life_657-CABLE-11-08-2019-TALiON
2019-11-10 03:54:11 Roy.Jones.Jr.Boxing.45.720p.WEB.H264-LEViTATE
2019-11-10 03:55:02 W_and_W_-_Rave_Culture_Radio-CABLE-11-09-2019-TALiON
2019-11-10 03:56:02 Sister_Bliss_-_In_Session-CABLE-11-09-2019-TALiON
2019-11-10 03:57:02 Oliver_Heldens_-_Heldeep_Radio_284-CABLE-11-09-2019-TALiON
2019-11-10 03:57:13 Escape.Room.2019.iTALiAN.1080p.AUHDTV.x264-iDiB
2019-11-10 03:57:15 Escape.Room.2019.iTALiAN.720p.AUHDTV.x264-iDiB
2019-11-10 03:57:36 Escape.Room.2019.iTALiAN.AUHDTV.x264-iDiB
2019-11-10 03:57:52 The.Son.S02E01.DVDRip.x264-PFa
2019-11-10 03:58:01 Fedde_le_Grand_-_Dark_Light_Sessions_377-CABLE-11-09-2019-TALiON
2019-11-10 03:58:43 The.Son.S02E02.DVDRip.x264-PFa
2019-11-10 03:59:05 The.Son.S02E03.DVDRip.x264-PFa
2019-11-10 03:59:43 The.Son.S02E04.DVDRip.x264-PFa
2019-11-10 04:00:10 The.Son.S02E05.DVDRip.x264-PFa
2019-11-10 04:00:43 Jochem_Hamerling-Panorama_009-SAT-10-11-2019-1KING
2019-11-10 04:07:36 Philipp_Ruhmhardt-Plattenleger-SAT-10-11-2019-1KING
2019-11-10 04:09:48 Boxing.2019.11.09.Danny.Dignum.vs.Conrad.Cummings.PPV.WEB.H264-LEViTATE
2019-11-10 04:10:27 Boxing.2019.11.09.Danny.Dignum.vs.Conrad.Cummings.PPV.720p.WEB.H264-LEViTATE
2019-11-10 04:11:08 Boxing.2019.11.09.Chantelle.Cameron.vs.Anahi.Ester.Sanchez.WEB.H264-LEViTATE
2019-11-10 04:11:51 Boxing.2019.11.09.Chantelle.Cameron.vs.Anahi.Ester.Sanchez.720p.WEB.H264-LEViTATE
2019-11-10 04:12:34 Boxing.2019.11.09.Liam.Walsh.vs.Maxi.Hughes.WEB.H264-LEViTATE
2019-11-10 04:13:16 Boxing.2019.11.09.Liam.Walsh.vs.Maxi.Hughes.720p.WEB.H264-LEViTATE
2019-11-10 04:14:07 Boxing.2019.11.09.Micheal.McKinson.vs.Luis.Alberto.Veron.WEB.H264-LEViTATE
2019-11-10 04:14:48 Boxing.2019.11.09.Micheal.McKinson.vs.Luis.Alberto.Veron.720p.WEB.H264-LEViTATE
2019-11-10 04:15:30 A-League.2019.11.08.Melbourne.City.FC.vs.Central.Coast.Mariners.WEB.H264-LEViTATE
2019-11-10 04:16:13 A-League.2019.11.08.Melbourne.City.FC.vs.Central.Coast.Mariners.720p.WEB.H264-LEViTATE
2019-11-10 04:16:51 ISL.2019.11.07.Mumbai.City.FC.vs.FC.Goa.WEB.H264-LEViTATE
2019-11-10 04:17:49 ISL.2019.11.07.Mumbai.City.FC.vs.FC.Goa.720p.WEB.H264-LEViTATE
2019-11-10 04:18:32 Intercontinental.Beach.Soccer.Cup.2019.Semi.Final.Spain.vs.Russia.WEB.H264-LEViTATE
2019-11-10 04:18:35 Bondi.Vet.Coast.to.Coast.S01E05.1080p.HDTV.H264-CCT
2019-11-10 04:19:16 Intercontinental.Beach.Soccer.Cup.2019.Semi.Final.Spain.vs.Russia.720p.WEB.H264-LEViTATE
2019-11-10 04:21:14 Pit.Bulls.and.Parolees.S14E07.Sisters.in.Rescue.1080p.WEB.x264-CAFFEiNE
2019-11-10 04:22:53 Pit.Bulls.and.Parolees.S14E07.Sisters.in.Rescue.720p.WEB.x264-CAFFEiNE
2019-11-10 04:24:50 Jake_La_Furia-Jake_Hit_Up-SAT-02-11-2019-LFA
2019-11-10 04:25:02 Jake_La_Furia-Jake_Hit_Up-SAT-03-11-2019-LFA
2019-11-10 04:25:21 Jake_La_Furia-Jake_Hit_Up-SAT-09-11-2019-LFA
2019-11-10 04:25:36 Max_Brigante_Ft._The_Kolors-105_Mi_Casa-SAT-04-11-2019-LFA
2019-11-10 04:25:48 Vicky_and_Co.-105_Miami-SAT-02-11-2019-LFA
2019-11-10 04:26:07 Vicky_and_Co.-105_Miami-SAT-03-11-2019-LFA
2019-11-10 04:26:26 Vicky_and_Co.-105_Miami-SAT-09-11-2019-LFA
2019-11-10 04:26:31 Boxing.2019.11.09.Billy.Joe.Saunders.Vs.Marcelo.Coceres.720p.AHDTV.x264-ACES
2019-11-10 04:28:06 Pit.Bulls.and.Parolees.S14E07.Sisters.in.Rescue.WEB.x264-CAFFEiNE
2019-11-10 04:36:11 Postcards.2019.10.20.1080p.HDTV.x264-GIMINI
2019-11-10 04:36:42 Postcards.2019.10.20.720p.HDTV.x264-GIMINI
2019-11-10 04:37:13 Postcards.2019.10.20.HDTV.x264-GIMINI
2019-11-10 04:37:45 Postcards.2019.11.03.1080p.HDTV.x264-GIMINI
2019-11-10 04:38:16 Postcards.2019.11.03.720p.HDTV.x264-GIMINI
2019-11-10 04:38:47 Postcards.2019.11.03.HDTV.x264-GIMINI
2019-11-10 04:42:11 Bryan_Ronzani_and_Valeria_Oliveri-105_Weekend-SAT-02-11-2019-LFA
2019-11-10 04:42:57 Bryan_Ronzani_and_Valeria_Oliveri-105_Weekend-SAT-03-11-2019-LFA
2019-11-10 04:43:39 Bryan_Ronzani_and_Valeria_Oliveri-105_Weekend-SAT-09-11-2019-LFA
2019-11-10 04:43:51 Diletta_Leotta_with_D._Battaglia_and_A._Caligiuri_Ft._Gigi_Dalessio-105_Take_Away-SAT-08-11-2019-LFA
2019-11-10 04:43:54 Burying.Old.Alive.1963.BDRip.x264-KEBAP
2019-11-10 04:43:58 Burying.Old.Alive.1963.720p.BluRay.x264-GiMCHi
2019-11-10 04:44:01 Burying.Old.Alive.1963.1080p.BluRay.x264-GiMCHi
2019-11-10 04:44:04 Burying.Old.Alive.1963.COMPLETE.BluRay-GiMCHi
2019-11-10 04:44:11 Diletta_Leotta_with_D._Battaglia_and_A._Caligiuri_Ft._Jake_La_Furia-105_Take_Away-SAT-06-11-2019-LFA
2019-11-10 04:44:23 Max_Brigante_Ft._Manuel_Turizo_and_Julian_Turizo-105_Mi_Casa-SAT-01-11-2019-LFA
2019-11-10 04:44:34 Moko_with_Fabio_B_Feat._Giaime-105_Trap-SAT-01-11-2019-LFA
2019-11-10 04:44:46 Moko_with_Fabio_B_Feat._Ketama126-105_Trap-SAT-04-11-2019-LFA
2019-11-10 04:45:00 Moko_with_Fabio_B_Feat._Ketama126-105_Trap-SAT-06-11-2019-LFA
2019-11-10 04:45:19 Moko_with_Fabio_B_Feat._Ketama126-105_Trap-SAT-07-11-2019-LFA
2019-11-10 04:45:31 Moko_with_Fabio_B_Feat._Ketama126-105_Trap-SAT-08-11-2019-LFA
2019-11-10 04:49:20 UFC.Fight.Night.163.Prelims.WEB.H264-LEViTATE
2019-11-10 04:49:42 Destination.Fear.2019.S01E03.Sweet.Springs.Sanitarium.720p.WEBRip.x264-CAFFEiNE
2019-11-10 04:50:02 UFC.Fight.Night.163.Prelims.720p.WEB.H264-LEViTATE
2019-11-10 04:51:03 Destination.Fear.2019.S01E03.Sweet.Springs.Sanitarium.WEBRip.x264-CAFFEiNE
2019-11-10 04:52:04 Joker.2019.German.DL.AC3.Dubbed.1080p.WEBRip.x264-PsO
2019-11-10 04:52:39 Boxing.2019.11.09.Billy.Joe.Saunders.Vs.Marcelo.Coceres.AHDTV.x264-ACES
2019-11-10 04:55:51 Wentworth.S07E01.DVDRip.x264-PFa
2019-11-10 04:56:34 Wentworth.S07E02.DVDRip.x264-PFa
2019-11-10 04:57:03 Wentworth.S07E03.DVDRip.x264-PFa
2019-11-10 04:57:17 Joker.2019.German.DL.AC3.Dubbed.720p.WEBRip.x264-PsO
2019-11-10 04:57:47 Wentworth.S07E04.DVDRip.x264-PFa
2019-11-10 04:58:16 Wentworth.S07E05.DVDRip.x264-PFa
2019-11-10 04:59:04 Wentworth.S07E06.DVDRip.x264-PFa
2019-11-10 04:59:27 Wentworth.S07E07.DVDRip.x264-PFa
2019-11-10 05:00:01 Wentworth.S07E08.DVDRip.x264-PFa
2019-11-10 05:00:05 Joker.2019.WEBRip.LD.German.x264-PsO
2019-11-10 05:00:46 Wentworth.S07E09.DVDRip.x264-PFa
2019-11-10 05:00:49 Franky_Rizardo-Flow_319-SAT-10-11-2019-1KING
2019-11-10 05:01:12 Wentworth.S07E10.DVDRip.x264-PFa
2019-11-10 05:01:31 Danny_Howard_-_Club_Mix-SAT-11-10-2019-TALiON
2019-11-10 05:07:19 Vice_-_Vice_Airwaves-SAT-11-09-2019-TALiON
2019-11-10 05:08:09 Nora_En_Pure_-_Purified_168-SAT-11-09-2019-TALiON
2019-11-10 05:11:55 FA.Cup.2019.11.09.First.Round.Maidenhead.United.vs.Rotherham.United.WEB.H264-LEViTATE
2019-11-10 05:12:37 FA.Cup.2019.11.09.First.Round.Maidenhead.United.vs.Rotherham.United.720p.WEB.H264-LEViTATE
2019-11-10 05:13:19 EFL.Championship.2019.11.09.Nottingham.Forest.vs.Derby.County.WEB.H264-LEViTATE
2019-11-10 05:13:59 EFL.Championship.2019.11.09.Nottingham.Forest.vs.Derby.County.720p.WEB.H264-LEViTATE
2019-11-10 05:14:42 EFL.Championship.2019.11.09.Preston.North.End.vs.Huddersfield.Town.WEB.H264-LEViTATE
2019-11-10 05:15:24 EFL.Championship.2019.11.09.Preston.North.End.vs.Huddersfield.Town.720p.WEB.H264-LEViTATE
2019-11-10 05:18:29 BrazzersExxtra.19.11.10.Kali.Roses.The.ZZ.Tanning.Salon.XXX.1080p.MP4-KTR
2019-11-10 05:19:57 BrazzersExxtra.19.11.10.Lela.Star.Designer.Dick.XXX.1080p.MP4-KTR
2019-11-10 05:21:21 DontBreakMe.19.11.10.Gianna.Gem.Gimme.Gianna.Gem.XXX.1080p.MP4-KTR
2019-11-10 05:22:58 FakeTaxi.19.11.10.Lara.Marvo.XXX.1080p.MP4-KTR
2019-11-10 05:24:41 Lesbea.19.11.10.Nancy.A.And.Adel.Morel.XXX.1080p.MP4-KTR
2019-11-10 05:26:40 MomsBangTeens.19.11.10.Lexi.Luna.And.Vina.Sky.Wasted.Summer.XXX.1080p.MP4-KTR
2019-11-10 05:35:21 Atmosphere-Bde_Maka_Ska-SINGLE-WEB-2019-FATHEAD
2019-11-10 05:35:24 NBA.2019.11.09.Boston.Celtics.vs.San.Antonio.Spurs.HDTV.x264-WiNNiNG
2019-11-10 05:35:39 Love.Island.Australia.S02E24.1080p.HDTV.x264-CCT
2019-11-10 05:36:08 PornMegaLoad.19.11.09.Eliana.Rose.Precious.Little.Eliana.XXX.1080p.MP4-KTR
2019-11-10 05:37:43 PornMegaLoad.19.11.09.Victoria.Lobov.Victorias.Bra.Secret.XXX.1080p.MP4-KTR
2019-11-10 05:41:49 Gardening.Australia.S30E41.720p.HDTV.x264-PLUTONiUM
2019-11-10 05:42:36 CastingCouch-HD.19.11.08.Raye.XXX.2160p.MP4-KTR
2019-11-10 05:42:49 Gardening.Australia.S30E41.1080p.HDTV.x264-PLUTONiUM
2019-11-10 05:44:08 Sports.Sunday.2019.10.20.720p.HDTV.x264-PLUTONiUM
2019-11-10 05:44:43 Sports.Sunday.2019.10.20.HDTV.x264-PLUTONiUM
2019-11-10 05:45:59 Boxing.2019.11.09.Devin.Haney.Vs.Alfredo.Santiago.PPV.720p.AHDTV.x264-ACES
2019-11-10 05:50:06 Boxing.2019.11.09.Albert.Onolunose.vs.Janibek.Alimkhanuly.720p.WEB.H264-LEViTATE
2019-11-10 05:50:39 Boxing.2019.11.09.Albert.Onolunose.vs.Janibek.Alimkhanuly.WEB.H264-LEViTATE
2019-11-10 05:51:14 Boxing.2019.11.09.Amir.Imam.vs.Marcos.Mojica.720p.WEB.H264-LEViTATE
2019-11-10 05:51:17 CzechCasting.19.11.10.Anna.0637.XXX.1080p.MP4-KTR
2019-11-10 05:51:48 Boxing.2019.11.09.Amir.Imam.vs.Marcos.Mojica.WEB.H264-LEViTATE
2019-11-10 05:52:01 ELYSION-TiNYiSO
2019-11-10 05:52:22 Boxing.2019.11.09.David.Kaminsky.vs.Travis.Jerig.720p.WEB.H264-LEViTATE
2019-11-10 05:52:35 Surviving.Medieval-TiNYiSO
2019-11-10 05:52:56 Boxing.2019.11.09.David.Kaminsky.vs.Travis.Jerig.WEB.H264-LEViTATE
2019-11-10 05:52:58 CzechCasting.19.11.10.Anna.0637.XXX.2160p.MP4-KTR
2019-11-10 05:53:05 Radish-TiNYiSO
2019-11-10 05:53:29 Boxing.2019.11.09.Esquiva.Falcao.vs.Manny.Woods.720p.WEB.H264-LEViTATE
2019-11-10 05:54:04 Boxing.2019.11.09.Esquiva.Falcao.vs.Manny.Woods.WEB.H264-LEViTATE
2019-11-10 05:54:15 The.Princess.The.Stray.Cat.And.Matters.Of.The.Heart.2-TiNYiSO
2019-11-10 05:54:38 Boxing.2019.11.09.Gabriel.Flores.Jr.vs.Aelio.Mesquita.720p.WEB.H264-LEViTATE
2019-11-10 05:55:12 Boxing.2019.11.09.Gabriel.Flores.Jr.vs.Aelio.Mesquita.WEB.H264-LEViTATE
2019-11-10 05:55:32 Kings.League.II-SKIDROW
2019-11-10 05:55:48 Boxing.2019.11.09.Robeisy.Ramirez.vs.Fernando.Ibarra.De.Anda.720p.WEB.H264-LEViTATE
2019-11-10 05:55:51 Boxing.2019.11.09.Nikita.Ababiy.Vs.Jonathan.Batista.PPV.720p.AHDTV.x264-ACES
2019-11-10 05:56:20 Killergram.19.11.09.Christina.May.A.Handyman.Spitroast.XXX.720p.MP4-KTR
2019-11-10 05:56:23 Boxing.2019.11.09.Robeisy.Ramirez.vs.Fernando.Ibarra.De.Anda.WEB.H264-LEViTATE
2019-11-10 05:57:33 DDFBusty.19.11.10.Josephine.Must-See.Bathtub.Titty.Fuck.XXX.1080p.MP4-KTR
2019-11-10 05:57:53 Insomnimal_Planet-Martians_Stuck_On_Earth-WEB-CN-2019-TosK
2019-11-10 05:57:54 Waynes_So_Sad-The_Art_of_Embarrassment-WEB-CN-2019-TosK
2019-11-10 05:57:56 Peace_And_Wave-AFDT-WEB-CN-2019-TosK
2019-11-10 05:57:56 Sandwich_Fail-Roadkill-WEB-CN-2019-TosK
2019-11-10 05:57:57 Favours-Everything_Comes_Full_Circle-WEB-2019-TosK
2019-11-10 05:57:57 The_Next_Big_Thing-Zhao_Lei-WEB-CN-2019-TosK
2019-11-10 05:57:59 Blank_Xu-All-WEB-CN-2019-TosK
2019-11-10 05:57:59 MJ116-Don-WEB-CN-2019-TosK
2019-11-10 05:58:59 Flesh_Juicer-The_Fjs_Horror_Story_The_Door_Of_Old_Mansion-WEB-CN-2019-TosK
2019-11-10 05:59:31 DDFBusty.19.11.10.Josephine.Must-See.Bathtub.Titty.Fuck.XXX.2160p.MP4-KTR
2019-11-10 06:00:39 Shameless.US.S10E01.WEB.h264-TBS
2019-11-10 06:00:59 Boxing.2019.11.09.Nikita.Ababiy.Vs.Jonathan.Batista.PPV.AHDTV.x264-ACES
2019-11-10 06:01:05 Twin.S01E05.NORWEGiAN.720p.WEB.X264-HENRETTELSE
2019-11-10 06:01:07 Shameless.US.S10E01.720p.WEB.h264-TBS
2019-11-10 06:01:08 Shameless.US.S10E01.1080p.WEB.h264-TBS
2019-11-10 06:01:16 Olivier_Weiter-Weiter_Radio-SAT-10-11-2019-1KING
2019-11-10 06:01:49 John_Monkman_-_The_Anjunadeep_Editon_277-SAT-11-09-2019-TALiON
2019-11-10 06:02:23 Fussball.1.Bundesliga.2019-2020.11.Spieltag.FC.Bayern.Muenchen.vs.Borussia.Dortmund.German.2160p.UHDTV.HEVC-SPORTY
2019-11-10 06:02:49 AllInternal.19.11.10.Jenny.Wild.XXX.1080p.MP4-KTR
2019-11-10 06:03:01 Twin.S01E06.NORWEGiAN.720p.WEB.X264-HENRETTELSE
2019-11-10 06:04:01 Sven_van_Hees_-_The_Greatest_Switch_(Studio_Brussel)-CABLE-11-08-2019-TALiON
2019-11-10 06:05:01 Joris_Biesmans_-_Switch_(Studio_Brussel)-CABLE-11-08-2019-TALiON
2019-11-10 06:06:02 Frank_De_Wulf_-_The_Greatest_Switch_(Studio_Brussel)-CABLE-11-08-2019-TALiON
2019-11-10 06:06:51 Doggystyle.S02E05.DANiSH.720p.WEB.h264-DANES
2019-11-10 06:07:01 Breadwin_-_Switch_(Studio_Brussel)-CABLE-11-08-2019-TALiON
2019-11-10 06:07:07 Doggystyle.S02E05.DANiSH.1080p.WEB.h264-DANES
2019-11-10 06:08:32 Earth.Odyssey.With.Dylan.Dreyer.S02E12.Philippines.Revisited.1080p.HDTV.x264-CRiMSON
2019-11-10 06:08:58 Earth.Odyssey.With.Dylan.Dreyer.S02E12.Philippines.Revisited.720p.HDTV.x264-CRiMSON
2019-11-10 06:09:23 Earth.Odyssey.With.Dylan.Dreyer.S02E12.Philippines.Revisited.HDTV.x264-CRiMSON
2019-11-10 06:11:34 K2.2019.11.10.DANiSH.720p.WEB.h264-DANES
2019-11-10 06:13:35 AEW.Full.Gear.2019.Pre-Show.WEB.H264-LEViTATE
2019-11-10 06:14:14 AEW.Full.Gear.2019.Pre-Show.720p.WEB.H264-LEViTATE
2019-11-10 06:14:53 AEW.Full.Gear.2019.Pre-Show.1080p.WEB.H264-LEViTATE
2019-11-10 06:15:33 AEW.Full.Gear.2019.PPV.WEB.H264-LEViTATE
2019-11-10 06:17:32 AEW.Full.Gear.2019.PPV.720p.WEB.H264-LEViTATE
2019-11-10 06:17:40 DR.K.Klassisk.Luisi.Og.Brahms.Nr.2.DANiSH.720p.WEB.h264-DANES
2019-11-10 06:17:45 AnalTeenAngels.19.11.10.Ava.Black.Candy.Dance.Girl.XXX.1080p.MP4-KTR
2019-11-10 06:17:58 My.Fair.Princess-TiNYiSO
2019-11-10 06:20:59 AEW.Full.Gear.2019.PPV.1080p.WEB.H264-LEViTATE
2019-11-10 06:21:28 AnalTeenAngels.19.11.10.Ava.Black.Candy.Dance.Girl.XXX.2160p.MP4-KTR
2019-11-10 06:22:26 Bleu_Jeans_Bleu-Perfecto-FR-CD-FLAC-2019-UTP
2019-11-10 06:24:46 Bleu_Jeans_Bleu-Perfecto-FR-2019-UTP
2019-11-10 06:28:06 Leavenworth.S01E04.WEB.h264-TBS
2019-11-10 06:28:17 Leavenworth.S01E04.720p.WEB.h264-TBS
2019-11-10 06:28:29 Leavenworth.S01E04.1080p.WEB.h264-TBS
2019-11-10 06:32:27 GingerPatch.19.11.10.Amber.Addis.Pristine.Ginger.Pussy.XXX.1080p.MP4-KTR
2019-11-10 06:35:36 DadCrush.19.11.10.Charlotte.Sins.Virginal.Vag.Vlogging.XXX.1080p.MP4-KTR
2019-11-10 06:41:51 MilfBody.19.11.10.Nina.Elle.The.Hottest.MILF.Gym.Bod.XXX.1080p.MP4-KTR
2019-11-10 06:44:45 Vets.Saving.Pets.S02E06.The.Lions.Share.1080p.HDTV.x264-CRiMSON
2019-11-10 06:45:09 Vets.Saving.Pets.S02E06.The.Lions.Share.720p.HDTV.x264-CRiMSON
2019-11-10 06:45:16 TeamSkeetSelects.19.11.10.Best.Of.Teen.Bush.1.XXX.1080p.MP4-KTR
2019-11-10 06:45:34 Vets.Saving.Pets.S02E06.The.Lions.Share.HDTV.x264-CRiMSON
2019-11-10 06:49:14 Lets.Make.A.Deal.2009.S11E35.1080p.WEB.x264-LiGATE
2019-11-10 06:49:15 ShoplyfterMylf.19.11.08.Amber.Chase.XXX.1080p.MP4-KTR
2019-11-10 06:50:03 Lets.Make.A.Deal.2009.S11E35.720p.WEB.x264-LiGATE
2019-11-10 06:50:37 Lets.Make.A.Deal.2009.S11E35.WEB.x264-LiGATE
2019-11-10 06:51:14 VA-Gulf_Coast_Compilation-Pimpin_A_Hustle-REPACK-CD-FLAC-1997-CALiFLAC
2019-11-10 06:52:05 The.Bold.and.The.Beautiful.S33E40.1080p.WEB.x264-LiGATE
2019-11-10 06:52:27 ShoplyfterMylf.19.11.08.Dana.Dearmond.XXX.1080p.MP4-KTR
2019-11-10 06:52:48 The.Bold.and.The.Beautiful.S33E40.720p.WEB.x264-LiGATE
2019-11-10 06:53:29 The.Bold.and.The.Beautiful.S33E40.WEB.x264-LiGATE
2019-11-10 06:55:57 ShoplyfterMylf.19.11.08.Sheena.Ryder.XXX.1080p.MP4-KTR
2019-11-10 06:56:59 The.Price.Is.Right.S48E34.1080p.WEB.x264-LiGATE
2019-11-10 06:58:05 The.Price.Is.Right.S48E34.720p.WEB.x264-LiGATE
2019-11-10 06:58:41 The.Price.Is.Right.S48E34.WEB.x264-LiGATE
2019-11-10 07:00:20 PlayboyPlus.19.11.10.Gianna.Dior.Flawless.Beauty.XXX.1080p.MP4-KTR
2019-11-10 07:01:26 PlayboyPlus.19.11.10.Gianna.Dior.Flawless.Beauty.XXX.2160p.MP4-KTR
2019-11-10 07:03:10 DesperateAmateurs.19.11.10.Sasha.XXX.720p.MP4-KTR
2019-11-10 07:05:22 Boxing.2019.11.09.KSI.Vs.Logan.Paul.PPV.720p.AHDTV.x264-ACES
2019-11-10 07:05:56 AbbyWinters.19.11.09.Casey.Q.And.Lotte.L.Lesbian.XXX.1080p.MP4-KTR
2019-11-10 07:10:24 EvilAngel.19.11.10.Khloe.Kapri.Anal.Maniacts.XXX.1080p.MP4-KTR
2019-11-10 07:11:04 Building.Giants.S03E01.Super.Skyscraper.Chicago.720p.WEBRip.x264-CAFFEiNE
2019-11-10 07:12:14 Il.Corriere.Della.Sera.11.10.2019.iTALiAN.RETAiL.eBook-DiVER
2019-11-10 07:12:33 Building.Giants.S03E01.Super.Skyscraper.Chicago.WEBRip.x264-CAFFEiNE
2019-11-10 07:14:02 Lone.Star.Law.S06E07.Shrimp.and.Run.720p.WEBRip.x264-CAFFEiNE
2019-11-10 07:14:42 EvilAngel.19.11.10.Adriana.Chechik.A.For.Anal.XXX.1080p.MP4-KTR
2019-11-10 07:15:33 Lone.Star.Law.S06E07.Shrimp.and.Run.WEBRip.x264-CAFFEiNE
2019-11-10 07:18:05 EvilAngel.19.11.10.Adriana.Chechik.A.For.Anal.XXX.2160p.MP4-KTR
2019-11-10 07:19:06 South.Park.S18E01.SPANiSH.1080p.WEB.x264-4FiRE
2019-11-10 07:20:09 South.Park.S18E01.SPANiSH.720p.WEB.x264-4FiRE
2019-11-10 07:21:00 South.Park.S18E01.SPANiSH.WEB.x264-4FiRE
2019-11-10 07:21:51 South.Park.S18E02.SPANiSH.1080p.WEB.x264-4FiRE
2019-11-10 07:22:45 South.Park.S18E02.SPANiSH.720p.WEB.x264-4FiRE
2019-11-10 07:23:37 South.Park.S18E02.SPANiSH.WEB.x264-4FiRE
2019-11-10 07:23:47 GirlsWay.19.11.10.Emma.Hix.And.Aaliyah.Hadid.Encyclezpedia.Clitannica.XXX.1080p.MP4-KTR
2019-11-10 07:24:37 South.Park.S18E03.SPANiSH.1080p.WEB.x264-4FiRE
2019-11-10 07:25:28 South.Park.S18E03.SPANiSH.720p.WEB.x264-4FiRE
2019-11-10 07:26:16 GirlsWay.19.11.10.Emma.Hix.And.Aaliyah.Hadid.Encyclezpedia.Clitannica.XXX.2160p.MP4-KTR
2019-11-10 07:26:19 South.Park.S18E03.SPANiSH.WEB.x264-4FiRE
2019-11-10 07:27:15 South.Park.S18E04.SPANiSH.1080p.WEB.x264-4FiRE
2019-11-10 07:28:07 South.Park.S18E04.SPANiSH.720p.WEB.x264-4FiRE
2019-11-10 07:29:05 South.Park.S18E04.SPANiSH.WEB.x264-4FiRE
2019-11-10 07:29:16 Boxing.2019.11.09.KSI.Vs.Logan.Paul.PPV.AHDTV.x264-ACES
2019-11-10 07:29:56 South.Park.S18E05.SPANiSH.1080p.WEB.x264-4FiRE
2019-11-10 07:30:47 South.Park.S18E05.SPANiSH.720p.WEB.x264-4FiRE
2019-11-10 07:31:03 Destination.Fear.S01E03.Sweet.Springs.Sanitarium.1080p.HDTV.x264-CRiMSON
2019-11-10 07:31:38 South.Park.S18E05.SPANiSH.WEB.x264-4FiRE
2019-11-10 07:32:29 South.Park.S18E06.SPANiSH.1080p.WEB.x264-4FiRE
2019-11-10 07:33:20 South.Park.S18E06.SPANiSH.720p.WEB.x264-4FiRE
2019-11-10 07:33:56 MonstersOfCock.19.11.10.Riley.Reid.XXX.1080p.MP4-KTR
2019-11-10 07:34:12 South.Park.S18E06.SPANiSH.WEB.x264-4FiRE
2019-11-10 07:35:12 South.Park.S18E07.SPANiSH.1080p.WEB.x264-4FiRE
2019-11-10 07:36:03 South.Park.S18E07.SPANiSH.720p.WEB.x264-4FiRE
2019-11-10 07:36:54 South.Park.S18E07.SPANiSH.WEB.x264-4FiRE
2019-11-10 07:38:14 South.Park.S18E08.SPANiSH.1080p.WEB.x264-4FiRE
2019-11-10 07:38:24 Allt.For.Sverige.S09E03.SWEDiSH.720p.WEB.x264-NORUSH
2019-11-10 07:38:24 MonstersOfCock.19.11.10.Riley.Reid.XXX.2160p.MP4-KTR
2019-11-10 07:39:05 Allt.For.Sverige.S09E03.SWEDiSH.1080p.WEB.x264-NORUSH
2019-11-10 07:39:06 South.Park.S18E08.SPANiSH.720p.WEB.x264-4FiRE
2019-11-10 07:40:06 South.Park.S18E08.SPANiSH.WEB.x264-4FiRE
2019-11-10 07:40:58 South.Park.S18E09.SPANiSH.1080p.WEB.x264-4FiRE
2019-11-10 07:41:41 Lustful.Survival-TiNYiSO
2019-11-10 07:41:48 South.Park.S18E09.SPANiSH.720p.WEB.x264-4FiRE
2019-11-10 07:42:43 South.Park.S18E09.SPANiSH.WEB.x264-4FiRE
2019-11-10 07:43:43 South.Park.S18E10.SPANiSH.1080p.WEB.x264-4FiRE
2019-11-10 07:44:15 Innan.Vi.Dor.S02E05.SWEDiSH.720p.WEB.x264-NORUSH
2019-11-10 07:44:37 South.Park.S18E10.SPANiSH.720p.WEB.x264-4FiRE
2019-11-10 07:44:50 Innan.Vi.Dor.S02E05.SWEDiSH.1080p.WEB.x264-NORUSH
2019-11-10 07:45:34 ClubSeventeen.19.11.10.Foxy.Lee.Solo.XXX.1080p.MP4-KTR
2019-11-10 07:45:37 South.Park.S18E10.SPANiSH.WEB.x264-4FiRE
2019-11-10 07:46:32 South.Park.S19E01.SPANiSH.1080p.WEB.x264-4FiRE
2019-11-10 07:47:07 La.Gazzetta.Dello.Sport.11.10.2019.iTALiAN.RETAiL.eBook-DiVER
2019-11-10 07:47:23 South.Park.S19E01.SPANiSH.720p.WEB.x264-4FiRE
2019-11-10 07:48:31 South.Park.S19E01.SPANiSH.WEB.x264-4FiRE
2019-11-10 07:48:53 ClubSeventeen.19.11.10.Foxy.Lee.Solo.XXX.2160p.MP4-KTR
2019-11-10 07:49:30 South.Park.S19E02.SPANiSH.1080p.WEB.x264-4FiRE
2019-11-10 07:50:00 Vetenskapens.Varld.S32E12.SWEDiSH.720p.WEB.x264-NORUSH
2019-11-10 07:50:36 Vetenskapens.Varld.S32E12.SWEDiSH.1080p.WEB.x264-NORUSH
2019-11-10 07:50:37 South.Park.S19E02.SPANiSH.720p.WEB.x264-4FiRE
2019-11-10 07:51:29 South.Park.S19E02.SPANiSH.WEB.x264-4FiRE
2019-11-10 07:51:56 Vibronic_Nation_-_Hello_You-(4061707258749)-WEB-2019-MARiBOR
2019-11-10 07:52:20 South.Park.S19E03.SPANiSH.1080p.WEB.x264-4FiRE
2019-11-10 07:53:11 South.Park.S19E03.SPANiSH.720p.WEB.x264-4FiRE
2019-11-10 07:54:05 South.Park.S19E03.SPANiSH.WEB.x264-4FiRE
2019-11-10 07:54:56 South.Park.S19E04.SPANiSH.1080p.WEB.x264-4FiRE
2019-11-10 07:55:05 Lost.Secrets.S01E01.Nazi.Dark.Magic.720p.WEBRip.x264-CAFFEiNE
2019-11-10 07:55:48 South.Park.S19E04.SPANiSH.720p.WEB.x264-4FiRE
2019-11-10 07:56:33 Lost.Secrets.S01E01.Nazi.Dark.Magic.WEBRip.x264-CAFFEiNE
2019-11-10 07:57:41 South.Park.S19E04.SPANiSH.WEB.x264-4FiRE
2019-11-10 07:58:02 GroupSexGames.19.11.10.Cleo.And.Amber.Getting.Ass.Fucked.XXX.1080p.MP4-KTR
2019-11-10 07:59:12 South.Park.S19E05.SPANiSH.1080p.WEB.x264-4FiRE
2019-11-10 08:00:40 South.Park.S19E05.SPANiSH.720p.WEB.x264-4FiRE
2019-11-10 08:02:18 South.Park.S19E05.SPANiSH.WEB.x264-4FiRE
2019-11-10 08:03:11 South.Park.S19E06.SPANiSH.1080p.WEB.x264-4FiRE
2019-11-10 08:03:44 LarasPlayground.19.11.08.Olga.Cabaeva.Part.1.XXX.1080p.MP4-KTR
2019-11-10 08:04:03 South.Park.S19E06.SPANiSH.720p.WEB.x264-4FiRE
2019-11-10 08:04:56 South.Park.S19E06.SPANiSH.WEB.x264-4FiRE
2019-11-10 08:06:07 South.Park.S19E07.SPANiSH.1080p.WEB.x264-4FiRE
2019-11-10 08:06:58 South.Park.S19E07.SPANiSH.720p.WEB.x264-4FiRE
2019-11-10 08:07:26 Nubiles.19.11.10.Alisa.Lee.Petite.Pussy.Play.XXX.1080p.MP4-KTR
2019-11-10 08:07:50 South.Park.S19E07.SPANiSH.WEB.x264-4FiRE
2019-11-10 08:08:28 Da_Hot_Hatches_-_Dancing-(4061707249006)-WEB-2019-MARiBOR
2019-11-10 08:08:41 South.Park.S19E08.SPANiSH.1080p.WEB.x264-4FiRE
2019-11-10 08:08:54 Nubiles.19.11.10.Naja.Sexy.Sequin.XXX.1080p.MP4-KTR
2019-11-10 08:08:57 Keno_and_Jessia_-_Paralyzed_(Steve_80_Remix)-(DDM040R)-WEB-2019-MARiBOR
2019-11-10 08:09:33 South.Park.S19E08.SPANiSH.720p.WEB.x264-4FiRE
2019-11-10 08:10:24 South.Park.S19E08.SPANiSH.WEB.x264-4FiRE
2019-11-10 08:10:47 Anilos.19.11.10.Beth.Model.For.You.XXX.1080p.MP4-KTR
2019-11-10 08:11:15 South.Park.S19E09.SPANiSH.1080p.WEB.x264-4FiRE
2019-11-10 08:12:06 South.Park.S19E09.SPANiSH.720p.WEB.x264-4FiRE
2019-11-10 08:12:35 Drunk.Sex.Orgy.Aufgemotzt.zur.Pornokirmes.German.XXX.DVDRiP.x264-SharpXXX
2019-11-10 08:12:58 South.Park.S19E09.SPANiSH.WEB.x264-4FiRE
2019-11-10 08:13:11 StepSiblingsCaught.19.11.10.Jewelz.Blu.And.Natalie.Knight.Slut.Scouts.XXX.1080p.MP4-KTR
2019-11-10 08:13:49 South.Park.S19E10.SPANiSH.1080p.WEB.x264-4FiRE
2019-11-10 08:13:59 The.DNA.of.Murder.with.Paul.Holes.S01E05.WEB.x264-FLX
2019-11-10 08:14:54 South.Park.S19E10.SPANiSH.720p.WEB.x264-4FiRE
2019-11-10 08:15:09 Rayman_Rave_-_Bass_Up-(3610154819013)-WEB-2014-MARiBOR
2019-11-10 08:15:28 The.DNA.of.Murder.with.Paul.Holes.S01E05.1080p.WEB.x264-FLX
2019-11-10 08:15:45 South.Park.S19E10.SPANiSH.WEB.x264-4FiRE
2019-11-10 08:16:03 Rayman_Rave_-_Harmony_Destruction_(The_Single)-(3610155818046)-WEB-2014-MARiBOR
2019-11-10 08:16:08 The.DNA.of.Murder.with.Paul.Holes.S01E05.720p.WEB.x264-FLX
2019-11-10 08:20:56 Ace_Deuce-Comin_Up_N_Da_Ghetto-CD-FLAC-1996-CALiFLAC
2019-11-10 08:31:14 FamilySinners.19.07.18.Jasmine.Jae.Mothers.And.Stepsons.XXX.2160p.MP4-KTR
2019-11-10 08:32:11 BAM-A_Rough_Zaggin_Bible_(Pray_At_Will)-1995-CR_INT
2019-11-10 08:32:18 BAM-A_Rough_Zaggin_Bible_(Pray_At_Will)-CD-FLAC-1995-CALiFLAC
2019-11-10 08:33:40 NHL.2019.11.09.Columbus.Blue.Jackets.vs.Colorado.Avalanche.720p.WEB.h264-GORE
2019-11-10 08:34:43 Marq_Aurel__Rayman_Rave_-_To_You-(BLV4241763)-WEB-2017-MARiBOR
2019-11-10 08:34:51 FamilySinners.19.07.18.Jillian.Janson.Step.Daughter.XXX.2160p.MP4-KTR
2019-11-10 08:35:15 Marq_Aurel_and_BB-Project_-_Lose_You_Again_(Blue)_(Radio_Edition)-WEB-2010-MARiBOR
2019-11-10 08:35:45 Marq_Aurel_and_Beatbreaker_feat._Nate_Monoxide_-_Road_Rat-(3661585770305)-WEB-2011-MARiBOR
2019-11-10 08:36:16 Marq_Aurel_and_Beatbreaker_feat._Nate_Monoxide_-_Road_Rat_(The_Remixes)-WEB-2011-MARiBOR
2019-11-10 08:36:48 Marq_Aurel_and_DJ_Lisanti_feat._Kate_Lesling_-_Neverland_2K15-(3614594879873)-WEB-2015-MARiBOR
2019-11-10 08:37:09 Marq_Aurel_and_Flixxcore_-_Brick_In_The_Wall-(3610157098859)-WEB-2014-MARiBOR
2019-11-10 08:37:44 Marq_Aurel_and_Mizz_Camela_-_Stomp_Out_(Max_R_Remix)-(3614594349048)-WEB-2015-MARiBOR
2019-11-10 08:38:08 Marq_Aurel_and_Rayman_Rave_-_Another_Way-(10105250)-WEB-2016-MARiBOR
2019-11-10 08:38:18 FamilySinners.19.07.18.Kendra.Spade.Step.Siblings.XXX.2160p.MP4-KTR
2019-11-10 08:38:38 Marq_Aurel_and_Rayman_Rave_-_Into_The_Blue-(3610156902492)-WEB-2014-MARiBOR
2019-11-10 08:38:55 3_Cohens-Tightrope-WEB-2013-ENRiCH
2019-11-10 08:39:04 Marq_Aurel_Pres._C-NatixX_Ft._A.N.A_-_Liebe_(Radio_Edition)-(BLV182204)-WEB-2011-MARiBOR
2019-11-10 08:39:05 Marq_Aurel_Pres._C-NatixX_Ft._A.N.A_-_Liebe_Radio_Edition-BLV182204-WEB-2011-MARiBOR
2019-11-10 08:39:30 Marq_Aurel_vs_Freddy_O_-_The_Sailor-(10017136)-WEB-2010-MARiBOR
2019-11-10 08:39:30 VA-M2O_La_Storia_Della_Dance_Vol._3_(Selected_by_Dino_Brown)-(1975944022)-2CD-2019-B2A_INT
2019-11-10 08:40:23 801-Latino-REISSUE-WEB-2015-ENTiTLED
2019-11-10 08:41:58 FamilySinners.19.07.18.Khloe.Kapri.Step.Siblings.XXX.2160p.MP4-KTR
2019-11-10 08:43:39 Kees.Van.Der.Spek.Oplichters.Aangepakt.S01E01.DUTCH.720p.HDTV.x264-DTOD
2019-11-10 08:44:01 The.Death.And.Return.Of.Superman.2019.LATiN.SPANiSH.BDRip.x264-DESPACiTO
2019-11-10 08:44:18 Feed.Your.Soul.Music.Feed.Your.Soul.Japan.WAV-MASCHiNE
2019-11-10 08:44:54 The.Death.And.Return.Of.Superman.2019.LATiN.SPANiSH.720p.BluRay.x264-DESPACiTO
2019-11-10 08:45:05 Allegro.Non.Troppo.1976.iNTERNAL.iTALiAN.BDRip.x264-PROSCiUTTO
2019-11-10 08:45:07 Allegro.Non.Troppo.1976.iTALiAN.1080p.BluRay.x264-PROSCiUTTO
2019-11-10 08:45:11 Allegro.Non.Troppo.1976.iTALiAN.720p.BluRay.x264-PROSCiUTTO
2019-11-10 08:45:16 West.and.Soda.1965.iNTERNAL.iTALiAN.BDRiP.x264-PROSCiUTTO
2019-11-10 08:45:17 FamilySinners.19.07.18.London.River.Mothers.And.Stepsons.XXX.2160p.MP4-KTR
2019-11-10 08:45:26 West.and.Soda.1965.iTALiAN.1080p.BluRay.x264-PROSCiUTTO
2019-11-10 08:45:47 The.Death.And.Return.Of.Superman.2019.LATiN.SPANiSH.1080p.BluRay.x264-DESPACiTO
2019-11-10 08:45:47 West.and.Soda.1965.iTALiAN.720p.BluRay.x264-PROSCiUTTO
2019-11-10 08:45:51 Julez.Jadon.NY.Chronicles.WAV-MASCHiNE
2019-11-10 08:46:23 Kees.Van.Der.Spek.Oplichters.Aangepakt.S01E02.DUTCH.720p.HDTV.x264-DTOD
2019-11-10 08:47:28 Keinemusik.Werkzeug.II.by.Rampa.WAV-MASCHiNE
2019-11-10 08:48:22 FamilySinners.19.07.18.Vienna.Rose.Step.Daughter.XXX.2160p.MP4-KTR
2019-11-10 08:52:15 FamilySinners.19.07.18.Whitney.Wright.Step.Siblings.XXX.2160p.MP4-KTR
2019-11-10 08:52:55 Kees.Van.Der.Spek.Oplichters.Aangepakt.S01E01.DUTCH.1080p.HDTV.x264-DTOD
2019-11-10 08:54:16 Octve.co.og.Series.Unkwn.Vol.3.WAV-MASCHiNE
2019-11-10 08:56:00 Origin.Sound.Day.Dreaming.2.MULTiFORMAT-MASCHiNE
2019-11-10 08:57:03 Jeff_Wayne-The_Eve_Of_War__Ben_Liebrand_Remix-NFOFIX_REPACK-12INCH_VINYL-FLAC-1989-LoKET
2019-11-10 08:57:04 Kees.Van.Der.Spek.Oplichters.Aangepakt.S01E02.DUTCH.1080p.HDTV.x264-DTOD
2019-11-10 08:57:05 Live.PD.S02E03.GERMAN.1080p.HDTV.x264-REQiT
2019-11-10 08:57:43 Live.PD.S02E03.GERMAN.720p.HDTV.x264-REQiT
2019-11-10 08:58:18 Live.PD.S02E03.GERMAN.HDTV.x264-REQiT
2019-11-10 08:58:55 Live.PD.S02E04.GERMAN.1080p.HDTV.x264-REQiT
2019-11-10 08:59:01 OST.Audio.Cyberpunk.WAV-MASCHiNE
2019-11-10 08:59:32 Live.PD.S02E04.GERMAN.720p.HDTV.x264-REQiT
2019-11-10 09:00:08 Live.PD.S02E04.GERMAN.HDTV.x264-REQiT
2019-11-10 09:00:42 Peter_Rye-Dieddroboter-CD-FLAC-2019-MUNDANE
2019-11-10 09:00:44 Total.Dreamer.S01E81.GERMAN.1080p.HDTV.x264-REQiT
2019-11-10 09:00:56 Peter_Rye-Dieddroboter-2019-VULGAR
2019-11-10 09:01:21 Total.Dreamer.S01E81.GERMAN.720p.HDTV.x264-REQiT
2019-11-10 09:01:56 Total.Dreamer.S01E81.GERMAN.HDTV.x264-REQiT
2019-11-10 09:03:54 Paradise.Kollektivet.S02E11.DANISH.720p.WEB.h264-FFD
2019-11-10 09:04:57 Paradise.Kollektivet.S02E12.DANISH.720p.WEB.h264-FFD
2019-11-10 09:05:01 ATKGirlfriends.14.10.21.Carmen.Callaway.XXX.1080p.MP4-KTR
2019-11-10 09:06:01 Paradise.Kollektivet.S02E13.DANISH.720p.WEB.h264-FFD
2019-11-10 09:06:57 MetArt.com_19.11.10.Eva.Elfie.What.You.Like.XXX.iMAGESET-YAPG
2019-11-10 09:07:03 Paradise.Kollektivet.S02E14.DANISH.720p.WEB.h264-FFD
2019-11-10 09:07:50 SexArt.com_19.11.10.Dita.V.Butterfly.XXX.iMAGESET-YAPG
2019-11-10 09:07:59 ATKGirlfriends.14.10.21.Carmen.Callaway.XXX.2160p.MP4-KTR
2019-11-10 09:08:07 AmKingdom.com_19.11.09.Amateurs.Series.15.Softcore.146.Lily.Love.XXX.IMAGESET-FuGLi
2019-11-10 09:08:07 Paradise.Kollektivet.S02E15.DANISH.720p.WEB.h264-FFD
2019-11-10 09:09:00 MetArt.com_19.11.10.Eva.Amari.Red.Teddy.XXX.iMAGESET-YAPG
2019-11-10 09:09:10 Paradise.Kollektivet.S02E16.DANISH.720p.WEB.h264-FFD
2019-11-10 09:09:24 MetArt.com_19.11.10.Lola.Cherie.The.Spa.XXX.iMAGESET-YAPG
2019-11-10 09:10:13 Paradise.Kollektivet.S02E17.DANISH.720p.WEB.h264-FFD
2019-11-10 09:10:38 MetArtX.com_19.11.10.Laina.Chaise.XXX.iMAGESET-YAPG
2019-11-10 09:11:03 Sample.Magic.Soma.Records.Sample.Pack.Pt.1.MULTiFORMAT-MASCHiNE
2019-11-10 09:11:16 Paradise.Kollektivet.S02E18.DANISH.720p.WEB.h264-FFD
2019-11-10 09:11:30 TheLifeErotic.com_19.11.10.Helena.Moeller.Latex.Legs.1.XXX.iMAGESET-YAPG
2019-11-10 09:11:51 ATKGirlfriends.14.10.23.Emma.Evins.XXX.1080p.MP4-KTR
2019-11-10 09:12:19 Paradise.Kollektivet.S02E19.DANISH.720p.WEB.h264-FFD
2019-11-10 09:13:23 Paradise.Kollektivet.S02E20.DANISH.720p.WEB.h264-FFD
2019-11-10 09:14:54 Sample.Safari.Piano.Guts.WAV-MASCHiNE
2019-11-10 09:15:58 ATKGirlfriends.14.10.23.Emma.Evins.XXX.2160p.MP4-KTR
2019-11-10 09:16:08 Soniccouture.Morpheus.v2.KONTAKT-MASCHiNE
2019-11-10 09:16:40 The.Secret.Life.Of.Pets.2.2019.PLDUB.iNT.DVDRiP.x264-N0L
2019-11-10 09:16:45 Marnies.Welt.2018.PLDUB.iNT.DVDRiP.x264-N0L
2019-11-10 09:16:57 Ma.2019.PL.iNT.DVDRiP.x264-N0L
2019-11-10 09:17:09 Krew.Boga.2018.PL.iNT.DVDRiP.x264-N0L
2019-11-10 09:18:30 Parterapi.S01E07.SWEDiSH.720p.WEB.X264-EXECUTION
2019-11-10 09:18:32 Parterapi.S01E08.SWEDiSH.720p.WEB.X264-EXECUTION
2019-11-10 09:18:34 Parterapi.S01E07.SWEDiSH.1080p.WEB.X264-EXECUTION
2019-11-10 09:18:39 Parterapi.S01E08.SWEDiSH.1080p.WEB.X264-EXECUTION
2019-11-10 09:18:42 ATKGirlfriends.14.10.23.Violet.Monroe.And.Kiera.Winters.XXX.1080p.MP4-KTR
2019-11-10 09:18:59 Stock.Music.Group.ATL.Drip.WAV-MASCHiNE
2019-11-10 09:19:41 RylskyArt.com_19.11.10.Estelle.Txima.XXX.IMAGESET-FuGLi
2019-11-10 09:21:41 ATKGirlfriends.14.10.23.Violet.Monroe.And.Kiera.Winters.XXX.2160p.MP4-KTR
2019-11-10 09:24:23 ATKGirlfriends.14.10.27.Emma.Evins.XXX.1080p.MP4-KTR
2019-11-10 09:27:57 ATKGirlfriends.14.10.27.Emma.Evins.XXX.2160p.MP4-KTR
2019-11-10 09:30:27 MetArt.19.11.10.Lea.Rose.Sexy.Painting.XXX.1080p.MP4-KTR
2019-11-10 09:31:12 Aldrig.Voksen.S01E01.DANISH.720p.WEB.h264-FFD
2019-11-10 09:31:59 Growing.Up.Hip.Hop.New.York.S01E11.Coming.to.Blows.1080p.HDTV.x264-CRiMSON
2019-11-10 09:32:14 Aldrig.Voksen.S01E02.DANISH.720p.WEB.h264-FFD
2019-11-10 09:32:23 Growing.Up.Hip.Hop.New.York.S01E11.Coming.to.Blows.720p.HDTV.x264-CRiMSON
2019-11-10 09:32:49 Growing.Up.Hip.Hop.New.York.S01E11.Coming.to.Blows.HDTV.x264-CRiMSON
2019-11-10 09:33:02 MetArt.19.11.10.Lea.Rose.Sexy.Painting.XXX.2160p.MP4-KTR
2019-11-10 09:33:18 Loevehjerter.S01E03.DANISH.720p.WEB.h264-FFD
2019-11-10 09:36:35 TheWhiteBoxxx.19.11.10.Lana.Roy.XXX.1080p.MP4-KTR
2019-11-10 09:40:17 WatchingMyDaughterGoBlack.19.11.10.Kali.Roses.And.Lauren.Phillips.XXX.1080p.MP4-KTR
2019-11-10 09:41:17 Zeu-Trash_Talking_(Gold_Edition)-WEB-FR-2019-OND
2019-11-10 09:44:13 BigCockHero.19.11.10.Karma.RX.XXX.1080p.MP4-KTR
2019-11-10 09:46:46 Apollo.11.2019.2160p.UHD.BluRay.X265-SCOTLUHD
2019-11-10 09:49:01 BigCockHero.19.11.10.Karma.RX.XXX.2160p.MP4-KTR
2019-11-10 09:54:59 Crow_The_Crack_Daddy-Sans_Confiance-SINGLE-WEB-2019-KLIN
2019-11-10 09:57:39 Pauls.Nummer.1.Show.S01E02.DUTCH.720p.HDTV.x264-DTOD
2019-11-10 09:58:39 Market_Memories_-_The_Charm__Two_Good-WEB-2019-JUSTiFY_iNT
2019-11-10 09:58:53 Trinix_-_Soweto-SINGLE-WEB-2019-JUSTiFY_iNT
2019-11-10 09:59:15 Eesti.Lipp.Mustale.Merele.S01E05.EE.1080p.HDTV.h264-EMX
2019-11-10 09:59:16 InTheCrack.E1567.Kiara.Cole.XXX.1080p.MP4-KTR
2019-11-10 10:03:45 Alvarez_Imc-Mal_De_Amor-SINGLE-WEB-2019-KLIN
2019-11-10 10:03:58 InTheCrack.E1567.Kiara.Cole.XXX.2160p.MP4-KTR
2019-11-10 10:04:41 Nubiles.net_19.11.10.Ella.Cruz.Patio.Playtime.XXX.IMAGESET-FuGLi
2019-11-10 10:06:22 Vollgas.Freitag.S02E11.DANISH.720p.WEB.h264-INDKAST
2019-11-10 10:07:09 Dark.City.1950.1080p.BluRay.x264-GHOULS
2019-11-10 10:07:25 Verdens.Bedste.Liga.S01E12.DANISH.720p.WEB.h264-INDKAST
2019-11-10 10:07:42 Minion.Scouts.2019.BDRip.x264-FLAME
2019-11-10 10:07:46 Take.Me.Out.S11E03.HDTV.x264-LiNKLE
2019-11-10 10:08:12 Minion.Scouts.2019.720p.BluRay.x264-FLAME
2019-11-10 10:08:35 Minion.Scouts.2019.1080p.BluRay.x264-FLAME
2019-11-10 10:08:48 Apollo.11.2019.COMPLETE.UHD.BLURAY-COASTER
2019-11-10 10:09:05 GingerPatch.com_19.11.10.Amber.Addis.And.Eric.John.Pristine.Ginger.Pussy.XXX.iMAGESET-YAPG
2019-11-10 10:09:41 Neo_Garcia-Masacre-SINGLE-WEB-2019-KLIN
2019-11-10 10:10:06 Minion.Scouts.2019.PLDUB.BDRip.x264-FLAME
2019-11-10 10:10:45 Minion.Scouts.2019.PLDUB.DUAL.720p.BluRay.x264-FLAME
2019-11-10 10:11:15 Minion.Scouts.2019.PLDUB.DUAL.1080p.BluRay.x264-FLAME
2019-11-10 10:11:23 ATKGirlfriends.19.11.10.Audrey.Hempburne.XXX.1080p.MP4-KTR
2019-11-10 10:11:33 Dark.City.1950.720p.BluRay.x264-GHOULS
2019-11-10 10:13:07 TeamSkeetSelects.com_19.11.10.Autumn.Falls.Abby.Adams.And.Aaliyah.Hadid.Best.Of.Teen.Bush.1.XXX.iMAGESET-YAPG
2019-11-10 10:13:22 Godfather.of.Harlem.S01E07.720p.WEB.H264-METCON
2019-11-10 10:13:25 ATKGirlfriends.19.11.10.Audrey.Hempburne.XXX.2160p.MP4-KTR
2019-11-10 10:14:07 Danny_Howard_-_Nothing_Else_Matters_205-SAT-11-09-2019-TALiON
2019-11-10 10:14:22 Godfather.of.Harlem.S01E07.1080p.WEB.H264-METCON
2019-11-10 10:14:39 Stonebridge_-_BPM_Mix_205-SAT-11-10-2019-TALiON
2019-11-10 10:15:29 Hadi28-Dresscode_Nike-SINGLE-WEB-2019-KLIN
2019-11-10 10:15:53 Das.Supertalent.S13E09.GERMAN.1080p.WEBRiP.x264-LAW
2019-11-10 10:16:57 Oscar_Ramos_The_17-Perdido_En_Ella-SINGLE-WEB-2019-KLIN
2019-11-10 10:17:30 Das.Supertalent.S13E09.GERMAN.720p.WEBRiP.x264-LAW
2019-11-10 10:19:44 Mowglli-Joker-SINGLE-WEB-2019-KLIN
2019-11-10 10:21:56 PornstarPlatinum.19.11.10.Becky.Bandini.Torn.Pantyhose.Gets.Cock.XXX.2160p.MP4-KTR
2019-11-10 10:22:42 Ansome-Hounds_Of_The_Harbour-(TPTLP010)-WEB-2019-AGITB
2019-11-10 10:22:44 Dark.City.1950.iNTERNAL.BDRip.x264-GHOULS
2019-11-10 10:23:17 Rolling_Stones-Let_It_Bleed_50th_Anniversary_Edition-Remastered-CD-FLAC-2019-FORSAKEN
2019-11-10 10:23:22 Rolling_Stones-Let_It_Bleed_(50th_Anniversary_Edition)-(Remastered)-2019-MTD
2019-11-10 10:24:28 Slayer-The_Repentless_Killogy_Live_At_The_Forum_In_Inglewood_CA-2CD-FLAC-2019-FORSAKEN
2019-11-10 10:24:34 Slayer-The_Repentless_Killogy-Live_At_The_Forum_In_Inglewood_CA-2CD-2019-MTD
2019-11-10 10:25:43 Savy_Sage-Packed-SINGLE-WEB-2019-KLIN
2019-11-10 10:26:09 DayWithAPornstar.com_19.10.02.Luna.Star.XXX.iMAGESET-YAPG
2019-11-10 10:26:29 Tanna_Jai-Streetmoney-SINGLE-WEB-2019-KLIN
2019-11-10 10:26:35 DayWithAPornstar.com_19.11.07.Karma.RX.XXX.iMAGESET-YAPG
2019-11-10 10:27:00 DirtyMasseur.com_19.11.08.Gabbie.Carter.Looking.To.Let.Loose.XXX.iMAGESET-YAPG
2019-11-10 10:27:24 DoctorAdventures.com_19.11.06.Katana.Kombat.The.Cure.For.Insomnia.XXX.iMAGESET-YAPG
2019-11-10 10:28:27 HookupHotshot.E217.Amber.Alena.XXX.1080p.MP4-KTR
2019-11-10 10:29:22 HotAndMean.com_19.11.08.Angela.White.And.Molly.Stewart.Swing.Fling.Part.1.XXX.iMAGESET-YAPG
2019-11-10 10:31:27 HookupHotshot.E217.Amber.Alena.XXX.2160p.MP4-KTR
2019-11-10 10:33:15 Take.Me.Out.S11E03.720p.HDTV.x264-LiNKLE
2019-11-10 10:34:06 The.Qaedon.Wars.The.Story.Begins-SiMPLEX
2019-11-10 10:35:29 Superkids.S03E02.DUTCH.720p.HDTV.x264-DTOD
2019-11-10 10:35:52 Meister.Eder.und.sein.Pumuckl.S01E02.German.REMASTERED.BDRip.x264-TV4A
2019-11-10 10:36:55 Meister.Eder.und.sein.Pumuckl.S01E03.German.REMASTERED.BDRip.x264-TV4A
2019-11-10 10:37:03 WaitressPOV.E22.Kosame.Dash.XXX.1080p.MP4-KTR
2019-11-10 10:37:41 Wavey_Vayn-Halle_Berry-SINGLE-WEB-2019-KLIN
2019-11-10 10:37:43 Batwoman.S01E01.German.Custom.Subbed.720p.HDTV.x264.iNTERNAL-VhV
2019-11-10 10:37:55 Meister.Eder.und.sein.Pumuckl.S01E04.German.REMASTERED.BDRip.x264-TV4A
2019-11-10 10:38:17 Wij.Emigreren.S01E02.DUTCH.720p.HDTV.x264-DTOD
2019-11-10 10:38:22 Batwoman.S01E02.German.Custom.Subbed.720p.HDTV.x264.iNTERNAL-VhV
2019-11-10 10:38:57 Meister.Eder.und.sein.Pumuckl.S01E05.German.REMASTERED.BDRip.x264-TV4A
2019-11-10 10:39:06 Captain.Tsubasa.2018.E22.FRENCH.1080p.HDTV.H264-D4KiD
2019-11-10 10:39:34 Batwoman.S01E03.German.Custom.Subbed.720p.HDTV.x264.iNTERNAL-VhV
2019-11-10 10:39:41 Captain.Tsubasa.2018.E22.FRENCH.HDTV.x264-D4KiD
2019-11-10 10:39:59 Meister.Eder.und.sein.Pumuckl.S01E06.German.REMASTERED.BDRip.x264-TV4A
2019-11-10 10:40:58 Batwoman.S01E04.German.Custom.Subbed.720p.HDTV.x264.iNTERNAL-VhV
2019-11-10 10:41:01 Meister.Eder.und.sein.Pumuckl.S01E07.German.REMASTERED.BDRip.x264-TV4A
2019-11-10 10:41:34 NBA.2019.11.09.Boston.Celtics.vs.San.Antonio.Spurs.720p.HDTV.x264-WiNNiNG
2019-11-10 10:42:03 Meister.Eder.und.sein.Pumuckl.S01E08.German.REMASTERED.BDRip.x264-TV4A
2019-11-10 10:42:15 All.Girls.Garage.S08E16.2003.BMW.325i.1080p.WEB.x264-57CHAN
2019-11-10 10:43:05 Meister.Eder.und.sein.Pumuckl.S01E09.German.REMASTERED.BDRip.x264-TV4A
2019-11-10 10:43:22 All.Girls.Garage.S08E16.2003.BMW.325i.720p.WEB.x264-57CHAN
2019-11-10 10:43:32 WaitressPOV.E22.Kosame.Dash.XXX.2160p.MP4-KTR
2019-11-10 10:44:06 Meister.Eder.und.sein.Pumuckl.S01E10.German.REMASTERED.BDRip.x264-TV4A
2019-11-10 10:44:28 All.Girls.Garage.S08E16.2003.BMW.325i.WEB.x264-57CHAN
2019-11-10 10:45:08 Meister.Eder.und.sein.Pumuckl.S01E11.German.REMASTERED.BDRip.x264-TV4A
2019-11-10 10:45:35 Car.Fix.S08E16.Love.It.Or.List.It.1080p.WEB.x264-57CHAN
2019-11-10 10:46:10 Meister.Eder.und.sein.Pumuckl.S01E12.German.REMASTERED.BDRip.x264-TV4A
2019-11-10 10:46:42 Car.Fix.S08E16.Love.It.Or.List.It.720p.WEB.x264-57CHAN
2019-11-10 10:46:54 VA-20_Years_Of_Neophyte_Records_(Extended_Mixes)-(NEO220)-WEB-2019-AOV_INT
2019-11-10 10:47:08 BrazzersExxtra.com_19.11.05.Anissa.Kate.Anissa.From.All.Angles.XXX.iMAGESET-YAPG
2019-11-10 10:47:13 Meister.Eder.und.sein.Pumuckl.S01E13.German.REMASTERED.BDRip.x264-TV4A
2019-11-10 10:47:30 BrazzersExxtra.com_19.11.05.Madison.Ivy.The.Assistants.Affair.XXX.iMAGESET-YAPG
2019-11-10 10:47:48 Car.Fix.S08E16.Love.It.Or.List.It.WEB.x264-57CHAN
2019-11-10 10:47:51 BrazzersExxtra.com_19.11.06.Polly.Pons.Banged.Behind.Bars.XXX.iMAGESET-YAPG
2019-11-10 10:48:13 Meister.Eder.und.sein.Pumuckl.S01E14.German.REMASTERED.BDRip.x264-TV4A
2019-11-10 10:48:39 BrazzersExxtra.com_19.11.07.Ophelia.Rain.Squatters.Rights.XXX.iMAGESET-YAPG
2019-11-10 10:49:05 BrazzersExxtra.com_19.11.09.Chanel.Preston.Cucking.The.Coach.XXX.iMAGESET-YAPG
2019-11-10 10:49:15 Meister.Eder.und.sein.Pumuckl.S01E15.German.REMASTERED.BDRip.x264-TV4A
2019-11-10 10:49:39 BrazzersExxtra.com_19.11.09.Kira.Noir.And.Demi.Sutra.Strap-On.Strap.Off.XXX.iMAGESET-YAPG
2019-11-10 10:50:09 BrazzersExxtra.com_19.11.10.Kali.Roses.The.ZZ.Tanning.Salon.XXX.iMAGESET-YAPG
2019-11-10 10:50:16 Meister.Eder.und.sein.Pumuckl.S01E16.German.REMASTERED.BDRip.x264-TV4A
2019-11-10 10:50:35 BrazzersExxtra.com_19.11.10.Lela.Star.Designer.Dick.XXX.iMAGESET-YAPG
2019-11-10 10:51:18 Meister.Eder.und.sein.Pumuckl.S01E17.German.REMASTERED.BDRip.x264-TV4A
2019-11-10 10:52:20 Meister.Eder.und.sein.Pumuckl.S01E18.German.REMASTERED.BDRip.x264-TV4A
2019-11-10 10:52:31 Esport.Intel.Extreme.Masters.Beijing.Haidian.2019.2019.11.09.Astralis.vs.FaZe.Clan.DANISH.720p.WEB.h264-INDKAST
2019-11-10 10:52:46 BAMVisions.19.11.10.Paige.Owens.Lets.Make.A.Little.Magic.XXX.1080p.MP4-KTR
2019-11-10 10:53:21 Meister.Eder.und.sein.Pumuckl.S01E19.German.REMASTERED.BDRip.x264-TV4A
2019-11-10 10:53:50 Spiderman.Far.from.Home.2019.German.DL.1080p.BluRay.x264-ENCOUNTERS
2019-11-10 10:54:23 Meister.Eder.und.sein.Pumuckl.S01E20.German.REMASTERED.BDRip.x264-TV4A
2019-11-10 10:55:39 Meister.Eder.und.sein.Pumuckl.S01E21.German.REMASTERED.BDRip.x264-TV4A
2019-11-10 10:56:05 Captain.Tsubasa.2018.E23.FRENCH.1080p.HDTV.H264-D4KiD
2019-11-10 10:56:42 Meister.Eder.und.sein.Pumuckl.S01E22.German.REMASTERED.BDRip.x264-TV4A
2019-11-10 10:56:47 Captain.Tsubasa.2018.E23.FRENCH.HDTV.x264-D4KiD
2019-11-10 10:56:49 BAMVisions.19.11.10.Paige.Owens.Lets.Make.A.Little.Magic.XXX.2160p.MP4-KTR
2019-11-10 10:56:58 Pablo_Nouvelle_ft._Lovelle-Prelude-(AREE089)-SINGLE-WEB-2019-AOV
2019-11-10 10:57:17 Spiderman.Far.from.Home.2019.German.720p.BluRay.x264-ENCOUNTERS
2019-11-10 10:57:42 Meister.Eder.und.sein.Pumuckl.S01E23.German.REMASTERED.BDRip.x264-TV4A
2019-11-10 10:58:43 Home.Sweet.Homicide.S01E02.1080p.WEB.x264-57CHAN
2019-11-10 10:58:44 Meister.Eder.und.sein.Pumuckl.S01E24.German.REMASTERED.BDRip.x264-TV4A
2019-11-10 10:59:15 Spiderman.Far.from.Home.German.2019.AC3.BDRiP.x264-XF
2019-11-10 10:59:47 Esport.Intel.Extreme.Masters.Beijing.Haidian.2019.2019.11.09.Team.Vitality.vs.100.Thieves.DANISH.720p.WEB.h264-INDKAST
2019-11-10 10:59:47 Meister.Eder.und.sein.Pumuckl.S01E25.German.REMASTERED.BDRip.x264-TV4A
2019-11-10 11:00:22 Consumer.101.S02E06.720p.WEB.x264-XLF
2019-11-10 11:00:40 Consumer.101.S02E06.1080p.WEB.x264-XLF
2019-11-10 11:00:48 Meister.Eder.und.sein.Pumuckl.S01E26.German.REMASTERED.BDRip.x264-TV4A
2019-11-10 11:00:50 90.Day.Fiance.The.Other.Way.S01E06.1080p.WEB.x264-57CHAN
2019-11-10 11:01:05 Consumer.101.S02E06.WEB.x264-XLF
2019-11-10 11:02:20 A.New.Leaf.S01E06.720p.WEB.x264-XLF
2019-11-10 11:02:45 A.New.Leaf.S01E06.1080p.WEB.x264-XLF
2019-11-10 11:03:05 A.New.Leaf.S01E06.WEB.x264-XLF
2019-11-10 11:03:48 Room.104.S03E09.MULTi.1080p.HDTV.H264-HYBRiS
2019-11-10 11:04:07 EPL.2019.11.09.Leicester.City.vs.Arsenal.720p.WEB.h264-VERUM
2019-11-10 11:04:35 Angele-Balance_Ton_Quoi_(2019_NRJ_Music_Awards)-FR-720p-x264-2019-PmV
2019-11-10 11:07:22 Cosmid.19.11.10.Tori.Ann.Red.Dress.XXX.1080p.MP4-KTR
2019-11-10 11:08:15 Star.Wars.Resistance.S02E01.FRENCH.720p.HDTV.x264-D4KiD
2019-11-10 11:08:36 Star.Wars.Resistance.S02E01.FRENCH.HDTV.x264-D4KiD
2019-11-10 11:08:55 WankItNow.19.11.09.Selene.Soapy.Surprise.XXX.1080p.MP4-KTR
2019-11-10 11:08:58 Jacin-Guilty_Man-WEB-2013-JAH
2019-11-10 11:09:09 Jacin_Jho_Dwild-The_Witch_Doctor-WEB-2014-JAH
2019-11-10 11:09:11 EPL.2019.11.09.Tottenham.Hotspur.vs.Sheffield.United.720p.WEB.h264-VERUM
2019-11-10 11:09:19 Jacin_Ras_Teo-Negus_Nagast-WEB-2014-JAH
2019-11-10 11:09:31 Lionpaw_Jacin-Dub_Addicted-WEB-2014-JAH
2019-11-10 11:09:42 Prince_Jamo-Chant_a_Psalm_(feat._Don_Fe)-SINGLE-WEB-2013-JAH
2019-11-10 11:09:54 Prince_Jamo-The_Night_of_Our_Lives-SINGLE-WEB-2019-JAH
2019-11-10 11:10:05 VA-1000_RPM_Riddim-WEB-2019-JAH
2019-11-10 11:10:16 VA-60_Hertz_Riddim-WEB-2019-JAH
2019-11-10 11:10:27 VA-After_Life_Riddim-WEB-2019-JAH
2019-11-10 11:10:27 WankItNow.19.11.09.Selene.Soapy.Surprise.XXX.2160p.MP4-KTR
2019-11-10 11:10:39 VA-Calm_Side_Riddim-WEB-2019-JAH
2019-11-10 11:10:50 VA-Caution_City_Riddim-WEB-2019-JAH
2019-11-10 11:11:02 VA-Caution_Riddim-WEB-2019-JAH
2019-11-10 11:11:07 DLMT_x_Vinne_ft._Bayli-Best_Ive_Ever_Had_(Extended_Mix)-(ARMAS1661)-SINGLE-WEB-2019-AOV_INT
2019-11-10 11:11:13 VA-Caution_Tape_Riddim_Pt._1_Jab_Jab-WEB-2019-JAH
2019-11-10 11:11:25 VA-Centaure_Riddim-WEB-FR-2019-JAH
2019-11-10 11:11:48 VA-Fender_Bender_Riddim-WEB-2019-JAH
2019-11-10 11:11:59 VA-Misbehavior_Riddim-WEB-FR-2019-JAH
2019-11-10 11:12:10 VA-Undefeated_Riddim-WEB-2019-JAH
2019-11-10 11:12:21 VA-Violin_Crush_Riddim-WEB-2019-JAH
2019-11-10 11:12:29 WankItNow.19.11.10.Jennifer.Keellings.Phone.Cuckolding.XXX.1080p.MP4-KTR
2019-11-10 11:13:42 Clara_Luciani-La_Grenade_(2019_NRJ_Music_Awards)-FR-720p-x264-2019-PmV
2019-11-10 11:14:19 Lewis_Capaldi_ft_Clara_Luciani-Someone_You_Loved_(2019_NRJ_Music_Awards)-720p-x264-2019-PmV
2019-11-10 11:14:46 Take.Me.Out.S11E03.1080p.HDTV.x264-LiNKLE
2019-11-10 11:14:58 WankItNow.19.11.10.Jennifer.Keellings.Phone.Cuckolding.XXX.2160p.MP4-KTR
2019-11-10 11:16:19 WankItNow.19.11.10.Kylie.Nymphette.Exam.Encouragement.Part.1.XXX.1080p.MP4-KTR
2019-11-10 11:17:50 WankItNow.19.11.10.Kylie.Nymphette.Exam.Encouragement.Part.1.XXX.2160p.MP4-KTR
2019-11-10 11:19:05 Maelle-Toutes_Les_Machines_Ont_Un_Coeur_(2019_NRJ_Music_Awards)-FR-720p-x264-2019-PmV
2019-11-10 11:21:26 Sam_Smith-Dancing_With_A_Stranger_(2019_NRJ_Music_Awards)-720p-x264-2019-PmV
2019-11-10 11:23:28 JacquieEtMichelTV.19.11.10.Laurence.37.Years.Old.FRENCH.XXX.1080p.MP4-TRASHBIN
2019-11-10 11:24:45 GirlsOutWest.19.11.10.Violet.Russo.Bad.Grrl.XXX.1080p.MP4-TRASHBIN
2019-11-10 11:26:26 GirlsOutWest.19.11.10.Violet.Russo.Bad.Grrl.XXX.2160p.MP4-TRASHBIN
2019-11-10 11:27:14 Soprano-Le_Coach_(2019_NRJ_Music_Awards)-FR-720p-x264-2019-PmV
2019-11-10 11:28:25 Hustler.19.11.10.Anna.De.Ville.XXX.1080p.MP4-TRASHBIN
2019-11-10 11:33:05 Royal.British.Legion.Festival.Of.Remembrance.2019.HDTV.x264-LiNKLE
2019-11-10 11:37:07 Rise.Of.The.Teenage.Mutant.Ninja.Turtles.S01E20.FRENCH.720p.HDTV.x264-D4KiD
2019-11-10 11:37:09 VA_-_Lords_Of_Hardcore_XXI-Raise_Your_Fist_and_Bang_Your_Head-2CD-2019-SRG
2019-11-10 11:37:28 Rise.Of.The.Teenage.Mutant.Ninja.Turtles.S01E20.FRENCH.HDTV.x264-D4KiD
2019-11-10 11:39:33 FemJoy.com_19.11.10.Angela.A.House.Warming.XXX.iMAGESET-YAPG
2019-11-10 11:40:55 Berlin.-.Schicksalsjahre.einer.Stadt.S03E07.Das.Jahr.1986.GERMAN.DOKU.720p.HDTV.x264-BTVG
2019-11-10 11:41:15 Berlin.-.Schicksalsjahre.einer.Stadt.S03E07.Das.Jahr.1986.GERMAN.DOKU.HDTVRiP.x264-BTVG
2019-11-10 11:42:02 The_Nova_Saints-The_Draft_EP-Limited_Edition-CDEP-2007-D2H
2019-11-10 11:44:18 Tushy.com_19.08.19.Kenna.James.And.Dana.Dearmond.XXX.iMAGESET-YAPG
2019-11-10 11:44:20 The.Block.AU.S15E57.HDTV.x264-FQM
2019-11-10 11:45:05 Tushy.com_19.08.24.Jade.Nile.XXX.iMAGESET-YAPG
2019-11-10 11:45:15 House.S06E15.SPANiSH.BDRip.x264-FERiCE
2019-11-10 11:45:26 Vier.Freunde.und.die.Geisterhand.S01E01.GERMAN.DL.720P.WEB.H264-WAYNE
2019-11-10 11:45:37 House.S06E15.SPANiSH.MULTi.720p.BluRay.x264-FERiCE
2019-11-10 11:45:46 Tushy.com_19.08.29.Sloan.Harper.XXX.iMAGESET-YAPG
2019-11-10 11:46:07 House.S06E15.SPANiSH.MULTi.1080p.BluRay.x264-FERiCE
2019-11-10 11:46:12 Tushy.com_19.09.03.Ana.Rose.And.Adria.Rae.XXX.iMAGESET-YAPG
2019-11-10 11:46:44 House.S06E16.SPANiSH.BDRip.x264-FERiCE
2019-11-10 11:46:44 Tushy.com_19.09.08.Ashley.Lane.XXX.iMAGESET-YAPG
2019-11-10 11:47:14 Tushy.com_19.09.13.Avi.Love.And.Emily.Willis.XXX.iMAGESET-YAPG
2019-11-10 11:47:20 House.S06E16.SPANiSH.MULTi.720p.BluRay.x264-FERiCE
2019-11-10 11:47:34 Tushy.com_19.09.18.Khloe.Kapri.XXX.iMAGESET-YAPG
2019-11-10 11:47:44 House.S06E16.SPANiSH.MULTi.1080p.BluRay.x264-FERiCE
2019-11-10 11:47:48 Vier.Freunde.und.die.Geisterhand.S01E02.GERMAN.DL.720P.WEB.H264-WAYNE
2019-11-10 11:48:44 Tushy.com_19.09.23.Tori.Black.XXX.iMAGESET-YAPG
2019-11-10 11:48:45 Vier.Freunde.und.die.Geisterhand.S01E03.GERMAN.DL.720P.WEB.H264-WAYNE
2019-11-10 11:49:18 Tushy.com_19.09.28.Kenzie.Reeves.And.Vina.Sky.XXX.iMAGESET-YAPG
2019-11-10 11:49:50 DuckTales.2017.S02E06.FRENCH.720p.HDTV.x264-D4KiD
2019-11-10 11:50:08 Tushy.com_19.10.03.Gia.Vendetti.XXX.iMAGESET-YAPG
2019-11-10 11:50:22 DuckTales.2017.S02E06.FRENCH.HDTV.x264-D4KiD
2019-11-10 11:50:32 Tushy.com_19.10.08.Zoe.Bloom.XXX.iMAGESET-YAPG
2019-11-10 11:51:17 Tushy.com_19.10.13.Serena.Avary.And.Karla.Kush.XXX.iMAGESET-YAPG
2019-11-10 11:51:45 Tushy.com_19.10.18.Paige.Owens.And.Naomi.Swann.XXX.iMAGESET-YAPG
2019-11-10 11:52:31 Tushy.com_19.10.23.Emma.Hix.XXX.iMAGESET-YAPG
2019-11-10 11:53:17 Tushy.com_19.10.28.Avery.Cristy.XXX.iMAGESET-YAPG
2019-11-10 11:53:34 Dark.City.1950.COMPLETE.BLURAY-VEXHD
2019-11-10 11:54:04 Tushy.com_19.11.02.Lika.Star.XXX.iMAGESET-YAPG
2019-11-10 11:54:43 The.Devil.Rides.Out.1968.REMASTERED.720p.BluRay.X264-AMIABLE
2019-11-10 11:54:46 Tushy.com_19.11.07.Diana.Grace.XXX.iMAGESET-YAPG
2019-11-10 11:55:43 TushyRaw.com_19.08.17.Ariana.Marie.XXX.iMAGESET-YAPG
2019-11-10 11:56:24 TushyRaw.com_19.08.22.Alecia.Fox.XXX.iMAGESET-YAPG
2019-11-10 11:56:46 EPL.2019.11.09.Newcastle.United.vs.Bournemouth.720p.WEB.h264-VERUM
2019-11-10 11:56:47 The.Devil.Rides.Out.1968.REMASTERED.1080p.BluRay.X264-AMIABLE
2019-11-10 11:56:59 TushyRaw.com_19.08.27.Layla.Love.XXX.iMAGESET-YAPG
2019-11-10 11:57:25 The.Devil.Rides.Out.1968.REMASTERED.COMPLETE.BLURAY-WESTCOAST
2019-11-10 11:57:26 TushyRaw.com_19.09.01.Sofi.Smile.XXX.iMAGESET-YAPG
2019-11-10 11:57:49 TushyRaw.com_19.09.06.Haley.Reed.XXX.iMAGESET-YAPG
2019-11-10 11:58:13 TushyRaw.com_19.09.11.Charley.Chaplin.XXX.iMAGESET-YAPG
2019-11-10 11:58:39 TushyRaw.com_19.09.16.Kendra.Spade.XXX.iMAGESET-YAPG
2019-11-10 11:59:07 TushyRaw.com_19.09.21.Karla.Kush.And.Hime.Marie.XXX.iMAGESET-YAPG
2019-11-10 11:59:48 TushyRaw.com_19.09.26.Lovenia.Lux.XXX.iMAGESET-YAPG
2019-11-10 12:00:29 Roger_Shah_and_George_Jema-Patong_Beach-(FSOE413A)-WEB-2019-AFO
2019-11-10 12:00:32 TushyRaw.com_19.10.01.Alexis.Monroe.XXX.iMAGESET-YAPG
2019-11-10 12:00:35 Peter_Steele-Red_Dragon-(PURETRANCE167)-WEB-2019-AFO
2019-11-10 12:00:41 Adam_Nickey-Perfect_Destiny_(Daxson_Club_Mix)-(PTN032)-WEB-2019-AFO
2019-11-10 12:00:51 Natasha_Kitty_Katt_and_Yam_Who__and_Jacqui_George-Into_Your_Life-(MIDRIOTD212)-WEB-2019-DWM
2019-11-10 12:00:52 Miroslav_Vrlik-Damaged_Base-(FO140R063)-WEB-2019-AFO
2019-11-10 12:00:53 Iain_M_and_Deirdre_McLaughlin-Eternally-(ADR050)-WEB-2019-AFO
2019-11-10 12:00:55 Vier.Freunde.und.die.Geisterhand.S01E04.GERMAN.DL.720P.WEB.H264-WAYNE
2019-11-10 12:00:58 Solis_and_Sean_Truby-Until_The_Day-(INFRA203)-WEB-2019-AFO
2019-11-10 12:01:04 Jase_Thirlwall-Boris-(DMGD109)-SINGLE-WEB-2019-AFO
2019-11-10 12:01:12 Stoneface_and_Terminal-Floorlicker-(KR112)-SINGLE-WEB-2019-AFO
2019-11-10 12:01:18 Miraculum-All_the_Things_Ive_Done-(BALKAN0587)-WEB-2019-AFO
2019-11-10 12:01:19 TushyRaw.com_19.10.06.Lexi.Dona.XXX.iMAGESET-YAPG
2019-11-10 12:01:29 Vier.Freunde.und.die.Geisterhand.S01E05.GERMAN.DL.720P.WEB.H264-WAYNE
2019-11-10 12:01:33 X2Sound-Crystal_Lake-(RDXM075)-WEB-2019-AFO
2019-11-10 12:01:36 LESOT-Whispers-(ABRD204)-WEB-2019-AFO
2019-11-10 12:01:38 Michel_Westerhoff-Tuscany-(AAR186)-SINGLE-WEB-2019-AFO
2019-11-10 12:01:43 Liam_Melly_and_Ciaran_Dolan-Co-Accused-(NAF007)-WEB-2019-AFO
2019-11-10 12:01:43 The_Enturance-Virgo-(EA051)-SINGLE-WEB-2019-AFO
2019-11-10 12:01:47 Obie_Fernandez-Work_It_Up-(JOOF310)-WEB-2019-AFO
2019-11-10 12:01:49 Aphoxx-Return_To_Eternity-(RDXF022)-WEB-2019-AFO
2019-11-10 12:01:53 TushyRaw.com_19.10.11.Ashley.Lane.XXX.iMAGESET-YAPG
2019-11-10 12:01:57 Dark_Matter_ft_Josfine_Sandfeld-Its_You_(Para_X_Remix)-(MASANA037)-WEB-2019-AFO
2019-11-10 12:02:08 Rauschhaus-Moonbeam-(ALLEY101)-WEB-2019-AFO
2019-11-10 12:02:17 VA-Blue_Soho_Autumn_Sampler_(One)-(BLS348)-WEB-2019-AFO
2019-11-10 12:02:29 Misja_Helsloot-WhatTheHelsloot_(Album_Sampler_2)-(GRTSQ136)-WEB-2019-AFO
2019-11-10 12:02:29 TushyRaw.com_19.10.16.Khloe.Kapri.XXX.iMAGESET-YAPG
2019-11-10 12:02:34 Emanuel_(D)_and_Lex_Green-Crazy_Town-(BP8872019)-WEB-2019-AFO
2019-11-10 12:02:42 NikoChristo_and_Synas-Efflorescence-(BC2281)-WEB-2019-AFO
2019-11-10 12:02:51 Andy_Elliass_and_Corrado_Baggieri_and_Cari-Turn_The_Page-(UPLFT032)-WEB-2019-AFO
2019-11-10 12:02:53 TushyRaw.com_19.10.21.Alexis.Crystal.XXX.iMAGESET-YAPG
2019-11-10 12:02:55 Klaudia_Gawlas-Opus_EP-(SUARA375)-WEB-2019-AFO
2019-11-10 12:02:59 Vier.Freunde.und.die.Geisterhand.S01E06.GERMAN.DL.720P.WEB.H264-WAYNE
2019-11-10 12:03:15 Freshair-Moments-(SFR377)-WEB-2019-AFO
2019-11-10 12:03:17 Ramin_Arab-Revolution-(TAR138085)-WEB-2019-AFO
2019-11-10 12:03:21 Susana_and_Hazem_Beltagui-Silent_For_So_Long_(Ahmed_Helmy_Remix)-(RNMR169)-WEB-2019-AFO
2019-11-10 12:03:21 TushyRaw.com_19.10.26.Arietta.Adams.XXX.iMAGESET-YAPG
2019-11-10 12:03:24 Peter_Santos-Tranceform-(MR035)-SINGLE-WEB-2019-AFO
2019-11-10 12:03:33 Bluskay_and_Jo_Cartwright-A_Silent_Hold-(AMSTR301)-WEB-2019-AFO
2019-11-10 12:03:35 Alter_Future-Echo-(VAS098)-WEB-2019-AFO
2019-11-10 12:03:35 Vier.Freunde.und.die.Geisterhand.S01E07.GERMAN.DL.720P.WEB.H264-WAYNE
2019-11-10 12:03:49 1st_in_Line-Another_Chance-(EL013)-WEB-2019-AFO
2019-11-10 12:03:55 TushyRaw.com_19.10.31.Ashley.Red.XXX.iMAGESET-YAPG
2019-11-10 12:03:56 Coffee_Face-India-(PURR225)-WEB-2019-AFO
2019-11-10 12:04:00 SounEmot-Si_Tan_Solo_Supieras-(BTSR285)-WEB-2019-AFO
2019-11-10 12:04:12 Ehren_Stowers-Morpheus-(DISCOVER252)-SINGLE-WEB-2019-AFO
2019-11-10 12:04:18 Double_Motion-Waiting_For_The_Light-(TM132)-SINGLE-WEB-2019-AFO
2019-11-10 12:04:24 TushyRaw.com_19.11.05.Milena.Devi.XXX.iMAGESET-YAPG
2019-11-10 12:04:26 Seymark-Do_You_Feel_the_Same-(MHR341)-WEB-2019-AFO
2019-11-10 12:04:28 Emro-Camellia__Starshine-(SYC064)-WEB-2019-AFO
2019-11-10 12:04:30 Redchild-Build_A_Better_World-(MSBKR167)-SINGLE-WEB-2019-AFO
2019-11-10 12:04:34 Jorgio_Kioris-Moonchild-(STR049)-WEB-2019-AFO
2019-11-10 12:04:34 Ross_Rayer_and_Hidden_Tigress-When_I_Lost_You-(BM046)-WEB-2019-AFO
2019-11-10 12:04:46 Aleksey_Litunov-Serenity-(TF112)-SINGLE-WEB-2019-AFO
2019-11-10 12:04:50 Vixen.com_19.08.12.Ana.Rose.XXX.iMAGESET-YAPG
2019-11-10 12:04:51 Supacooks-Circum-(KTN069)-WEB-2019-AFO
2019-11-10 12:05:01 Salbah-Mythos-(MOG020)-WEB-2019-AFO
2019-11-10 12:05:14 Vixen.com_19.08.17.Cecilia.Lion.And.Khloe.Kapri.XXX.iMAGESET-YAPG
2019-11-10 12:05:24 EPL.2019.11.09.Southampton.vs.Everton.720p.WEB.h264-VERUM
2019-11-10 12:05:25 Lanvary-Sakura-(WELCOME044)-WEB-2019-AFO
2019-11-10 12:05:32 Yashar-Tupa-(CLR324)-WEB-2019-AFO
2019-11-10 12:05:41 Vixen.com_19.08.22.Lena.Reif.And.Jia.Lissa.XXX.iMAGESET-YAPG
2019-11-10 12:05:48 Leon_Capeta-No_Train_Without_Raills-(3XA395)-WEB-2019-AFO
2019-11-10 12:06:02 Meither-Gnome__Desert_Rain-(CH202)-WEB-2019-AFO
2019-11-10 12:06:08 John_Grand-Aries-(TAROAS017)-SINGLE-WEB-2019-AFO
2019-11-10 12:06:12 Marchesan-Resolution-(BQ413)-WEB-2019-AFO
2019-11-10 12:06:17 Volkan_Erman-Sense_of_Reason_Part_2-(DYN062)-WEB-2019-AFO
2019-11-10 12:06:18 Stan_Seba-Magic_Bullet-(ZMR076)-WEB-2019-AFO
2019-11-10 12:06:22 Airwave-Touareg_(Remastered_Deluxe_Edition)-(BCD2019465)-WEB-2019-AFO
2019-11-10 12:06:40 Monograph-Cup_of_Soul-(ECR077)-WEB-2019-AFO
2019-11-10 12:06:45 J.P._Velardi-Friends_Journey-(MYC826)-WEB-2019-AFO
2019-11-10 12:06:51 Rockka-Jesuz-(SUPER205)-WEB-2019-AFO
2019-11-10 12:06:54 Mino_Safy-Atlantis-(2RR048)-SINGLE-WEB-2019-AFO
2019-11-10 12:06:56 Shadowcore_-_Anger_Management-(MCORE060)-WEB-2019-SRG
2019-11-10 12:07:23 BIONIQUE-Connection-(ECT132)-SINGLE-WEB-2019-AFO
2019-11-10 12:07:25 Lucas_Rossi-Nebular_Pt._2-(ODST0017)-WEB-2019-AFO
2019-11-10 12:07:28 SEO_(SL)-Intrude-(EST150)-WEB-2019-AFO
2019-11-10 12:07:30 Montez-Electrified-(TIME49)-SINGLE-WEB-2019-AFO
2019-11-10 12:07:37 Gabriel_Batz-Chulac-(PD230)-WEB-2019-AFO
2019-11-10 12:07:42 Brian_Sid-Check_One__6_Little_Eggs-(ESR401)-WEB-2019-AFO
2019-11-10 12:07:42 Kenan_Savrun-Cosmos-(3AV171)-WEB-2019-AFO
2019-11-10 12:07:46 Y-VEK-Madrid-(ALYF159)-SINGLE-WEB-2019-AFO
2019-11-10 12:07:48 Vixen.com_19.08.27.Naomi.Swann.And.Talia.Mint.XXX.iMAGESET-YAPG
2019-11-10 12:07:52 Renaldas-Imagine-(INC174)-WEB-2019-AFO
2019-11-10 12:07:53 Huem-Sky_Lights_(Extended_Mix)-(VAU079)-SINGLE-WEB-2019-AFO
2019-11-10 12:08:07 Deciduous_and_Cassidy_and_Kamilo_Sanclemente-Daze__Ancestry__Wakefulness-(PARQUET207)-WEB-2019-AFO
2019-11-10 12:08:18 William_Byrne_(IRL)-I_Suppose_So-(FER0039)-WEB-2019-AFO
2019-11-10 12:08:22 Mindsoundscapes_with_Abide-Ascension-(SR390)-SINGLE-WEB-2019-AFO
2019-11-10 12:08:27 Darren_Porter_and_Kolliders-Atlantis-(TGR021)-WEB-2019-AFO
2019-11-10 12:08:29 Vixen.com_19.09.01.Gina.Valentina.And.Eliza.Ibarra.XXX.iMAGESET-YAPG
2019-11-10 12:08:33 Nehuen_Schedan-Gramercy_Park__Coney_Island-(CD032)-WEB-2019-AFO
2019-11-10 12:08:47 Ross_Rayer-Skyline-(EDGE098)-WEB-2019-AFO
2019-11-10 12:09:00 Denny_Loco_and_Vlad_Jet-Security-(MIR087)-WEB-2019-AFO
2019-11-10 12:09:12 Vixen.com_19.09.06.Kyler.Quinn.XXX.iMAGESET-YAPG
2019-11-10 12:09:31 VA-Seasons__Autumn_2019-(MNL175)-WEB-2019-AFO
2019-11-10 12:09:38 XFN.363.WEB.H264-LEViTATE
2019-11-10 12:09:43 K_Loveski-Baurro__Fara-(MGN045)-WEB-2019-AFO
2019-11-10 12:09:56 VA-Fall_Depth_Vol_1-(LIN212)-WEB-2019-AFO
2019-11-10 12:10:03 VA-Vocal_Autumn_2019-(IBL189)-WEB-2019-AFO
2019-11-10 12:10:06 VieL-Resilience-(WFM021)-WEB-2019-AFO
2019-11-10 12:10:07 Vixen.com_19.09.11.Riley.Reid.And.Teanna.Trump.XXX.iMAGESET-YAPG
2019-11-10 12:10:08 Andi_Biron-Chromatic_EP-(CIN136)-WEB-2019-AFO
2019-11-10 12:10:10 Glenn_Molloy-Cellphone-(WAUD0035)-WEB-2019-AFO
2019-11-10 12:10:16 Futur-E-Tragedy-(MIST748)-WEB-2019-AFO
2019-11-10 12:10:18 Enigmatic-Room_Of_Love-(ETREE340)-WEB-2019-AFO
2019-11-10 12:10:29 nae_tek-Projection_(The_Remixes)-(SUPDUB173)-WEB-2019-AFO
2019-11-10 12:10:34 Daredevil_(Ar)-Eternal_Rest-(B4J069)-WEB-2019-AFO
2019-11-10 12:10:40 Mark_Digital_and_Ciree-Nocturnal_Sun-(SOL091)-WEB-2019-AFO
2019-11-10 12:10:42 MSTE-Take_Control-(URC015)-WEB-2019-AFO
2019-11-10 12:10:57 Vixen.com_19.09.16.Mia.Split.XXX.iMAGESET-YAPG
2019-11-10 12:10:58 MXV-Laputan-(D9R052)-WEB-2019-AFO
2019-11-10 12:11:16 Ledo-Frozen__Under_the_Skin-(PHW373)-WEB-2019-AFO
2019-11-10 12:11:34 XFN.363.720p.WEB.H264-LEViTATE
2019-11-10 12:11:35 Bardeeya_and_Karim_Alkhayat-Illusions-(MAM052)-WEB-2019-AFO
2019-11-10 12:11:43 Senses_Of_Mind-Third_Dimension-(AWEN082)-WEB-2019-AFO
2019-11-10 12:11:45 Edlns_-_Prevail-(GBE094)-SINGLE-WEB-2019-SRG
2019-11-10 12:11:45 Shadym_and_Toni_Rios-Shadows_EP-(LUM080)-WEB-2019-AFO
2019-11-10 12:11:45 Vixen.com_19.09.21.Natalia.Starr.XXX.iMAGESET-YAPG
2019-11-10 12:11:55 Roberto_Capuano-The_Walker_EP-(DC213)-WEB-2019-AFO
2019-11-10 12:12:26 British.Police.Our.Toughest.Cases.S01E02.Angel.of.Death.1080p.WEB.x264-UNDERBELLY
2019-11-10 12:12:26 Vixen.com_19.09.26.Evelyn.Claire.And.Elsa.Jean.XXX.iMAGESET-YAPG
2019-11-10 12:13:01 British.Police.Our.Toughest.Cases.S01E02.Angel.of.Death.720p.WEB.x264-UNDERBELLY
2019-11-10 12:13:24 Relais-Total_Best-(BSR549)-WEB-2019-AFO
2019-11-10 12:13:27 Vixen.com_19.10.01.Anya.Olsen.XXX.iMAGESET-YAPG
2019-11-10 12:13:31 Sky_Boy-Hope-(STATICS022)-SINGLE-WEB-2019-AFO
2019-11-10 12:13:34 Deciduous_and_Cassidy_and_Kamilo_Sanclemente-Daze__Ancestry__Wakefulness-(PARQUET207)-REPACK-WEB-2019-AFO
2019-11-10 12:13:36 Sebastian_King_and_Maxi_Taboada_and_Tyncho_Mass-Ra-(BML278)-WEB-2019-AFO
2019-11-10 12:13:37 British.Police.Our.Toughest.Cases.S01E02.Angel.of.Death.WEB.x264-UNDERBELLY
2019-11-10 12:13:40 Ziger-Sunny_Days-(DD182)-WEB-2019-AFO
2019-11-10 12:13:43 The.Hunter.S01E01.German.DL.1080p.BluRay.x264-RSG
2019-11-10 12:13:45 Elias_Uberhausen-Things_I_Lost-(SMPH419)-WEB-2019-AFO
2019-11-10 12:14:08 Luke_Terry-For_All_I_Dream_Of-(YANABC010)-WEB-2019-AFO
2019-11-10 12:14:13 NASAs.Unexplained.Files.S01E07.Mystery.Space.Squid.720p.WEB.x264-UNDERBELLY
2019-11-10 12:14:36 Khxos-T.2.M.N-SINGLE-WEB-2019-AZF
2019-11-10 12:14:40 The.Hunter.S01E01.German.DL.720p.BluRay.x264-RSG
2019-11-10 12:14:45 NASAs.Unexplained.Files.S01E07.Mystery.Space.Squid.WEB.x264-UNDERBELLY
2019-11-10 12:14:46 Plies-Boss_Friends_(feat._DaBaby)-SINGLE-WEB-2019-AZF
2019-11-10 12:14:48 VA-ADE_2019_Sampler-(ST229)-WEB-2019-AFO
2019-11-10 12:14:49 Vixen.com_19.10.06.Little.Caprice.And.Gabbie.Carter.XXX.iMAGESET-YAPG
2019-11-10 12:14:56 Invictuz_-_Streetfight-(GBR075)-SINGLE-WEB-2019-SRG
2019-11-10 12:15:21 Serial.Killer.The.Devil.Unchained.S01E03.Lost.in.the.Woods.1080p.WEB.x264-UNDERBELLY
2019-11-10 12:15:24 VA-Boys_and_Girls_ADE_Sampler_2019-(BNG020)-WEB-2019-AFO
2019-11-10 12:15:28 Anton_Stelsi-Voice_of_Heaven-(AW141)-WEB-2019-AFO
2019-11-10 12:15:35 The.Hunter.S01E01.German.WS.BDRip.x264-RSG
2019-11-10 12:15:41 Cristian_Martin-Memories_Dream-(AMH241)-WEB-2019-AFO
2019-11-10 12:15:56 Serial.Killer.The.Devil.Unchained.S01E03.Lost.in.the.Woods.720p.WEB.x264-UNDERBELLY
2019-11-10 12:16:02 Vixen.com_19.10.11.Nia.Nacci.And.Honey.Gold.XXX.iMAGESET-YAPG
2019-11-10 12:16:29 Serial.Killer.The.Devil.Unchained.S01E03.Lost.in.the.Woods.WEB.x264-UNDERBELLY
2019-11-10 12:16:32 The.Hunter.S01E02.German.WS.BDRip.x264-RSG
2019-11-10 12:16:42 VA-The_Lost_Remixes-(LF063D)-WEB-2019-AFO
2019-11-10 12:16:51 VA-Clinique_Sampler_Pt_214-(CLS214)-WEB-2019-AFO
2019-11-10 12:16:55 O.R.B.-Liquid_999-(AD2019005)-SINGLE-WEB-2019-AFO
2019-11-10 12:17:11 Haunted.Hospitals.S01E01.Demonic.Invasion.1080p.WEB.x264-GIMINI
2019-11-10 12:17:15 Mel7em_and_Haze-M_ft_Shyam_P-Tale_of_Nemesis-(SMR004)-WEB-2019-AFO
2019-11-10 12:17:18 Rafa_Alcantara-Dome_EP-(BP8862019)-WEB-2019-AFO
2019-11-10 12:17:18 Vixen.com_19.10.16.Talia.Mint.XXX.iMAGESET-YAPG
2019-11-10 12:17:32 Monograph-Embrace-(DU025)-WEB-2019-AFO
2019-11-10 12:17:35 The.Hunter.S01E03.German.WS.BDRip.x264-RSG
2019-11-10 12:17:46 Haunted.Hospitals.S01E01.Demonic.Invasion.720p.WEB.x264-GIMINI
2019-11-10 12:30:17 Royal.British.Legion.Festival.Of.Remembrance.2019.720p.HDTV.x264-LiNKLE
2019-11-10 12:30:20 Daniel_De_Roma-HD_Drama_EP-(PR2019509)-WEB-2019-AFO
2019-11-10 12:30:21 Kenshi_Kamaro-Lighthouse-(AMIT013)-WEB-2019-AFO
2019-11-10 12:30:22 iMPACT.Wrestling.Turning.Point.2019.WEB.H264-LEViTATE
2019-11-10 12:30:23 Stergios-Trust_and_desire(Mash_Mix)-(REGEN029)-SINGLE-WEB-2019-AFO
2019-11-10 12:30:24 The.Hunter.S01E04.German.WS.BDRip.x264-RSG
2019-11-10 12:30:25 Oliver_Schories_and_Gorge-Goliath-(PRACHT3)-SINGLE-WEB-2019-AFO
2019-11-10 12:30:26 Vixen.com_19.10.21.Leanne.Lace.XXX.iMAGESET-YAPG
2019-11-10 12:30:27 The.Hunter.S01E05.German.WS.BDRip.x264-RSG
2019-11-10 12:30:28 iMPACT.Wrestling.Turning.Point.2019.720p.WEB.H264-LEViTATE
2019-11-10 12:30:28 The.Hunter.S01E06.German.WS.BDRip.x264-RSG
2019-11-10 12:30:30 VA-Rpo_Records_Session_Pt_4-(RRC116)-WEB-2019-AFO
2019-11-10 12:30:31 iMPACT.Wrestling.Turning.Point.2019.1080p.WEB.H264-LEViTATE
2019-11-10 12:30:32 Vixen.com_19.10.26.Jessica.Portman.XXX.iMAGESET-YAPG
2019-11-10 12:30:33 VA_-_The_Rookie_EP_Vol.5-(EOL108)-WEB-2019-SRG
2019-11-10 12:30:34 The.Hunter.S01E07.German.WS.BDRip.x264-RSG
2019-11-10 12:30:35 Pauls.Nummer.1.Show.S01E02.DUTCH.1080p.HDTV.x264-DTOD
2019-11-10 12:30:36 iMPACT.Wrestling.Xplosion.2019.11.02.WEB.H264-LEViTATE
2019-11-10 12:30:37 Vixen.com_19.10.31.Mia.Melano.And.Stacy.Cruz.XXX.iMAGESET-YAPG
2019-11-10 12:30:38 The.Hunter.S01E08.German.WS.BDRip.x264-RSG
2019-11-10 12:30:39 iMPACT.Wrestling.Xplosion.2019.11.02.720p.WEB.H264-LEViTATE
2019-11-10 12:30:40 iMPACT.Wrestling.Xplosion.2019.11.02.1080p.WEB.H264-LEViTATE
2019-11-10 12:30:41 The.Hunter.S01E09.German.WS.BDRip.x264-RSG
2019-11-10 12:30:42 Haunted.Hospitals.S01E01.Demonic.Invasion.WEB.x264-GIMINI
2019-11-10 12:30:43 Vixen.com_19.11.05.Skye.Blue.XXX.iMAGESET-YAPG
2019-11-10 12:30:44 Khxos-Gal_Getta_(feat._Noah_Powa)-WEB-2019-JAH
2019-11-10 12:30:45 Khxos-Jungle_(feat._Royal_Blu)-SINGLE-WEB-2019-JAH
2019-11-10 12:30:46 Rat.Busters.NYC.S01E03.Giant.Cannibal.Rats.1080p.WEB.x264-GIMINI
2019-11-10 12:30:47 The.Hunter.S01E10.German.WS.BDRip.x264-RSG
2019-11-10 12:30:48 Deeper.com_19.08.17.Avi.Love.XXX.iMAGESET-YAPG
2019-11-10 12:30:49 Rat.Busters.NYC.S01E03.Giant.Cannibal.Rats.720p.WEB.x264-GIMINI
2019-11-10 12:30:50 Rat.Busters.NYC.S01E03.Giant.Cannibal.Rats.INTERNAL.WEB.x264-GIMINI
2019-11-10 12:30:51 Deeper.com_19.08.22.Nia.Nacci.XXX.iMAGESET-YAPG
2019-11-10 12:30:52 The.Hunter.S01E11.German.WS.BDRip.x264-RSG
2019-11-10 12:30:53 Weed.Country.S01E01.Welcome.to.the.Garden.1080p.WEB.x264-GIMINI
2019-11-10 12:30:54 Deeper.com_19.08.27.Kayden.Kross.And.Aidra.Fox.XXX.iMAGESET-YAPG
2019-11-10 12:30:55 The.Hunter.S01E12.German.WS.BDRip.x264-RSG
2019-11-10 12:30:56 Deeper.com_19.09.01.Brooklyn.Gray.XXX.iMAGESET-YAPG
2019-11-10 12:30:57 Deeper.com_19.09.06.Gina.Valentina.XXX.iMAGESET-YAPG
2019-11-10 12:30:58 Deeper.com_19.09.11.Joey.White.And.Sami.White.XXX.iMAGESET-YAPG
2019-11-10 12:30:59 The.Hunter.S01E02.German.DL.720p.BluRay.x264-RSG
2019-11-10 12:30:59 Deeper.com_19.09.16.Jill.Kassidy.XXX.iMAGESET-YAPG
2019-11-10 12:31:00 Stolen_Cult_-_S1CK_F4CK-(T3RDM0323)-WEB-2019-SRG
2019-11-10 12:31:01 Deeper.com_19.09.21.Jessa.Rhodes.XXX.iMAGESET-YAPG
2019-11-10 12:31:02 Deeper.com_19.09.26.Ana.Foxxx.XXX.iMAGESET-YAPG
2019-11-10 12:31:03 Deeper.com_19.10.01.Lacy.Lennon.XXX.iMAGESET-YAPG
2019-11-10 12:31:04 The.Hunter.S01E03.German.DL.720p.BluRay.x264-RSG
2019-11-10 12:31:05 Deeper.com_19.10.04.Maitland.Ward.And.Ivy.Lebelle.XXX.iMAGESET-YAPG
2019-11-10 12:31:06 Deeper.com_19.10.09.Brooklyn.Gray.XXX.iMAGESET-YAPG
2019-11-10 12:31:07 NBA.2019.11.09.Boston.Celtics.vs.San.Antonio.Spurs.1080p.HDTV.x264-WiNNiNG
2019-11-10 12:31:08 The.Hunter.S01E04.German.DL.720p.BluRay.x264-RSG
2019-11-10 12:31:51 Deeper.com_19.10.14.Gabbie.Carter.And.Angela.White.XXX.iMAGESET-YAPG
2019-11-10 12:32:04 The.Hunter.S01E05.German.DL.720p.BluRay.x264-RSG
2019-11-10 12:32:53 Deeper.com_19.10.19.Angela.White.Lena.Paul.Alina.Lopez.And.Autumn.Falls.XXX.iMAGESET-YAPG
2019-11-10 12:35:04 The.Hunter.S01E06.German.DL.720p.BluRay.x264-RSG
2019-11-10 12:35:06 The.Block.AU.S15E57.720p.HDTV.x264-ORENJI
2019-11-10 12:35:09 Deeper.com_19.10.24.Angela.White.Emily.Willis.And.Kira.Noir.XXX.iMAGESET-YAPG
2019-11-10 12:35:13 The.Hunter.S01E07.German.DL.720p.BluRay.x264-RSG
2019-11-10 12:35:47 Deeper.com_19.10.29.Katrina.Jade.XXX.iMAGESET-YAPG
2019-11-10 12:35:57 Max_Cooper--Yearning_For_The_Infinite-(MESH025)-WEB-2019-dh
2019-11-10 12:36:24 Deeper.com_19.11.03.Gianna.Dior.And.Vina.Sky.XXX.iMAGESET-YAPG
2019-11-10 12:36:28 The.Hunter.S01E08.German.DL.720p.BluRay.x264-RSG
2019-11-10 12:37:48 Blacked.com_19.08.18.Apolonia.Lapiedra.XXX.iMAGESET-YAPG
2019-11-10 12:37:56 The.Hunter.S01E09.German.DL.720p.BluRay.x264-RSG
2019-11-10 12:38:30 Blacked.com_19.08.23.Riley.Reid.And.Gabbie.Carter.XXX.iMAGESET-YAPG
2019-11-10 12:39:19 Blacked.com_19.08.28.Lexie.Fux.XXX.iMAGESET-YAPG
2019-11-10 12:39:22 The.Hunter.S01E10.German.DL.720p.BluRay.x264-RSG
2019-11-10 12:39:45 Blacked.com_19.09.02.Jia.Lissa.And.Stacy.Cruz.XXX.iMAGESET-YAPG
2019-11-10 12:40:19 Blacked.com_19.09.07.Athena.Faris.XXX.iMAGESET-YAPG
2019-11-10 12:40:48 Blacked.com_19.09.12.Naomi.Swann.XXX.iMAGESET-YAPG
2019-11-10 12:40:53 The.Hunter.S01E11.German.DL.720p.BluRay.x264-RSG
2019-11-10 12:41:36 Blacked.com_19.09.17.Jada.Stevens.XXX.iMAGESET-YAPG
2019-11-10 12:42:07 Arthur_Minnahmetov-Under_the_Sun-(BVL009)-WEB-2019-AFO
2019-11-10 12:42:19 The.Hunter.S01E12.German.DL.720p.BluRay.x264-RSG
2019-11-10 12:42:25 Blacked.com_19.09.22.Lena.Anderson.And.Bree.Daniels.XXX.iMAGESET-YAPG
2019-11-10 12:42:53 Blacked.com_19.09.27.Bella.Rolland.XXX.iMAGESET-YAPG
2019-11-10 12:43:21 Blacked.com_19.10.02.Luna.Skye.XXX.iMAGESET-YAPG
2019-11-10 12:43:51 Blacked.com_19.10.07.Leah.Winters.XXX.iMAGESET-YAPG
2019-11-10 12:44:18 Blacked.com_19.10.12.Lana.Sharapova.XXX.iMAGESET-YAPG
2019-11-10 12:44:20 The.Hunter.S01E02.German.DL.1080p.BluRay.x264-RSG
2019-11-10 12:44:28 McAfee.Agent.v5.6.2-DVT
2019-11-10 12:44:43 McAfee.Agent.v5.6.2.Embedded-DVT
2019-11-10 12:44:44 Blacked.com_19.10.17.Gianna.Dior.XXX.iMAGESET-YAPG
2019-11-10 12:44:56 McAfee.Agent.v5.6.2.Linux-DVT
2019-11-10 12:44:57 Freestyle.World.Championships.2019.Womens.BMX.Freestyle.Park.WEB.H264-LEViTATE
2019-11-10 12:45:11 McAfee.Agent.v5.6.2.MacOS-DVT
2019-11-10 12:45:22 Blacked.com_19.10.22.Mia.Melano.XXX.iMAGESET-YAPG
2019-11-10 12:45:37 Freestyle.World.Championships.2019.Womens.BMX.Freestyle.Park.720p.WEB.H264-LEViTATE
2019-11-10 12:45:40 McAfee.Data.Exchange.Layer.Platform.v5.0.2.130.Linux-DVT
2019-11-10 12:45:55 McAfee.Data.Exchange.Layer.Platform.v5.0.2.130.OVA-DVT
2019-11-10 12:46:14 Blacked.com_19.10.27.Karla.Kush.XXX.iMAGESET-YAPG
2019-11-10 12:46:16 Yesterday.2019.ITALIAN.RERIP.1080p.BluRay.x264-iTHD
2019-11-10 12:46:21 Yesterday.2019.ITALIAN.RERIP.720p.BluRay.x264-iTHD
2019-11-10 12:46:58 Blacked.com_19.11.01.Jia.Lissa.XXX.iMAGESET-YAPG
2019-11-10 12:47:17 The.Hunter.S01E03.German.DL.1080p.BluRay.x264-RSG
2019-11-10 12:47:44 Blacked.com_19.11.06.Jill.Kassidy.Kyler.Quinn.And.Emma.Starletto.XXX.iMAGESET-YAPG
2019-11-10 12:48:24 Flikken.Rotterdam.S04E10.DUTCH.720p.WEB.x264-ADRENALiNE
2019-11-10 12:48:25 Total.Control.S01E05.HDTV.x264-W4F
2019-11-10 12:48:31 BlackedRaw.com_19.08.20.Abbie.Maley.And.Ashley.Lane.XXX.iMAGESET-YAPG
2019-11-10 12:48:52 Capitol.Wrestling.2019.10.30.1080p.WEB.H264-LEViTATE
2019-11-10 12:49:00 BlackedRaw.com_19.08.25.Hazel.Moore.XXX.iMAGESET-YAPG
2019-11-10 12:49:19 Capitol.Wrestling.2019.10.30.720p.WEB.H264-LEViTATE
2019-11-10 12:49:32 BlackedRaw.com_19.08.30.Skye.Blue.XXX.iMAGESET-YAPG
2019-11-10 12:49:54 Capitol.Wrestling.2019.10.30.WEB.H264-LEViTATE
2019-11-10 12:50:00 BlackedRaw.com_19.09.04.Emily.Willis.XXX.iMAGESET-YAPG
2019-11-10 12:50:14 The.Hunter.S01E04.German.DL.1080p.BluRay.x264-RSG
2019-11-10 12:50:27 Preston.City.Wrestling.2019.11.03.1080p.WEB.H264-LEViTATE
2019-11-10 12:50:28 BlackedRaw.com_19.09.09.Emily.Cutie.XXX.iMAGESET-YAPG
2019-11-10 12:50:54 Flikken.Rotterdam.S04E10.DUTCH.1080p.WEB.x264-ADRENALiNE
2019-11-10 12:51:04 Preston.City.Wrestling.2019.11.03.720p.WEB.H264-LEViTATE
2019-11-10 12:51:24 BlackedRaw.com_19.09.19.Angel.Emily.XXX.iMAGESET-YAPG
2019-11-10 12:51:34 Preston.City.Wrestling.2019.11.03.WEB.H264-LEViTATE
2019-11-10 12:51:49 BlackedRaw.com_19.09.24.Brandi.Love.XXX.iMAGESET-YAPG
2019-11-10 12:52:09 SMASH.Wrestling.2019.10.24.1080p.WEB.H264-LEViTATE
2019-11-10 12:52:20 BlackedRaw.com_19.09.29.Stacy.Cruz.XXX.iMAGESET-YAPG
2019-11-10 12:52:42 SMASH.Wrestling.2019.10.24.720p.WEB.H264-LEViTATE
2019-11-10 12:52:45 BlackedRaw.com_19.10.04.Adria.Rae.XXX.iMAGESET-YAPG
2019-11-10 12:53:12 The.Hunter.S01E05.German.DL.1080p.BluRay.x264-RSG
2019-11-10 12:53:17 SMASH.Wrestling.2019.10.24.WEB.H264-LEViTATE
2019-11-10 12:53:19 BlackedRaw.com_19.10.09.Lika.Star.XXX.iMAGESET-YAPG
2019-11-10 12:53:49 BlackedRaw.com_19.10.14.Naomi.Swann.XXX.iMAGESET-YAPG
2019-11-10 12:53:53 UWA.Elite.Brawl.For.It.All.2019.1080p.WEB.H264-LEViTATE
2019-11-10 12:54:17 BlackedRaw.com_19.10.19.Morgan.Rain.XXX.iMAGESET-YAPG
2019-11-10 12:54:27 WAR.Wrestling.Fansgiving.2019.1080p.WEB.H264-LEViTATE
2019-11-10 12:54:40 BlackedRaw.com_19.10.24.Skye.Blue.And.Lena.Paul.XXX.iMAGESET-YAPG
2019-11-10 12:55:00 WAR.Wrestling.Fansgiving.2019.WEB.H264-LEViTATE
2019-11-10 12:55:05 BlackedRaw.com_19.10.29.Oxana.Chic.XXX.iMAGESET-YAPG
2019-11-10 12:55:33 BlackedRaw.com_19.11.03.Mia.Linz.XXX.iMAGESET-YAPG
2019-11-10 12:55:58 BlackedRaw.com_19.11.08.Karla.Kush.XXX.iMAGESET-YAPG
2019-11-10 12:56:11 The.Hunter.S01E06.German.DL.1080p.BluRay.x264-RSG
2019-11-10 12:58:43 Andrew_Bird-HARK-EP-WEB-2019-BEAMS
2019-11-10 12:59:04 And_So_I_Watch_You_From_Afar-ASIWYFA_Live_10_Year_Anniversary-WEB-2019-BEAMS
2019-11-10 12:59:09 The.Hunter.S01E07.German.DL.1080p.BluRay.x264-RSG
2019-11-10 12:59:28 Low_Roar-Ross-WEB-2019-BEAMS
2019-11-10 12:59:55 Shida_Shahabi-Shifts-EP-WEB-2019-BEAMS
2019-11-10 13:02:11 The.Hunter.S01E08.German.DL.1080p.BluRay.x264-RSG
2019-11-10 13:03:18 Sinterklaas.En.De.LiedjesPietjes.S01E01.DUTCH.720p.WEB.h264-ADRENALiNE
2019-11-10 13:03:29 Blockhead-Bubble_Bath-WEB-2019-UVU
2019-11-10 13:03:37 VA-The_Dome_Vol._92-2CD-WEB-2019-NOiCE_INT
2019-11-10 13:03:48 Step_Brothers-Burnt_Tree-Single-WEB-2019-UVU
2019-11-10 13:03:49 Sinterklaas.En.De.LiedjesPietjes.S01E01.DUTCH.1080p.WEB.h264-ADRENALiNE
2019-11-10 13:04:10 Sinterklaas.En.De.LiedjesPietjes.S01E02.DUTCH.720p.WEB.h264-ADRENALiNE
2019-11-10 13:04:37 Sinterklaas.En.De.LiedjesPietjes.S01E02.DUTCH.1080p.WEB.h264-ADRENALiNE
2019-11-10 13:05:03 Sinterklaas.En.De.LiedjesPietjes.S01E03.DUTCH.720p.WEB.h264-ADRENALiNE
2019-11-10 13:05:05 The.Hunter.S01E09.German.DL.1080p.BluRay.x264-RSG
2019-11-10 13:05:32 Sinterklaas.En.De.LiedjesPietjes.S01E03.DUTCH.1080p.WEB.h264-ADRENALiNE
2019-11-10 13:05:57 Sinterklaas.En.De.LiedjesPietjes.S01E04.DUTCH.720p.WEB.h264-ADRENALiNE
2019-11-10 13:06:32 Sinterklaas.En.De.LiedjesPietjes.S01E04.DUTCH.1080p.WEB.h264-ADRENALiNE
2019-11-10 13:06:58 Sinterklaas.En.De.LiedjesPietjes.S01E05.DUTCH.720p.WEB.h264-ADRENALiNE
2019-11-10 13:07:29 Sinterklaas.En.De.LiedjesPietjes.S01E05.DUTCH.1080p.WEB.h264-ADRENALiNE
2019-11-10 13:07:50 Sinterklaas.En.De.LiedjesPietjes.S01E06.DUTCH.720p.WEB.h264-ADRENALiNE
2019-11-10 13:08:02 The.Hunter.S01E10.German.DL.1080p.BluRay.x264-RSG
2019-11-10 13:08:16 Sinterklaas.En.De.LiedjesPietjes.S01E06.DUTCH.1080p.WEB.h264-ADRENALiNE
2019-11-10 13:08:36 Sinterklaas.En.De.LiedjesPietjes.S01E07.DUTCH.720p.WEB.h264-ADRENALiNE
2019-11-10 13:08:58 Berlin.-.Schicksalsjahre.einer.Stadt.S03E09.Das.Jahr.1988.GERMAN.DOKU.720p.HDTV.x264-BTVG
2019-11-10 13:09:01 Les_12_Salopards-Origins-WEB-FR-2019-OND
2019-11-10 13:09:03 Sinterklaas.En.De.LiedjesPietjes.S01E07.DUTCH.1080p.WEB.h264-ADRENALiNE
2019-11-10 13:09:20 For.Genert.Til.At.Date.E02.Kaerligheden.Findes.I.Virtual.Reality.DANISH.1080p.WEB.h264-FFD
2019-11-10 13:09:35 For.Genert.Til.At.Date.E02.Kaerligheden.Findes.I.Virtual.Reality.DANISH.720p.WEB.h264-FFD
2019-11-10 13:10:02 Sinterklaas.En.De.LiedjesPietjes.S01E08.DUTCH.1080p.WEB.h264-ADRENALiNE
2019-11-10 13:11:01 The.Hunter.S01E11.German.DL.1080p.BluRay.x264-RSG
2019-11-10 13:11:25 Boxing.2019.11.09.Billy.Joe.Saunders.Vs.Marcelo.Coceres.1080p.AHDTV.x264-ACES
2019-11-10 13:13:27 Boxing.2019.11.09.Devin.Haney.Vs.Alfredo.Santiago.PPV.1080p.AHDTV.x264-ACES
2019-11-10 13:13:57 The.Hunter.S01E12.German.DL.1080p.BluRay.x264-RSG
2019-11-10 13:15:29 Boxing.2019.11.09.Devin.Haney.Vs.Alfredo.Santiago.PPV.AHDTV.x264-ACES
2019-11-10 13:15:57 The.Hunter.S01D01.MULTi.COMPLETE.BLURAY-XORBiTANT
2019-11-10 13:17:32 Boxing.2019.11.09.KSI.Vs.Logan.Paul.PPV.1080p.AHDTV.x264-ACES
2019-11-10 13:18:29 Berlin.-.Schicksalsjahre.einer.Stadt.S03E09.Das.Jahr.1988.GERMAN.DOKU.HDTVRiP.x264-BTVG
2019-11-10 13:18:38 Life.Of.Kim.S01E01.DUTCH.720p.WEB.h264-ADRENALiNE
2019-11-10 13:19:36 Boxing.2019.11.09.Nikita.Ababiy.Vs.Jonathan.Batista.PPV.1080p.AHDTV.x264-ACES
2019-11-10 13:19:49 Project.Warlock.v1.0.1.0-I_KnoW
2019-11-10 13:20:13 Life.Of.Kim.S01E01.DUTCH.1080p.WEB.h264-ADRENALiNE
2019-11-10 13:23:54 The.Hunter.S01D02.MULTi.COMPLETE.BLURAY-XORBiTANT
2019-11-10 13:26:32 BAILE--Winte-(CAT338302)-WEB-2019-dh
2019-11-10 13:28:24 Royal.British.Legion.Festival.Of.Remembrance.2019.1080p.HDTV.x264-LiNKLE
2019-11-10 13:29:58 Das.Ende.der.Wahrheit.2019.GERMAN.1080p.BluRay.x264-UNiVERSUM
2019-11-10 13:30:41 Das.Ende.der.Wahrheit.2019.GERMAN.720p.BluRay.x264-UNiVERSUM
2019-11-10 13:32:44 The.Hunter.S01D03.MULTi.COMPLETE.BLURAY-XORBiTANT
2019-11-10 13:33:00 Gegege.No.Kitaro.E80.1080p.WEB.x264-URANiME
2019-11-10 13:33:31 Gegege.No.Kitaro.E80.720p.WEB.x264-URANiME
2019-11-10 13:33:44 Meister.Eder.und.sein.Pumuckl.S01E02.German.720p.BluRay.x264-TV4A
2019-11-10 13:34:02 Novels.That.Shaped.Our.World.S01E01.A.Womans.Place.1080p.HDTV.H264-LiNKLE
2019-11-10 13:34:04 Gegege.No.Kitaro.E80.WEB.x264-URANiME
2019-11-10 13:34:35 Sword.Art.Online.Alicization.War.Of.Underworld.E05.1080p.WEB.x264-URANiME
2019-11-10 13:35:06 Sword.Art.Online.Alicization.War.Of.Underworld.E05.720p.WEB.x264-URANiME
2019-11-10 13:35:15 Meister.Eder.und.sein.Pumuckl.S01E03.German.720p.BluRay.x264-TV4A
2019-11-10 13:35:39 Sword.Art.Online.Alicization.War.Of.Underworld.E05.WEB.x264-URANiME
2019-11-10 13:36:11 We.Never.Learn.Bokuben.S02E06.1080p.WEB.x264-URANiME
2019-11-10 13:36:44 We.Never.Learn.Bokuben.S02E06.720p.WEB.x264-URANiME
2019-11-10 13:36:47 Meister.Eder.und.sein.Pumuckl.S01E04.German.720p.BluRay.x264-TV4A
2019-11-10 13:37:14 Le.Monde.Argent.05.Novembre.2019.French.Retail.eBook-FMR
2019-11-10 13:37:15 We.Never.Learn.Bokuben.S02E06.WEB.x264-URANiME
2019-11-10 13:37:18 Le.Monde.Campus.07.Novembre.2019.French.Retail.eBook-FMR
2019-11-10 13:37:19 Le.Monde.06.Novembre.2019.French.Retail.eBook-FMR
2019-11-10 13:37:25 Le.Monde.07.Novembre.2019.French.Retail.eBook-FMR
2019-11-10 13:37:33 Le.Monde.08.Novembre.2019.French.Retail.eBook-FMR
2019-11-10 13:37:42 Le.Monde.M.09.Novembre.2019.French.Retail.eBook-FMR
2019-11-10 13:37:51 Le.Monde.12.Novembre.2019.French.Retail.eBook-FMR
2019-11-10 13:37:52 Le.Monde.Supplement.Special.12.Novembre.2019.French.Retail.eBook-FMR
2019-11-10 13:38:18 Meister.Eder.und.sein.Pumuckl.S01E05.German.720p.BluRay.x264-TV4A
2019-11-10 13:39:02 Discovering.Music.S02E03.David.Bowie.1080p.HDTV.H264-LiNKLE
2019-11-10 13:39:52 Meister.Eder.und.sein.Pumuckl.S01E06.German.720p.BluRay.x264-TV4A
2019-11-10 13:41:22 Meister.Eder.und.sein.Pumuckl.S01E07.German.720p.BluRay.x264-TV4A
2019-11-10 13:41:57 Krejlerkongen.S07E10.DANISH.720p.WEB.h264-RANDERS
2019-11-10 13:42:53 Meister.Eder.und.sein.Pumuckl.S01E08.German.720p.BluRay.x264-TV4A
2019-11-10 13:44:08 Krejlerkongen.S07E11.DANISH.720p.WEB.h264-RANDERS
2019-11-10 13:44:24 Meister.Eder.und.sein.Pumuckl.S01E09.German.720p.BluRay.x264-TV4A
2019-11-10 13:45:27 Krejlerkongen.S07E12.DANISH.720p.WEB.h264-RANDERS
2019-11-10 13:45:54 VA-Schlager_Bild_2020-2CD-WEB-DE-2019-NOiCE_INT
2019-11-10 13:45:58 Meister.Eder.und.sein.Pumuckl.S01E10.German.720p.BluRay.x264-TV4A
2019-11-10 13:46:49 CAITLIN--Freaks_And_Misfits_(Victor_Ruiz_Remix)-(EBM019)-SINGLE-WEB-2019-dh
2019-11-10 13:46:55 Krejlerkongen.S07E13.DANISH.720p.WEB.h264-RANDERS
2019-11-10 13:47:28 Meister.Eder.und.sein.Pumuckl.S01E11.German.720p.BluRay.x264-TV4A
2019-11-10 13:47:53 The.Jonathan.Ross.Show.S15E09.1080p.HDTV.x264-LiNKLE
2019-11-10 13:48:09 Krejlerkongen.S07E14.DANISH.720p.WEB.h264-RANDERS
2019-11-10 13:48:24 CAITLIN--Freaks_And_Misfits_(Thomas_Schumacher_Remixes)-(EBM019)-WEB-2019-dh
2019-11-10 13:48:32 Blue.Bloods.S10E07.iNTERNAL.720p.WEB.H264-AMRAP
2019-11-10 13:48:59 Meister.Eder.und.sein.Pumuckl.S01E12.German.720p.BluRay.x264-TV4A
2019-11-10 13:49:10 Krejlerkongen.S07E15.DANISH.720p.WEB.h264-RANDERS
2019-11-10 13:49:11 Paul.Benhaim.-.Konopi.-.Zdravi.na.dosah.holisticka.kucharka.2019.CZECH.RETAiL.eBook-MoCB
2019-11-10 13:49:25 Superkids.S03E02.DUTCH.1080p.HDTV.x264-DTOD
2019-11-10 13:50:07 Harkum.S01E04.DUTCH.720p.WEB.x264-ADRENALiNE
2019-11-10 13:50:31 Meister.Eder.und.sein.Pumuckl.S01E13.German.720p.BluRay.x264-TV4A
2019-11-10 13:51:36 Harkum.S01E04.DUTCH.1080p.WEB.x264-ADRENALiNE
2019-11-10 13:52:03 Meister.Eder.und.sein.Pumuckl.S01E14.German.720p.BluRay.x264-TV4A
2019-11-10 13:53:35 Meister.Eder.und.sein.Pumuckl.S01E15.German.720p.BluRay.x264-TV4A
2019-11-10 13:55:00 Das.Ende.der.Wahrheit.2019.GERMAN.COMPLETE.BLURAY-UNiVERSUM
2019-11-10 13:55:06 Meister.Eder.und.sein.Pumuckl.S01E16.German.720p.BluRay.x264-TV4A
2019-11-10 13:56:47 Meister.Eder.und.sein.Pumuckl.S01E17.German.720p.BluRay.x264-TV4A
2019-11-10 13:58:13 Meister.Eder.und.sein.Pumuckl.S01E18.German.720p.BluRay.x264-TV4A
2019-11-10 13:59:32 Free.To.Rock.How.Rock.And.Roll.Brought.Down.The.Wall.2017.1080p.HDTV.H264-LiNKLE
2019-11-10 13:59:43 Meister.Eder.und.sein.Pumuckl.S01E19.German.720p.BluRay.x264-TV4A
2019-11-10 14:01:24 Meister.Eder.und.sein.Pumuckl.S01E20.German.720p.BluRay.x264-TV4A
2019-11-10 14:02:49 Meister.Eder.und.sein.Pumuckl.S01E21.German.720p.BluRay.x264-TV4A
2019-11-10 14:02:58 Skandy-Chica-SINGLE-WEB-FR-2019-AZF
2019-11-10 14:03:10 Skandy-Elle_Fait_Sa_Folle-SINGLE-WEB-FR-2019-AZF
2019-11-10 14:03:20 Skandy-Paye_Tout-SINGLE-WEB-FR-2019-AZF
2019-11-10 14:03:26 Sons.Of.Vienna.S01E02.1080p.HDTV.H264-LiNKLE
2019-11-10 14:03:31 Skandy-Perdre_Mon_Temps-SINGLE-WEB-FR-2019-AZF
2019-11-10 14:04:19 Meister.Eder.und.sein.Pumuckl.S01E22.German.720p.BluRay.x264-TV4A
2019-11-10 14:05:46 Match.Of.The.Day.2019.11.09.HDTV.x264-ACES
2019-11-10 14:05:50 Meister.Eder.und.sein.Pumuckl.S01E23.German.720p.BluRay.x264-TV4A
2019-11-10 14:07:22 Meister.Eder.und.sein.Pumuckl.S01E24.German.720p.BluRay.x264-TV4A
2019-11-10 14:08:54 Meister.Eder.und.sein.Pumuckl.S01E25.German.720p.BluRay.x264-TV4A
2019-11-10 14:10:25 Meister.Eder.und.sein.Pumuckl.S01E26.German.720p.BluRay.x264-TV4A
2019-11-10 14:11:28 Wij.Emigreren.S01E02.DUTCH.1080p.HDTV.x264-DTOD
2019-11-10 14:11:35 Beyond.Wrestling.Uncharted.Territory.S02E06.WEB.x264-LEViTATE
2019-11-10 14:12:13 Beyond.Wrestling.Uncharted.Territory.S02E06.720p.WEB.x264-LEViTATE
2019-11-10 14:12:55 St.Louis.Anarchy.No.Church.In.The.Wild.2019.WEB.x264-LEViTATE
2019-11-10 14:13:35 St.Louis.Anarchy.No.Church.In.The.Wild.2019.720p.WEB.x264-LEViTATE
2019-11-10 14:20:48 Das.Ende.der.Wahrheit.2019.GERMAN.1080p.BluRay.AVC-iTSMEMARiO
2019-11-10 14:22:53 Young.Sheldon.S03E01.iNTERNAL.1080p.HDTV.X265.CZ-DELi
2019-11-10 14:23:51 Modern.Family.S10E08.FRENCH.720p.HDTV.x264-SH0W
2019-11-10 14:24:06 Modern.Family.S10E08.FRENCH.HDTV.x264-SH0W
2019-11-10 14:31:05 Berlin.-.Schicksalsjahre.einer.Stadt.S03E10.Das.Jahr.1989.GERMAN.DOKU.720p.HDTV.x264-BTVG
2019-11-10 14:31:22 Berlin.-.Schicksalsjahre.einer.Stadt.S03E10.Das.Jahr.1989.GERMAN.DOKU.HDTVRiP.x264-BTVG
2019-11-10 14:34:27 VA-Schlager_Club_2020_(63_Discofox_Party_Hits)-3CD-WEB-DE-2019-NOiCE_INT
2019-11-10 14:35:27 NCAA.Basketball.2019.11.09.Oklahoma.vs.Minnesota.WEB.H264-LEViTATE
2019-11-10 14:36:14 NCAA.Basketball.2019.11.09.Oklahoma.vs.Minnesota.720p.WEB.H264-LEViTATE
2019-11-10 14:37:05 NCAA.Football.2019.11.08.Washington.vs.Oregon.State.WEB.H264-LEViTATE
2019-11-10 14:37:47 NCAA.Football.2019.11.08.Washington.vs.Oregon.State.720p.WEB.H264-LEViTATE
2019-11-10 14:38:18 Greatest.Ever.Movie.Blunders.S01E05.1080p.HDTV.H264-LiNKLE
2019-11-10 14:38:29 NCAA.Football.2019.11.09.Baylor.vs.TCU.WEB.H264-LEViTATE
2019-11-10 14:38:43 Leavenworth.S01E01.DOC.FRENCH.WEB.H264-CiELOS
2019-11-10 14:38:50 Leavenworth.S01E01.DOC.FRENCH.720p.WEB.H264-CiELOS
2019-11-10 14:38:56 Leavenworth.S01E01.DOC.MULTi.1080p.WEB.H264-CiELOS
2019-11-10 14:39:02 Leavenworth.S01E02.DOC.FRENCH.WEB.H264-CiELOS
2019-11-10 14:39:09 Leavenworth.S01E02.DOC.FRENCH.720p.WEB.H264-CiELOS
2019-11-10 14:39:29 Leavenworth.S01E03.DOC.FRENCH.WEB.H264-CiELOS
2019-11-10 14:39:54 NCAA.Football.2019.11.09.Illinois.vs.Michigan.State.WEB.H264-LEViTATE
2019-11-10 14:42:36 NCAA.Football.2019.11.09.Illinois.vs.Michigan.State.720p.WEB.H264-LEViTATE
2019-11-10 14:42:56 Match.Of.The.Day.2019.11.09.720p.HDTV.x264-ACES
2019-11-10 14:45:20 I.Am.Legend.2007.MULTi.TRUEFRENCH.2160p.UHD.BluRay.x265-SHiNiGAMiUHD
2019-11-10 14:45:54 Pixel.Art.1.German-DELiGHT
2019-11-10 14:46:51 Pixel.Art.2.German-DELiGHT
2019-11-10 14:47:13 Pixel.Art.3.German-DELiGHT
2019-11-10 14:47:21 Lambs.Of.God.S01E01.GERMAN.1080p.WEBRiP.x264-LAW
2019-11-10 14:47:55 Pixel.Art.4.German-DELiGHT
2019-11-10 14:47:58 Dateline.2019.11.08.The.Black.Widow.Of.Lomita.1080p.WEB.x264-LiGATE
2019-11-10 14:48:29 Rainbow.Pixel.German-DELiGHT
2019-11-10 14:48:36 VA-Club_Charts_2020.1-3CD-WEB-2019-NOiCE_INT
2019-11-10 14:48:56 Lambs.Of.God.S01E01.GERMAN.720p.WEBRiP.x264-LAW
2019-11-10 14:50:14 Lambs.Of.God.S01E02.GERMAN.1080p.WEBRiP.x264-LAW
2019-11-10 14:51:13 Looking.for.Alaska.1x02.Tell.Them.I.Said.Something.720p.HDTV.x264.CZ-SDTV
2019-11-10 14:51:16 Looking.for.Alaska.S01E02.iNTERNAL.1080p.HDTV.X265.CZ-DELi
2019-11-10 14:52:11 Lambs.Of.God.S01E02.GERMAN.720p.WEBRiP.x264-LAW
2019-11-10 14:53:07 Sage.100C.Entreprise.Suite.Comptable.et.Financiere.v6.00.Multilingual.Incl.Keygen-NGEN
2019-11-10 14:53:32 Berlin.-.Schicksalsjahre.einer.Stadt.S03E08.Das.Jahr.1987.GERMAN.DOKU.720p.HDTV.x264-BTVG
2019-11-10 14:54:22 Lambs.Of.God.S01E03.GERMAN.1080p.WEBRiP.x264-LAW
2019-11-10 14:55:46 Lambs.Of.God.S01E03.GERMAN.720p.WEBRiP.x264-LAW
2019-11-10 14:55:55 Falafelwesen-Rohschinken-SINGLE-WEB-2019-wAx
2019-11-10 14:56:02 Discovering.Music.S02E03.David.Bowie.HDTV.x264-LiNKLE
2019-11-10 14:56:55 Lambs.Of.God.S01E04.GERMAN.1080p.WEBRiP.x264-LAW
2019-11-10 14:58:31 Unartekk-Ufo_Disko-SINGLE-WEB-2019-wAx
2019-11-10 14:58:37 Lambs.Of.God.S01E04.GERMAN.720p.WEBRiP.x264-LAW
2019-11-10 15:01:02 Unartekk-Dunkelkammer-SINGLE-WEB-2019-wAx
2019-11-10 15:02:37 Project.Blue.Book.S01E05.FRENCH.720p.HDTV.x264-HuSSLe
2019-11-10 15:02:39 Novels.That.Shaped.Our.World.S01E01.A.Womans.Place.HDTV.x264-LiNKLE
2019-11-10 15:03:03 Project.Blue.Book.S01E06.FRENCH.720p.HDTV.x264-HuSSLe
2019-11-10 15:03:44 Tekktonikk-Tekknonikk_Einz-SINGLE-WEB-2019-wAx
2019-11-10 15:05:25 Britannia.S02E09.GERMAN.720p.WEBRiP.REPACK.x264-LAW
2019-11-10 15:06:18 Tekktonikk-Koks_Weg-SINGLE-WEB-DE-2019-wAx
2019-11-10 15:07:44 HuaLun-An_Elephant_Sitting_Still_(Original_Soundtrack)-WEB-CN-2018-TosK
2019-11-10 15:08:47 Doug.Beason.and.Kevin.J.Anderson.-.Craig.Kreident.1.Virtual.Destruction.2016.RETAiL.eBOOk-rebOOk
2019-11-10 15:08:51 Tekktonikk-Ballert-SINGLE-WEB-2019-wAx
2019-11-10 15:09:40 Doug.Beason.and.Kevin.J.Anderson.-.Craig.Kreident.1.Virtual.Destruction.2016.RETAiL.ePub.eBOOk-rebOOk
2019-11-10 15:09:52 Britannia.S02E09.GERMAN.1080p.WEBRiP.REPACK.x264-LAW
2019-11-10 15:10:19 Josh.Vogt.-.The.Cleaners.Book.2.The.Maids.of.Wrath.2015.RETAiL.eBOOk-rebOOk
2019-11-10 15:10:56 Josh.Vogt.-.The.Cleaners.Book.2.The.Maids.of.Wrath.2015.RETAiL.ePub.eBOOk-rebOOk
2019-11-10 15:11:25 Tekktonikk-Early_Hardcore_Tekk-SINGLE-WEB-2019-wAx
2019-11-10 15:12:53 Hansa.Studios.By.The.Wall.1976-90.2017.HDTV.x264-LiNKLE
2019-11-10 15:13:08 Die.Klasse.von.1984.1982.UNCUT.German.DL.1080p.BluRay.AVC-AVCiHD
2019-11-10 15:13:50 Dublin.Murders.S01E01.GERMAN.DL.720p.WEBRiP.x264.PROPER-idTV
2019-11-10 15:13:55 Dublin.Murders.S01E01.GERMAN.WEBRiP.x264-idTV
2019-11-10 15:14:05 Dublin.Murders.S01E01.GERMAN.DL.1080p.WEBRiP.x264.PROPER-VoDTv
2019-11-10 15:15:03 Patriot.Act.with.Hasan.Minhaj.S05E01.720p.WEB.X264-AMRAP
2019-11-10 15:16:01 Patriot.Act.with.Hasan.Minhaj.S05E01.1080p.WEB.X264-AMRAP
2019-11-10 15:19:07 Free.To.Rock.How.Rock.And.Roll.Brought.Down.The.Wall.2017.HDTV.x264-LiNKLE
2019-11-10 15:20:31 Sons.Of.Vienna.S01E02.HDTV.x264-LiNKLE
2019-11-10 15:20:57 ATB-A_New_Life_EP-(4056813156935)-WEB-2019-AFO_INT
2019-11-10 15:24:00 FacialAbuse.E746.What.The.Fuck.XXX.1080p.MP4-KTR
2019-11-10 15:24:47 FacialAbuse.E747.Facial.Abuse.Fanatics.XXX.1080p.MP4-KTR
2019-11-10 15:25:37 FacialAbuse.E748.Face.Fucking.And.Brutal.Anal.XXX.1080p.MP4-KTR
2019-11-10 15:26:04 Blank.S03E02.iNTERNAL.NORWEGiAN.720p.WEB.X264-HENRETTELSE
2019-11-10 15:26:20 FacialAbuse.E749.Ducking.The.Champ.XXX.1080p.MP4-KTR
2019-11-10 15:27:07 FacialAbuse.E750.The.Red.Scare.XXX.1080p.MP4-KTR
2019-11-10 15:27:54 FacialAbuse.E751.DPd.Disciplined.Face.Fucked.Sodomized.XXX.1080p.MP4-KTR
2019-11-10 15:33:44 Dixie.Chicks.DCX.MMXVI.Live.2017.HDTV.x264-LiNKLE
2019-11-10 15:35:28 Motorway.Patrol.S05E03.PDTV.x264-LiNKLE
2019-11-10 15:38:33 Motorway.Patrol.S05E02.PDTV.x264-LiNKLE
2019-11-10 15:40:03 Dublin.Murders.S01E01.iNTERNAL.MULTi.1080p.WEB.H264-CiELOS
2019-11-10 15:40:43 Ransom.S02E09.FRENCH.HDTV.x264-AMB3R
2019-11-10 15:40:50 Ransom.S02E10.FRENCH.HDTV.x264-AMB3R
2019-11-10 15:41:25 MICROSOFT_SQL_SERVER_2019_WEB_EDITION-DVTiSO
2019-11-10 15:41:57 MICROSOFT_SQL_SERVER_2019_STANDARD_EDITION-DVTiSO
2019-11-10 15:42:26 MICROSOFT_SQL_SERVER_2019_DEVELOPER_EDITION-DVTiSO
2019-11-10 15:42:52 MICROSOFT_SQL_SERVER_2019_ENTERPRISE_CORE_EDITION-DVTiSO
2019-11-10 15:43:24 MICROSOFT_SQL_SERVER_2019_ENTERPRISE_EDITION-DVTiSO
2019-11-10 15:45:20 The.NFL.Show.S04E11.HDTV.x264-ACES
2019-11-10 15:45:30 Moonflower.2011.DOC.SUBFRENCH.1080p.WEB.H264-AMZN
2019-11-10 15:46:06 VA_-_Techno_Top_100_Vol.29-2CD-2019-MOD
2019-11-10 15:49:46 VA_-_Apres_Ski_Top_200_2020-3CD-DE-2019-MOD
2019-11-10 15:50:12 Greatest.Ever.Movie.Blunders.S01E05.HDTV.x264-LiNKLE
2019-11-10 15:50:31 VA_-_Karneval_Party_Hits_Top_200_Vol.3-3CD-DE-2019-MOD
2019-11-10 15:53:02 Final.Space.S02E07.SPANiSH.1080p.HDTV.x264-FCC
2019-11-10 15:53:27 Final.Space.S02E07.SPANiSH.720p.HDTV.x264-FCC
2019-11-10 15:53:45 Final.Space.S02E07.SPANiSH.HDTV.x264-FCC
2019-11-10 15:53:56 The.Blacklist.S07E05.SPANiSH.1080p.HDTV.x264-FCC
2019-11-10 15:54:20 The.Blacklist.S07E05.SPANiSH.720p.HDTV.x264-FCC
2019-11-10 15:54:35 The.Blacklist.S07E05.SPANiSH.HDTV.x264-FCC
2019-11-10 15:56:24 The.Vampire.Diaries.S05.NORDiC.SUBPACK.BluRay-REQ
2019-11-10 15:58:12 CityGML2CAD.v1.6.4.German.WinALL.Incl.Keygen-BLiZZARD
2019-11-10 15:59:00 CityEditor.for.Sketchup.v2.19.German.WinALL.Incl.Keygen-BLiZZARD
2019-11-10 15:59:46 WinCanVX.v1.5.6.MultiLanguage.WinALL.Incl.Keygen-BLiZZARD
2019-11-10 16:00:47 Project.Blue.Book.S01E05.FRENCH.HDTV.x264-AMB3R
2019-11-10 16:00:52 Project.Blue.Book.S01E06.FRENCH.HDTV.x264-AMB3R
2019-11-10 16:01:28 Javier_Elorrieta-Avec_Le_Temps_Grandes_Exitos-FR-REPACK-CD-FLAC-2019-CEBAD
2019-11-10 16:01:46 Les.Grandes.Familles.1958.FRENCH.720p.BluRay.x264-FiDELiO
2019-11-10 16:07:00 Daddy.ohne.Plan.German.DL.2007.AC3.BDRip.x264.iNTERNAL-VideoStar
2019-11-10 16:07:32 Sage.100C.Moyen.de.Paiement.v6.00.Multilingual.Incl.Keygen-NGEN
2019-11-10 16:08:34 Daddy.ohne.Plan.2007.German.DL.1080p.BluRay.x264.iNTERNAL-VideoStar
2019-11-10 16:13:33 Arnold_Jarvis_And_Alix_Alvarez-Rising_Into_Joy_(Mannix_2020_Remixes)-(BVRDD099)-WEB-2019-BF
2019-11-10 16:14:12 Bird_In_1893-Sprettur-(COV003)-WEB-2019-BF
2019-11-10 16:15:22 Les.Grandes.Familles.1958.FRENCH.1080p.BluRay.x264-FiDELiO
2019-11-10 16:17:20 C_Da_Afro_And_Jaytor-Automatic_Future-(CBM029)-SINGLE-WEB-2019-BF
2019-11-10 16:17:33 AllHerLuv.19.08.23.Anny.Aurora.Cadence.Lux.Vera.King.And.Zoe.Bloom.Mother.Of.The.Bride.XXX.1080p.MP4-WEIRD
2019-11-10 16:17:53 C_Da_Afro-Party_Starter-(LHR0074)-WEB-2019-BF
2019-11-10 16:18:36 AllHerLuv.19.08.30.Scarlett.Sage.And.Shyla.Jennings.The.Social.Media.Influencer.XXX.1080p.MP4-WEIRD
2019-11-10 16:18:42 Djeko_And_K_You_Feat_Future_Feelings-District_11-(BLACKRIOTD041)-WEB-2019-BF
2019-11-10 16:18:46 Les.Grandes.Familles.1958.iNTERNAL.FRENCH.BDRip.x264-LOFiDEL
2019-11-10 16:19:21 Elfenberg-Weekend_Warriors-(TRAMPA001)-WEB-2019-BF
2019-11-10 16:19:37 AllHerLuv.19.09.15.Bunny.Colby.And.Serene.Siren.An.Unknown.Need.XXX.1080p.MP4-WEIRD
2019-11-10 16:20:05 Enzo_Leep-Belmonte-(DOT009)-WEB-2019-BF
2019-11-10 16:20:29 Biopic.Rhapsody.Le.Docu.2019.DOC.FRENCH.1080p.HDTV.H264-DEAL
2019-11-10 16:20:39 Fabiolous_Barker-Tatsuro_Rocks-(GAN024)-WEB-2019-BF
2019-11-10 16:20:40 BiGuysFuck.19.11.01.Adam.Von.Andre.Willis.Jacob.Booker.And.Monica.Scott.XXX.1080p.MP4-WEIRD
2019-11-10 16:21:17 Phunkadelica-Pensiero_Stupendo-(MULTINOTES12)-WEB-2019-BF
2019-11-10 16:21:42 BiGuysFuck.19.11.08.Bryce.Beckett.Robbie.Valentine.And.Veronica.Mendoza.XXX.1080p.MP4-WEIRD
2019-11-10 16:21:54 Mark_Francis_And_Kia_Stewart-Life_Lessons_(The_Remixes)-(QTZ263)-WEB-2019-BF
2019-11-10 16:22:38 Dublin.Murders.S01E01.FRENCH.720p.WEBRip.x264-BRiNK
2019-11-10 16:22:46 BruceAndMorgan.19.11.01.Cumshot.Compilation.3.XXX.1080p.MP4-WEIRD
2019-11-10 16:23:11 Les.Grandes.Familles.1958.FRENCH.COMPLETE.BLURAY-RAiEBLEUE
2019-11-10 16:23:18 VA-Best_Of_Silk_Entertainment_Vol_1-(SSR1901800)-WEB-2019-BF
2019-11-10 16:23:49 BruceAndMorgan.19.11.08.Condom.Drink.XXX.1080p.MP4-WEIRD
2019-11-10 16:24:18 Biopic.Rhapsody.Le.Docu.2019.DOC.FRENCH.720p.HDTV.x264-DEAL
2019-11-10 16:24:51 GirlsRimming.19.10.27.Allatra.Hot.Practice.Makes.The.Master.XXX.1080p.MP4-WEIRD
2019-11-10 16:25:16 Biopic.Rhapsody.Le.Doc.2019.iNTERNAL.DOC.FRENCH.720p.WEB.H264-SH0W
2019-11-10 16:25:19 Biopic.Rhapsody.Le.Doc.2019.iNTERNAL.DOC.FRENCH.WEB.H264-SH0W
2019-11-10 16:25:49 Groove_Armada-The_Best_Of-(EDSL0046)-2CD-2019-BF
2019-11-10 16:25:53 GirlsRimming.19.11.02.Gina.Gerson.No.Tricks.Only.Treats.XXX.1080p.MP4-WEIRD
2019-11-10 16:26:35 Sulati-Sensiz-SINGLE-WEB-2019-KLIN
2019-11-10 16:26:55 GirlsRimming.19.11.09.Lina.Luxa.One.Big.Step.XXX.1080p.MP4-WEIRD
2019-11-10 16:26:58 VA-Disco_Radio_Winter_Compilation_2019-(19075993692)-2CD-2019-BF
2019-11-10 16:27:56 HotGuysFuck.19.10.28.Brad.Ranger.And.Kristen.Wolf.XXX.1080p.MP4-WEIRD
2019-11-10 16:28:59 HotGuysFuck.19.11.01.Mason.Skyy.And.Destiny.Mira.XXX.1080p.MP4-WEIRD
2019-11-10 16:29:19 Tangerine.Dream.at.Coventry.Cathedral.1975.2019.DiRFiX.720p.MBluRay.x264-D2HVDV
2019-11-10 16:30:02 HotGuysFuck.19.11.04.Jayden.Marcos.And.Isabel.Moon.XXX.1080p.MP4-WEIRD
2019-11-10 16:30:03 Tangerine.Dream.at.Coventry.Cathedral.1975.2019.DiRFiX.1080p.MBluRay.x264-D2HVDV
2019-11-10 16:30:09 Black_Magic_Flower_Power-Born_To_Be_Alive-(829707_985218)-SINGLE-WEB-2019-BF
2019-11-10 16:30:48 Frozen.Il.Regno.Di.Ghiaccio.2013.iTALiAN.BDRip.x264-ROMEO
2019-11-10 16:31:03 HotGuysFuck.19.11.08.Mani.Storms.And.Kristen.Wolf.XXX.1080p.MP4-WEIRD
2019-11-10 16:32:05 HuCows.19.11.02.Mira.First.Time.XXX.1080p.MP4-WEIRD
2019-11-10 16:32:08 Frozen.Il.Regno.Di.Ghiaccio.2013.iTALiAN.MULTi.720p.BluRay.x264-ROMEO
2019-11-10 16:33:07 HuCows.19.11.09.Darina.Milking.Bed.Fun.XXX.1080p.MP4-WEIRD
2019-11-10 16:33:47 Interieur.Sport.A.Corps.Perdu.2019.DOC.FRENCH.1080p.HDTV.H264-DEAL
2019-11-10 16:34:08 MissaX.19.10.22.Alex.Blake.Dont.Say.A.Word.Act.2.XXX.1080p.MP4-WEIRD
2019-11-10 16:34:47 B4O-The_Rabbit_Hole-SINGLE-WEB-2019-KLIN
2019-11-10 16:35:10 MissaX.19.10.26.Dana.Dearmond.A.Trick.And.A.Treat.XXX.1080p.MP4-WEIRD
2019-11-10 16:35:20 Dublin.Murders.S01E01.FRENCH.WEBRip.x264-BRiNK
2019-11-10 16:35:36 Discovering.Music.S02E03.David.Bowie.720p.HDTV.x264-LiNKLE
2019-11-10 16:35:48 Igor_Garnier-Ride-SINGLE-WEB-2019-KLIN
2019-11-10 16:37:16 Interieur.Sport.A.Corps.Perdu.2019.DOC.FRENCH.720p.HDTV.x264-DEAL
2019-11-10 16:40:49 Frozen.Il.Regno.Di.Ghiaccio.2013.iTALiAN.MULTi.1080p.BluRay.x264-ROMEO
2019-11-10 16:42:09 Nigma-Jaguar-SINGLE-WEB-2019-KLIN
2019-11-10 16:43:12 A_S_Gomez-Batallando-SINGLE-WEB-2019-KLIN
2019-11-10 16:43:34 L.Equipe.Enquete.Bernard.Tapie.L.Affranchi.2019.DOC.FRENCH.720p.HDTV.x264-DEAL
2019-11-10 16:43:44 Novels.That.Shaped.Our.World.S01E01.A.Womans.Place.720p.HDTV.x264-LiNKLE
2019-11-10 16:44:04 Caff-Happy-SINGLE-WEB-2019-KLIN
2019-11-10 16:48:50 VA-Bernhard_Brink_Praesentiert_Die_Schlager_Hitparade_2020-2CD-WEB-DE-2019-NOiCE_INT
2019-11-10 16:50:07 Joey_Baron_Bram_De_Looze_Robin_Verheyen-Mixmonk-CD-2019-DDS
2019-11-10 16:51:38 Robert_Forster-Inferno-CD-2019-DDS
2019-11-10 16:51:52 Koda_Sadok-Brillo-SINGLE-WEB-2019-KLIN
2019-11-10 16:52:39 Indian.Summers.S02E08.FRENCH.720p.HDTV.x264-SH0W
2019-11-10 16:52:51 Noks-Amsterdam-WEB-2019-KLIN
2019-11-10 16:53:06 Steiger-Give_Space-CD-2018-DDS
2019-11-10 16:53:45 Tie_Kez-Truth_Becomes_Truth-WEB-2019-KLIN
2019-11-10 16:53:55 Breakin.1984.German.DL.1080p.BluRay.AVC-AVCiHD
2019-11-10 16:54:08 Berlin.-.Schicksalsjahre.einer.Stadt.S03E08.Das.Jahr.1987.GERMAN.DOKU.HDTVRiP.x264-BTVG
2019-11-10 16:54:09 Pete.Holmes.Dirty.Clean.2018.SUBFRENCH.HDTV.x264-HYBRiS
2019-11-10 16:54:30 Pete.Holmes.Dirty.Clean.2018.SUBFRENCH.720p.HDTV.x264-HYBRiS
2019-11-10 16:54:52 Pete.Holmes.Dirty.Clean.2018.SUBFRENCH.1080p.HDTV.H264-HYBRiS
2019-11-10 17:03:25 Hansa.Studios.By.The.Wall.1976-90.2017.720p.HDTV.x264-LiNKLE
2019-11-10 17:04:57 Dark.Side.Of.The.Ring.S01E01.The.Match.Made.In.Heaven.DOC.FRENCH.1080p.HDTV.H264-DEAL
2019-11-10 17:07:07 Dark.Side.Of.The.Ring.S01E01.The.Match.Made.In.Heaven.DOC.FRENCH.720p.HDTV.x264-DEAL
2019-11-10 17:09:56 The_New_Madonnas-Burning_Bridge-SINGLE-WEB-2019-KLIN
2019-11-10 17:10:22 Dark.Side.Of.The.Ring.S01E02.The.Montreal.Screwjob.DOC.FRENCH.1080p.HDTV.H264-DEAL
2019-11-10 17:10:42 Cosiga-Sacrafice-SINGLE-WEB-2019-KLIN
2019-11-10 17:12:22 Dark.Side.Of.The.Ring.S01E02.The.Montreal.Screwjob.DOC.FRENCH.720p.HDTV.x264-DEAL
2019-11-10 17:13:46 Free.To.Rock.How.Rock.And.Roll.Brought.Down.The.Wall.2017.720p.HDTV.x264-LiNKLE
2019-11-10 17:13:47 Without.a.Trace.S01E09.MULTi.1080p.HDTV.H264-AMB3R
2019-11-10 17:13:53 Without.a.Trace.S01E10.MULTi.1080p.HDTV.H264-AMB3R
2019-11-10 17:14:56 Sons.Of.Vienna.S01E02.720p.HDTV.x264-LiNKLE
2019-11-10 17:14:57 Holed.19.11.10.Ember.Snow.Hentai.Fantasy.XXX.1080p.MP4-KTR
2019-11-10 17:15:37 Dark.Side.Of.The.Ring.S01E03.The.Killing.of.Bruiser.Brody.DOC.FRENCH.1080p.HDTV.H264-DEAL
2019-11-10 17:16:57 SpyFam.19.11.10.Vina.Sky.Squirting.Stepsisters.Secret.XXX.1080p.MP4-KTR
2019-11-10 17:17:24 Dark.Side.Of.The.Ring.S01E03.The.Killing.of.Bruiser.Brody.DOC.FRENCH.720p.HDTV.x264-DEAL
2019-11-10 17:20:36 Spider-Man.Far.From.Home.2019.PLDUB.BDRip.x264-FLAME
2019-11-10 17:20:43 Elizabeth.1998.NORDiC.SUBPACK.HDDVD-TTD
2019-11-10 17:21:03 Dark.Side.Of.The.Ring.S01E04.The.Last.Of.The.Von.Erichs.DOC.FRENCH.1080p.HDTV.H264-DEAL
2019-11-10 17:21:20 Spider-Man.Far.From.Home.2019.PLDUB.DUAL.720p.BluRay.x264-FLAME
2019-11-10 17:21:42 Der.Honorarkonsul.1983.German.DL.1080p.BluRay.AVC-AVCiHD
2019-11-10 17:21:46 Spider-Man.Far.From.Home.2019.PLDUB.DUAL.1080p.BluRay.x264-FLAME
2019-11-10 17:23:03 VA-Chartboxx_8-2019-WEB-2019-NOiCE_INT
2019-11-10 17:23:06 Dark.Side.Of.The.Ring.S01E04.The.Last.Of.The.Von.Erichs.DOC.FRENCH.720p.HDTV.x264-DEAL
2019-11-10 17:24:34 NCIS.New.Orleans.S05E09.Zwei.Familien.GERMAN.DL.1080p.WEBRiP.x264-OCA
2019-11-10 17:24:59 Before.the.Fall.2004.720p.BluRay.x264-USURY
2019-11-10 17:25:00 Super.Gidget.2019.BDRip.x264-FLAME
2019-11-10 17:25:13 NCIS.New.Orleans.S05E09.Zwei.Familien.GERMAN.DL.720p.WEBRiP.x264-OCA
2019-11-10 17:25:20 Haandbold.Champions.League.Kvinder.2019.11.10.Dinamo.Bucuresti.vs.Team.Esbjerg.DANiSH.720p.WEB.h264-DANES
2019-11-10 17:25:30 Super.Gidget.2019.720p.BluRay.x264-FLAME
2019-11-10 17:25:45 NCIS.New.Orleans.S05E09.Zwei.Familien.GERMAN.DL.WEBRiP.x264-OCA
2019-11-10 17:25:48 Ruben_de_Ronde_-_The_Sound_of_Holland-SAT-11-10-2019-TALiON
2019-11-10 17:25:49 Super.Gidget.2019.1080p.BluRay.x264-FLAME
2019-11-10 17:26:07 Dark.Side.Of.The.Ring.S01E05.The.Mysterious.Death.Of.Gorgeous.Gino.DOC.FRENCH.1080p.HDTV.H264-DEAL
2019-11-10 17:27:11 Dodesukaden.1970.720p.BluRay.x264-USURY
2019-11-10 17:27:52 NCIS.Los.Angeles.S10E20.GERMAN.DUBBED.WEBRiP.x264-idTV
2019-11-10 17:27:57 Dark.Side.Of.The.Ring.S01E05.The.Mysterious.Death.Of.Gorgeous.Gino.DOC.FRENCH.720p.HDTV.x264-DEAL
2019-11-10 17:28:05 NCIS.Los.Angeles.S10E20.GERMAN.DUBBED.720p.WEB.h264-idTV
2019-11-10 17:28:27 NCIS.Los.Angeles.S10E20.GERMAN.DL.DUBBED.1080p.WEB.h264-VoDTv
2019-11-10 17:29:21 Magical.Girl.2014.720p.BluRay.x264-USURY
2019-11-10 17:29:34 Holed.19.11.10.Ember.Snow.Hentai.Fantasy.XXX.2160p.MP4-KTR
2019-11-10 17:30:23 Power.Rangers.S26E09.720p.HDTV.x264-W4F
2019-11-10 17:30:26 Power.Rangers.S26E09.HDTV.x264-W4F
2019-11-10 17:30:27 Super.Gidget.2019.PLDUB.BDRip.x264-FLAME
2019-11-10 17:31:05 Super.Gidget.2019.PLDUB.DUAL.720p.BluRay.x264-FLAME
2019-11-10 17:31:08 Dark.Side.Of.The.Ring.S01E06.The.Fabulous.Moolah.FiNAL.DOC.FRENCH.1080p.HDTV.H264-DEAL
2019-11-10 17:31:27 Super.Gidget.2019.PLDUB.DUAL.1080p.BluRay.x264-FLAME
2019-11-10 17:31:32 Menashe.2017.720p.BluRay.x264-USURY
2019-11-10 17:32:53 Dark.Side.Of.The.Ring.S01E06.The.Fabulous.Moolah.FiNAL.DOC.FRENCH.720p.HDTV.x264-DEAL
2019-11-10 17:33:11 Drival_and_Andromeda-Fade_Away-(UN084)-WEB-2019-AFO_INT
2019-11-10 17:33:20 KUNERT-Boracay-(UN070)-SINGLE-WEB-2018-AFO_INT
2019-11-10 17:33:30 Ultimate_Dimension-Welcome_to_the_Ultimate_Dimension-(UN042)-SINGLE-WEB-2017-AFO_INT
2019-11-10 17:33:37 SpyFam.19.11.10.Vina.Sky.Squirting.Stepsisters.Secret.XXX.2160p.MP4-KTR
2019-11-10 17:33:41 Aimoon_and_Saint_Sinners-Alpha_Centauri-(UN085)-SINGLE-WEB-2019-AFO_INT
2019-11-10 17:33:49 The.Silent.Revolution.2018.720p.BluRay.x264-USURY
2019-11-10 17:33:52 Dark_Fusion_Ft_Kim_Kiona-Only_in_Heaven-(UN078)-SINGLE-WEB-2018-AFO_INT
2019-11-10 17:34:01 Kristy_Jay-Dark_Horse-(UN093)-SINGLE-WEB-2019-AFO_INT
2019-11-10 17:34:11 Kristy_Jay-Unleashed-(UN083)-SINGLE-WEB-2019-AFO_INT
2019-11-10 17:34:21 Serjoe-Trinity_(Extended_Mix)-(UN091)-SINGLE-WEB-2019-AFO_INT
2019-11-10 17:34:33 Woody_Van_Eyden_and_Gil_Zambrano_with_Cheryl_Barnes-Embrace_the_Rainbow-(UN081)-WEB-2019-AFO_INT
2019-11-10 17:34:43 Alex_and_Ontune-Hard_Lag-(UN101)-SINGLE-WEB-2019-AFO_INT
2019-11-10 17:34:54 DJ_T.H_INT.-Everything-(UN095)-SINGLE-WEB-2019-AFO
2019-11-10 17:35:08 Jackob_Rocksonn-Monsters-(UN062)-SINGLE-WEB-2018-AFO_INT
2019-11-10 17:35:17 Nadi_Sunrise-Soul_of_A_Unicorn-(UN097)-SINGLE-WEB-2019-AFO_INT
2019-11-10 17:35:28 Kiyoi_and_Eky-Forgiveness_(Extended_Mix)-(UN064)-SINGLE-WEB-2018-AFO_INT
2019-11-10 17:35:43 Fourmula-Life-(UN099)-SINGLE-WEB-2019-AFO_INT
2019-11-10 17:35:52 Under.the.Sand.2000.720p.BluRay.x264-USURY
2019-11-10 17:35:54 Pablo_Montana-The_Hills_of_La_Coruna-(UN063)-SINGLE-WEB-2018-AFO_INT
2019-11-10 17:36:00 Charmed.S06E11.FRENCH.720p.HDTV.x264-HYBRiS
2019-11-10 17:36:03 Talla_2xlc-Strike-(UN098)-SINGLE-WEB-2019-AFO_INT
2019-11-10 17:36:14 Nadi_Sunrise_Ft_Kate_Miles-Fear_the_Pain-(UN086)-SINGLE-WEB-2019-AFO_INT
2019-11-10 17:36:22 Charmed.S06E11.MULTi.1080p.HDTV.H264-HYBRiS
2019-11-10 17:36:25 Quantor-Red-(UN096)-SINGLE-WEB-2019-AFO_INT
2019-11-10 17:36:35 Kiyoi_and_Eky-Smile_Like_You-(UN072)-SINGLE-WEB-2018-AFO_INT
2019-11-10 17:36:45 Last_Soldier-Towards_Heaven-(UN094)-SINGLE-WEB-2019-AFO_INT
2019-11-10 17:36:46 Charmed.S06E11.REMASTERED.FRENCH.HDTV.x264-HYBRiS
2019-11-10 17:36:55 Last_Soldier_and_Sajjad_Zakaria-Invincible-(UN087)-SINGLE-WEB-2019-AFO_INT
2019-11-10 17:37:05 Charmed.S06E12.FRENCH.720p.HDTV.x264-HYBRiS
2019-11-10 17:37:06 Last_Soldier_and_MOHSENIRANIKHAH-Kush_Dreams-(UN082)-SINGLE-WEB-2019-AFO_INT
2019-11-10 17:37:19 Last_Soldier_and_Ramin_Arab-Ronika-(UN074)-SINGLE-WEB-2018-AFO_INT
2019-11-10 17:37:27 Charmed.S06E12.MULTi.1080p.HDTV.H264-HYBRiS
2019-11-10 17:37:47 Charmed.S06E12.REMASTERED.FRENCH.HDTV.x264-HYBRiS
2019-11-10 17:38:02 When.the.Last.Sword.Is.Drawn.2002.720p.BluRay.x264-USURY
2019-11-10 17:38:06 Charmed.S06E13.FRENCH.720p.HDTV.x264-HYBRiS
2019-11-10 17:38:22 Alfredo_Rodriguez_And_Pedrito_Martinez-Live_At_Jazz_Sous_Les_Pommiers_(2019-05-31)-1080p-x264-2019-gFViD
2019-11-10 17:38:27 Charmed.S06E13.MULTi.1080p.HDTV.H264-HYBRiS
2019-11-10 17:38:49 Charmed.S06E13.REMASTERED.FRENCH.HDTV.x264-HYBRiS
2019-11-10 17:39:08 Charmed.S06E14.FRENCH.720p.HDTV.x264-HYBRiS
2019-11-10 17:39:30 Charmed.S06E14.MULTi.1080p.HDTV.H264-HYBRiS
2019-11-10 17:39:33 Alain-Kiss_Me-SINGLE-WEB-2019-KLIN
2019-11-10 17:39:51 Charmed.S06E14.REMASTERED.FRENCH.HDTV.x264-HYBRiS
2019-11-10 17:40:11 Charmed.S06E15.FRENCH.720p.HDTV.x264-HYBRiS
2019-11-10 17:40:13 VA-Brother_Louis_Yearmix_2019-BOOTLEG-WEB-2019-NOiCE_INT
2019-11-10 17:40:32 Charmed.S06E15.MULTi.1080p.HDTV.H264-HYBRiS
2019-11-10 17:40:35 Bigmoo-The_Afterlife-SINGLE-WEB-2019-KLIN
2019-11-10 17:40:55 Charmed.S06E15.REMASTERED.FRENCH.HDTV.x264-HYBRiS
2019-11-10 17:41:16 Charmed.S06E16.FRENCH.720p.HDTV.x264-HYBRiS
2019-11-10 17:41:17 Art.of.War.2.Der.Verrat.2008.German.DL.AC3.Dubbed.1080p.HDTV.x264-muhHD
2019-11-10 17:41:24 Lost_Pr3Acher-Demise_Of_A_Stalker-WEB-2019-KLIN
2019-11-10 17:41:37 Charmed.S06E16.MULTi.1080p.HDTV.H264-HYBRiS
2019-11-10 17:41:58 Charmed.S06E16.REMASTERED.FRENCH.HDTV.x264-HYBRiS
2019-11-10 17:42:09 Waverokr-Aural-SINGLE-WEB-2019-KLIN
2019-11-10 17:42:17 Calabacitas.Tiernas.1949.720p.BluRay.x264-BiPOLAR
2019-11-10 17:42:44 Before.the.Fall.2004.1080p.BluRay.x264-USURY
2019-11-10 17:43:02 Dj_Blunchi-The_Bloody_Truth-SINGLE-WEB-2019-KLIN
2019-11-10 17:43:28 Alfredo_Rodriguez_And_Pedrito_Martinez-Live_At_Jazz_Sous_Les_Pommiers_(2019-05-31)-720p-x264-2019-gFViD
2019-11-10 17:43:58 Art.of.War.2.Der.Verrat.2008.German.DL.AC3.Dubbed.720p.HDTV.x264.INTERNAL-muhHD
2019-11-10 17:43:59 Rousing_House-Classical-WEB-2019-KLIN
2019-11-10 17:44:36 Gabriel.and.the.Mountain.2017.720p.BluRay.x264-BiPOLAR
2019-11-10 17:45:01 Pancrase.310.WEB.H264-LEViTATE
2019-11-10 17:45:09 Inspira-Fallen-SINGLE-WEB-2019-KLIN
2019-11-10 17:45:42 Pancrase.310.720p.WEB.H264-LEViTATE
2019-11-10 17:46:36 Kacper_Hta-Silesia-SINGLE-WEB-2019-KLIN
2019-11-10 17:46:54 Dodesukaden.1970.1080p.BluRay.x264-USURY
2019-11-10 17:47:20 Here.Is.the.Point.1940.720p.BluRay.x264-BiPOLAR
2019-11-10 17:49:12 Alfredo_Rodriguez_And_Pedrito_Martinez-Live_At_Jazz_Sous_Les_Pommiers_(2019-05-31)-x264-2019-gFViD
2019-11-10 17:49:37 Auf.der.Suche.nach.dem.Goldenen.Kind.1986.German.DL.DUBBED.1080p.WEB.h264.INTERNAL-muhHD
2019-11-10 17:50:33 Let.It.Rain.2008.720p.BluRay.x264-BiPOLAR
2019-11-10 17:50:58 Sage.100C.Gestion.Commerciale.v6.00.Multilingual.Incl.Keygen-NGEN
2019-11-10 17:51:07 Magical.Girl.2014.1080p.BluRay.x264-USURY
2019-11-10 17:51:53 Auf.der.Suche.nach.dem.Goldenen.Kind.1986.German.DL.DUBBED.720p.WEB.h264.INTERNAL-muhHD
2019-11-10 17:52:56 Picnic.on.the.Grass.1959.720p.BluRay.x264-BiPOLAR
2019-11-10 17:54:35 Fettes_Brot-Live_At_Deichbrand_Festival_(2019-07-19)-DE-1080p-x264-2019-gFViD
2019-11-10 17:55:06 Salon.Mexico.1949.720p.BluRay.x264-BiPOLAR
2019-11-10 17:55:20 Menashe.2017.1080p.BluRay.x264-USURY
2019-11-10 17:57:18 Fetid_Zombie-Death_Covenant-EP-WEB-2019-FiH
2019-11-10 17:57:42 The.Sniffer.3x05.720p.HDTV.x264.CZ-SDTV
2019-11-10 17:58:10 Thats.My.Man.1947.720p.BluRay.x264-BiPOLAR
2019-11-10 18:00:12 Fettes_Brot-Live_At_Deichbrand_Festival_(2019-07-19)-DE-720p-x264-2019-gFViD
2019-11-10 18:00:38 DJ_T.H.-Everything-(UN095)-SINGLE-WEB-2019-AFO_INT
2019-11-10 18:00:52 The.Silent.Revolution.2018.1080p.BluRay.x264-USURY
2019-11-10 18:01:09 The.Tobacconist.2018.720p.BluRay.x264-BiPOLAR
2019-11-10 18:01:32 Alex_Brend-Eurogate-WEB-2019-KLIN
2019-11-10 18:01:44 Rubur-True_Bypass-WEB-CN-2016-TosK
2019-11-10 18:01:52 Rubur-Evening_Sitdown_Vision-WEB-CN-2019-TosK
2019-11-10 18:02:02 SeanT-Colors-WEB-CN-2019-TosK
2019-11-10 18:02:37 Lee_West-Rise-SINGLE-WEB-2019-KLIN
2019-11-10 18:03:40 Miklavcic-Low_Oxygen-SINGLE-WEB-2019-KLIN
2019-11-10 18:03:49 Una.Familia.de.Tantas.1949.720p.BluRay.x264-BiPOLAR
2019-11-10 18:05:04 Under.the.Sand.2000.1080p.BluRay.x264-USURY
2019-11-10 18:05:31 Fettes_Brot-Live_At_Deichbrand_Festival_(2019-07-19)-DE-x264-2019-gFViD
2019-11-10 18:06:02 Under.the.Bridges.1946.720p.BluRay.x264-BiPOLAR
2019-11-10 18:06:55 Cartel_Madras-Age_Of_The_Goonda-PROMO-CDEP-FLAC-2019-HOUND
2019-11-10 18:07:08 Noisia_-_Noisia_Radio_S05E45__IMANU_Takeover-CABLE-11-06-2019-TALiON
2019-11-10 18:07:12 Athena_Hill-Emilie-SINGLE-WEB-2019-KLIN
2019-11-10 18:07:42 Cartel_Madras-Age_Of_The_Goonda-PROMO-CDEP-2019-FANG
2019-11-10 18:08:01 Kryder_-_Kryteria_211-CABLE-11-07-2019-TALiON
2019-11-10 18:08:12 Calabacitas.Tiernas.1949.1080p.BluRay.x264-BiPOLAR
2019-11-10 18:08:16 Die.Rhone.-.Von.den.Schweizer.Alpen.in.die.Camargue.GERMAN.DOKU.WS.HDTVRip.x264-Pumuck
2019-11-10 18:09:01 Bingo_Players_-_Hysteria_Radio_188-SAT-11-09-2019-TALiON
2019-11-10 18:09:35 When.the.Last.Sword.Is.Drawn.2002.1080p.BluRay.x264-USURY
2019-11-10 18:10:01 Pasquale_Rotella_-_Night_Owl_Radio_221__Dreamstate_SoCal_Mega-Mix-SAT-11-08-2019-TALiON
2019-11-10 18:10:06 Die.Schweiz.von.oben.-.Vom.Zauber.der.Alpenrepublik.GERMAN.DOKU.WS.HDTVRip.x264-Pumuck
2019-11-10 18:10:17 Dj_Odilon-Neon-SINGLE-WEB-2019-KLIN
2019-11-10 18:11:02 Paul_van_Dyk_-_VONYC_Sessions_679__Incl_Chris_Element_Guestmix-SAT-11-10-2019-TALiON
2019-11-10 18:11:08 The_Dubbhertz-So_High-SINGLE-WEB-2019-KLIN
2019-11-10 18:11:19 Snarky_Puppy-Live_At_Lolympia_Paris_(2017-05-18)-1080p-x264-2017-gFViD
2019-11-10 18:11:54 Nik_Thrine-Riptide-WEB-2019-KLIN
2019-11-10 18:12:12 Geheimnis.Gletscher.-.Spurensuche.im.Eis.GERMAN.DOKU.720p.HDTV.x264-Pumuck
2019-11-10 18:12:39 Jhas-The_Ghost-SINGLE-WEB-2019-KLIN
2019-11-10 18:12:40 Gabriel.and.the.Mountain.2017.1080p.BluRay.x264-BiPOLAR
2019-11-10 18:13:03 Andrew_Rayel_-_Find_Your_Harmony_179-SAT-11-10-2019-TALiON
2019-11-10 18:13:28 Eleksoul-Legend-WEB-2019-KLIN
2019-11-10 18:14:04 Geheimnis.Gletscher.-.Spurensuche.im.Eis.GERMAN.DOKU.WS.HDTVRip.x264-Pumuck
2019-11-10 18:14:15 Marco_Lucarini-Kronos-SINGLE-WEB-2019-KLIN
2019-11-10 18:14:39 Disney_Tsum_Tsum_Festival_DLC_Unlocker_NSW-VENOM
2019-11-10 18:15:01 Marc_Werner-Temporary-WEB-2019-KLIN
2019-11-10 18:15:08 11.x.14.1977.DVDRip.x264-BiPOLAR
2019-11-10 18:15:19 19-2.S03D01.COMPLETE.QC.BLURAY-COJONUDO
2019-11-10 18:15:55 Stephan_Crown-Mexicana-SINGLE-WEB-2019-KLIN
2019-11-10 18:16:07 Wenn.die.Rohstoffe.knapp.werden.-.Bauen.mit.Schutt.GERMAN.DOKU.720p.HDTV.x264-Pumuck
2019-11-10 18:16:21 Wrestling.Theology.Fellowship.In.Your.Face.2019.1080p.WEB.H264-LEViTATE
2019-11-10 18:16:25 Here.Is.the.Point.1940.1080p.BluRay.x264-BiPOLAR
2019-11-10 18:16:44 Ronees-Goodbye_City-SINGLE-WEB-2019-KLIN
2019-11-10 18:16:48 Snarky_Puppy-Live_At_Lolympia_Paris_(2017-05-18)-720p-x264-2017-gFViD
2019-11-10 18:16:50 American.Dreams.Lost.and.Found.1984.DVDRip.x264-BiPOLAR
2019-11-10 18:16:53 19-2.S03D02.COMPLETE.QC.BLURAY-COJONUDO
2019-11-10 18:16:55 Wrestling.Theology.Fellowship.In.Your.Face.2019.720p.WEB.H264-LEViTATE
2019-11-10 18:17:30 Wrestling.Theology.Fellowship.In.Your.Face.2019.WEB.H264-LEViTATE
2019-11-10 18:17:32 Sharan_Yavagal-Bring_It_Back-SINGLE-WEB-2019-KLIN
2019-11-10 18:18:04 Wrestling.Theology.Fellowship.Independence.2019.1080p.WEB.H264-LEViTATE
2019-11-10 18:18:10 Trespassed_And_Spitnoise_-_Hands_Up-(RSR033)-SINGLE-WEB-2019-SRG
2019-11-10 18:18:16 Wenn.die.Rohstoffe.knapp.werden.-.Bauen.mit.Schutt.GERMAN.DOKU.WS.HDTVRip.x264-Pumuck
2019-11-10 18:18:21 Zedkleinberg-Illusion-SINGLE-WEB-2019-KLIN
2019-11-10 18:18:30 Be.Natural.The.Untold.Story.of.Alice.Guy-Blache.2018.DVDRip.x264-BiPOLAR
2019-11-10 18:18:39 Wrestling.Theology.Fellowship.Independence.2019.720p.WEB.H264-LEViTATE
2019-11-10 18:18:59 Spiderman.Far.from.Home.2019.German.DL.1080p.BluRay.AVC-AVC4D
2019-11-10 18:19:05 Mero-Giogra-WEB-2019-KLIN
2019-11-10 18:19:13 Wrestling.Theology.Fellowship.Independence.2019.WEB.H264-LEViTATE
2019-11-10 18:19:49 Wrestling.Theology.Fellowship.Reckless.2019.1080p.WEB.H264-LEViTATE
2019-11-10 18:19:51 19-2.S03E01.FRENCH.BDRip.x264-THiNK
2019-11-10 18:19:52 Calabacitas.Tiernas.1949.BDRip.x264-BiPOLAR
2019-11-10 18:20:06 19-2.S03E02.FRENCH.BDRip.x264-THiNK
2019-11-10 18:20:22 19-2.S03E03.FRENCH.BDRip.x264-THiNK
2019-11-10 18:20:23 Wrestling.Theology.Fellowship.Reckless.2019.720p.WEB.H264-LEViTATE
2019-11-10 18:20:38 19-2.S03E04.FRENCH.BDRip.x264-THiNK
2019-11-10 18:20:56 19-2.S03E05.FRENCH.BDRip.x264-THiNK
2019-11-10 18:20:57 Let.It.Rain.2008.1080p.BluRay.x264-BiPOLAR
2019-11-10 18:21:00 Wrestling.Theology.Fellowship.Reckless.2019.WEB.H264-LEViTATE
2019-11-10 18:21:34 Wrestling.Theology.Fellowship.Theyre.Game.2019.1080p.WEB.H264-LEViTATE
2019-11-10 18:21:45 Casting.a.Glance.2007.DVDRip.x264-BiPOLAR
2019-11-10 18:22:08 Wrestling.Theology.Fellowship.Theyre.Game.2019.WEB.H264-LEViTATE
2019-11-10 18:22:44 Wrestling.Theology.Fellowship.Unshakable.2019.1080p.WEB.H264-LEViTATE
2019-11-10 18:23:00 Snarky_Puppy-Live_At_Lolympia_Paris_(2017-05-18)-x264-2017-gFViD
2019-11-10 18:23:08 Deseret.1995.DVDRip.x264-BiPOLAR
2019-11-10 18:23:17 Wrestling.Theology.Fellowship.Unshakable.2019.WEB.H264-LEViTATE
2019-11-10 18:24:08 Picnic.on.the.Grass.1959.1080p.BluRay.x264-BiPOLAR
2019-11-10 18:24:38 El.Valley.Centro.1999.DVDRip.x264-BiPOLAR
2019-11-10 18:25:13 Ask.Video.Audacity.101.Audacity.The.Video.Manual.TUTORiAL-ADSR
2019-11-10 18:25:22 Melbourne_Zoo-Melbourne_Zoo-WEB-2019-ENRiCH
2019-11-10 18:25:55 Alle.Suenden.S01E01.German.1080p.WEB.x264-WvF
2019-11-10 18:26:01 Errementari.2017.BDRip.x264-BiPOLAR
2019-11-10 18:26:03 19-2.S03E06.FRENCH.BDRip.x264-THiNK
2019-11-10 18:26:04 Dj_Vincenzini-Road_Star_Man-WEB-2019-KLIN
2019-11-10 18:26:19 19-2.S03E07.FRENCH.BDRip.x264-THiNK
2019-11-10 18:26:36 19-2.S03E08.FRENCH.BDRip.x264-THiNK
2019-11-10 18:26:52 19-2.S03E09.FRENCH.BDRip.x264-THiNK
2019-11-10 18:27:10 19-2.S03E10.FiNAL.FRENCH.BDRip.x264-THiNK
2019-11-10 18:28:01 Fire.and.Rain.2009.DVDRip.x264-BiPOLAR
2019-11-10 18:28:21 Alle.Suenden.S01E01.German.720p.WEB.x264-WvF
2019-11-10 18:28:22 Four.Corners.1998.DVDRip.x264-BiPOLAR
2019-11-10 18:29:38 Hold.Back.the.Dawn.1941.BDRip.x264-BiPOLAR
2019-11-10 18:29:50 Salon.Mexico.1949.1080p.BluRay.x264-BiPOLAR
2019-11-10 18:30:42 Leicht.wie.eine.Feder.S02E01.German.1080p.WEB.x264-WvF
2019-11-10 18:32:12 Leicht.wie.eine.Feder.S02E01.German.720p.WEB.x264-WvF
2019-11-10 18:32:14 James.Benning.Circling.the.Image.2003.DVDRip.x264-BiPOLAR
2019-11-10 18:33:43 Landscape.Suicide.1987.DVDRip.x264-BiPOLAR
2019-11-10 18:33:53 19-2.S03E01.FRENCH.1080p.BluRay.x264-THiNK
2019-11-10 18:34:55 19-2.S03E02.FRENCH.1080p.BluRay.x264-THiNK
2019-11-10 18:35:04 Los.2001.DVDRip.x264-BiPOLAR
2019-11-10 18:35:24 Thats.My.Man.1947.1080p.BluRay.x264-BiPOLAR
2019-11-10 18:35:55 19-2.S03E03.FRENCH.1080p.BluRay.x264-THiNK
2019-11-10 18:37:00 VA-You_Are_the_Cosmos-CD-FLAC-2019-MUNDANE
2019-11-10 18:37:01 19-2.S03E04.FRENCH.1080p.BluRay.x264-THiNK
2019-11-10 18:37:05 Lost.Ones.2018.DVDRip.x264-BiPOLAR
2019-11-10 18:37:38 VA-You_Are_the_Cosmos-2019-VULGAR
2019-11-10 18:37:57 19-2.S03E05.FRENCH.1080p.BluRay.x264-THiNK
2019-11-10 18:38:08 Menashe.2017.BDRip.x264-BiPOLAR
2019-11-10 18:39:01 Brottsjournalen.S03E01.SWEDiSH.1080p.WEB.x264-NORUSH
2019-11-10 18:39:03 19-2.S03E06.FRENCH.1080p.BluRay.x264-THiNK
2019-11-10 18:39:14 Natural.History.2014.DVDRip.x264-BiPOLAR
2019-11-10 18:39:22 Brottsjournalen.S03E03.SWEDiSH.1080p.WEB.x264-NORUSH
2019-11-10 18:39:31 Brottsjournalen.S03E03.SWEDiSH.720p.WEB.x264-NORUSH
2019-11-10 18:39:40 Brottsjournalen.S03E04.SWEDiSH.1080p.WEB.x264-NORUSH
2019-11-10 18:39:42 The.Tobacconist.2018.1080p.BluRay.x264-BiPOLAR
2019-11-10 18:39:49 Brottsjournalen.S03E04.SWEDiSH.720p.WEB.x264-NORUSH
2019-11-10 18:39:59 Brottsjournalen.S03E05.SWEDiSH.1080p.WEB.x264-NORUSH
2019-11-10 18:40:00 19-2.S03E07.FRENCH.1080p.BluRay.x264-THiNK
2019-11-10 18:40:13 Brottsjournalen.S03E05.SWEDiSH.720p.WEB.x264-NORUSH
2019-11-10 18:40:22 Brottsjournalen.S03E06.SWEDiSH.720p.WEB.x264-NORUSH
2019-11-10 18:40:32 Brottsjournalen.S03E06.SWEDiSH.1080p.WEB.x264-NORUSH
2019-11-10 18:41:03 19-2.S03E08.FRENCH.1080p.BluRay.x264-THiNK
2019-11-10 18:42:04 19-2.S03E09.FRENCH.1080p.BluRay.x264-THiNK
2019-11-10 18:42:08 One.Way.Boogie.Woogie.27.Years.Later.2005.DVDRip.x264-BiPOLAR
2019-11-10 18:42:13 Dope_Default-Imprisoned-WEB-2019-ENTiTLED
2019-11-10 18:42:35 Ask.Video.Audio.Concepts.106.Audio.and.MIDI.Signal.Flow.TUTORiAL-ADSR
2019-11-10 18:42:43 Dope_Default-Ofrenda-WEB-2018-ENTiTLED
2019-11-10 18:43:05 19-2.S03E10.FiNAL.FRENCH.1080p.BluRay.x264-THiNK
2019-11-10 18:43:14 Dope_Default-Tales_from_the_Wasteland-WEB-2017-ENTiTLED
2019-11-10 18:43:24 Picnic.on.the.Grass.1959.BDRip.x264-BiPOLAR
2019-11-10 18:43:46 Gods_and_Punks-And_the_Celestial_Ascension-WEB-2019-ENTiTLED
2019-11-10 18:44:16 Gods_and_Punks-Enter_the_Ceremony_of_Damnation-WEB-2018-ENTiTLED
2019-11-10 18:44:33 Una.Familia.de.Tantas.1949.1080p.BluRay.x264-BiPOLAR
2019-11-10 18:44:48 Gods_and_Punks-Into_the_Dunes_of_Doom-WEB-2017-ENTiTLED
2019-11-10 18:45:20 Pseudo_Mind_Hive-Of_Seers_and_Sirens-WEB-2019-ENTiTLED
2019-11-10 18:45:23 RR.2007.DVDRip.x264-BiPOLAR
2019-11-10 18:45:50 Saudade-Sanctuary_Dub-SINGLE-WEB-2019-ENTiTLED
2019-11-10 18:46:20 Sereias-O_Pais_a_Arder-WEB-PT-2019-ENTiTLED
2019-11-10 18:46:41 19-2.S03E01.FRENCH.720p.BluRay.x264-THiNK
2019-11-10 18:46:52 The_Mothercrow-Magara-WEB-2019-ENTiTLED
2019-11-10 18:47:23 Universal_Hippies-Astral_Visions-WEB-2019-ENTiTLED
2019-11-10 18:47:33 Heilstaetten.2018.GERMAN.1080P.BLURAY.X264-WATCHABLE
2019-11-10 18:47:37 Ruhr.2009.DVDRip.x264-BiPOLAR
2019-11-10 18:47:56 Zeta-Mochima-WEB-ES-2019-ENTiTLED
2019-11-10 18:48:01 Meister.Eder.und.sein.Pumuckl.S01E02.German.1080p.BluRay.x264-TV4A
2019-11-10 18:48:11 19-2.S03E02.FRENCH.720p.BluRay.x264-THiNK
2019-11-10 18:48:24 lang-Shirabe-WEB-JP-2019-ENTiTLED
2019-11-10 18:49:09 Spiderman.Far.from.Home.2019.MULTi.COMPLETE.BLURAY-GMB
2019-11-10 18:49:26 Salon.Mexico.1949.BDRip.x264-BiPOLAR
2019-11-10 18:49:44 19-2.S03E03.FRENCH.720p.BluRay.x264-THiNK
2019-11-10 18:49:52 Meister.Eder.und.sein.Pumuckl.S01E03.German.1080p.BluRay.x264-TV4A
2019-11-10 18:50:17 Heilstaetten.2018.GERMAN.720P.BLURAY.X264-WATCHABLE
2019-11-10 18:50:27 Under.the.Bridges.1946.1080p.BluRay.x264-BiPOLAR
2019-11-10 18:50:54 Sogobi.2002.DVDRip.x264-BiPOLAR
2019-11-10 18:51:14 19-2.S03E04.FRENCH.720p.BluRay.x264-THiNK
2019-11-10 18:51:15 19-2.S03D03.COMPLETE.QC.BLURAY-COJONUDO
2019-11-10 18:51:44 Meister.Eder.und.sein.Pumuckl.S01E04.German.1080p.BluRay.x264-TV4A
2019-11-10 18:52:39 SPK.Complex.2018.DVDRip.x264-BiPOLAR
2019-11-10 18:52:45 19-2.S03E05.FRENCH.720p.BluRay.x264-THiNK
2019-11-10 18:53:36 Meister.Eder.und.sein.Pumuckl.S01E05.German.1080p.BluRay.x264-TV4A
2019-11-10 18:54:18 19-2.S03E06.FRENCH.720p.BluRay.x264-THiNK
2019-11-10 18:54:38 Thats.My.Man.1947.BDRip.x264-BiPOLAR
2019-11-10 18:55:41 Meister.Eder.und.sein.Pumuckl.S01E06.German.1080p.BluRay.x264-TV4A
2019-11-10 18:55:51 19-2.S03E07.FRENCH.720p.BluRay.x264-THiNK
2019-11-10 18:56:01 The.120.Days.of.Bottrop.1997.DVDRip.x264-BiPOLAR
2019-11-10 18:57:05 19-2.S03D01.NFOFiX.COMPLETE.QC.BLURAY-COJONUDO
2019-11-10 18:57:18 19-2.S03D02.NFOFiX.COMPLETE.QC.BLURAY-COJONUDO
2019-11-10 18:57:21 19-2.S03E08.FRENCH.720p.BluRay.x264-THiNK
2019-11-10 18:57:32 Meister.Eder.und.sein.Pumuckl.S01E07.German.1080p.BluRay.x264-TV4A
2019-11-10 18:57:39 The.Silent.Revolution.2018.BDRip.x264-BiPOLAR
2019-11-10 18:58:52 19-2.S03E09.FRENCH.720p.BluRay.x264-THiNK
2019-11-10 18:58:54 The.Tobacconist.2018.BDRip.x264-BiPOLAR
2019-11-10 18:59:26 Meister.Eder.und.sein.Pumuckl.S01E08.German.1080p.BluRay.x264-TV4A
2019-11-10 19:00:12 Una.Familia.de.Tantas.1949.BDRip.x264-BiPOLAR
2019-11-10 19:00:23 19-2.S03E10.FiNAL.FRENCH.720p.BluRay.x264-THiNK
2019-11-10 19:01:17 Meister.Eder.und.sein.Pumuckl.S01E09.German.1080p.BluRay.x264-TV4A
2019-11-10 19:01:27 Haunted.Hospital.2018.COMPLETE.BLURAY-TRADEABLE
2019-11-10 19:01:50 Building.Alaska.S10E06.Have.Saw.Will.Cut.1080p.WEB.x264-CAFFEiNE
2019-11-10 19:03:09 Meister.Eder.und.sein.Pumuckl.S01E10.German.1080p.BluRay.x264-TV4A
2019-11-10 19:03:18 Building.Alaska.S10E06.Have.Saw.Will.Cut.720p.WEB.x264-CAFFEiNE
2019-11-10 19:04:32 VA_-_Hands_Up_Collection_Vol._2-(ZEB0051)-WEB-2019-MARiBOR
2019-11-10 19:04:49 Building.Alaska.S10E06.Have.Saw.Will.Cut.WEB.x264-CAFFEiNE
2019-11-10 19:05:01 Meister.Eder.und.sein.Pumuckl.S01E11.German.1080p.BluRay.x264-TV4A
2019-11-10 19:05:04 VA_-_Winter_Warmers_(Mixed_by_Christian_Bartasek)-(LNGA0210)-WEB-2018-MARiBOR
2019-11-10 19:06:18 On.the.Case.with.Paula.Zahn.S19E02.In.Defiance.of.Evil.1080p.WEB.x264-CAFFEiNE
2019-11-10 19:06:44 NWB.Datenbank.Stand.Oktober.2019.German-BLZiSO
2019-11-10 19:06:56 Meister.Eder.und.sein.Pumuckl.S01E12.German.1080p.BluRay.x264-TV4A
2019-11-10 19:07:48 On.the.Case.with.Paula.Zahn.S19E02.In.Defiance.of.Evil.720p.WEB.x264-CAFFEiNE
2019-11-10 19:08:48 Meister.Eder.und.sein.Pumuckl.S01E13.German.1080p.BluRay.x264-TV4A
2019-11-10 19:09:08 Endless.Legend.v1.8.2-PLAZA
2019-11-10 19:09:18 On.the.Case.with.Paula.Zahn.S19E02.In.Defiance.of.Evil.WEB.x264-CAFFEiNE
2019-11-10 19:10:39 Meister.Eder.und.sein.Pumuckl.S01E14.German.1080p.BluRay.x264-TV4A
2019-11-10 19:10:48 Girl.Meets.Farm.S04E09.Midwest.Potluck.1080p.WEB.x264-CAFFEiNE
2019-11-10 19:12:19 Girl.Meets.Farm.S04E09.Midwest.Potluck.720p.WEB.x264-CAFFEiNE
2019-11-10 19:12:31 Meister.Eder.und.sein.Pumuckl.S01E15.German.1080p.BluRay.x264-TV4A
2019-11-10 19:13:48 Girl.Meets.Farm.S04E09.Midwest.Potluck.WEB.x264-CAFFEiNE
2019-11-10 19:13:57 Keizersvrouwen.S01E01.DUTCH.720p.WEB.x264-ADRENALiNE
2019-11-10 19:14:24 Meister.Eder.und.sein.Pumuckl.S01E16.German.1080p.BluRay.x264-TV4A
2019-11-10 19:15:18 Worst.Cooks.in.America.S17E00.Thanksgiving.Redemption.2.1080p.WEB.x264-CAFFEiNE
2019-11-10 19:15:45 Ask.Video.Elektron.301.Combining.Machines.TUTORiAL-ADSR
2019-11-10 19:16:15 Meister.Eder.und.sein.Pumuckl.S01E17.German.1080p.BluRay.x264-TV4A
2019-11-10 19:16:48 Worst.Cooks.in.America.S17E00.Thanksgiving.Redemption.2.720p.WEB.x264-CAFFEiNE
2019-11-10 19:18:06 Meister.Eder.und.sein.Pumuckl.S01E18.German.1080p.BluRay.x264-TV4A
2019-11-10 19:18:18 Worst.Cooks.in.America.S17E00.Thanksgiving.Redemption.2.WEB.x264-CAFFEiNE
2019-11-10 19:19:59 Meister.Eder.und.sein.Pumuckl.S01E19.German.1080p.BluRay.x264-TV4A
2019-11-10 19:21:51 Meister.Eder.und.sein.Pumuckl.S01E20.German.1080p.BluRay.x264-TV4A
2019-11-10 19:23:42 Meister.Eder.und.sein.Pumuckl.S01E21.German.1080p.BluRay.x264-TV4A
2019-11-10 19:24:45 Keizersvrouwen.S01E02.DUTCH.720p.WEB.x264-ADRENALiNE
2019-11-10 19:25:33 Meister.Eder.und.sein.Pumuckl.S01E22.German.1080p.BluRay.x264-TV4A
2019-11-10 19:25:46 Keizersvrouwen.S01E01.DUTCH.1080p.WEB.x264-ADRENALiNE
2019-11-10 19:27:26 Meister.Eder.und.sein.Pumuckl.S01E23.German.1080p.BluRay.x264-TV4A
2019-11-10 19:27:28 Sage.100C.Immobilisations.v6.00.Multilingual.Incl.Keygen-NGEN
2019-11-10 19:27:59 Keizersvrouwen.S01E02.DUTCH.1080p.WEB.x264-ADRENALiNE
2019-11-10 19:29:18 Meister.Eder.und.sein.Pumuckl.S01E24.German.1080p.BluRay.x264-TV4A
2019-11-10 19:29:35 Keizersvrouwen.S01E03.DUTCH.720p.WEB.x264-ADRENALiNE
2019-11-10 19:31:06 Ein.verlockendes.Spiel.2008.German.DL.1080p.BluRay.AVC-AVCiHD
2019-11-10 19:31:09 Meister.Eder.und.sein.Pumuckl.S01E25.German.1080p.BluRay.x264-TV4A
2019-11-10 19:31:59 Keizersvrouwen.S01E03.DUTCH.1080p.WEB.x264-ADRENALiNE
2019-11-10 19:33:00 Meister.Eder.und.sein.Pumuckl.S01E26.German.1080p.BluRay.x264-TV4A
2019-11-10 19:33:36 Keizersvrouwen.S01E04.DUTCH.720p.WEB.x264-ADRENALiNE
2019-11-10 19:35:26 Earth-Live_At_Third_Man_Records-WEB-2017-CBR
2019-11-10 19:36:36 Keizersvrouwen.S01E04.DUTCH.1080p.WEB.x264-ADRENALiNE
2019-11-10 19:37:09 The.Iconographer.2008.LIMITED.WEBRip.x264-ASSOCiATE
2019-11-10 19:37:47 The.Navigator.2014.LIMITED.WEBRip.x264-ASSOCiATE
2019-11-10 19:38:23 Keizersvrouwen.S01E05.DUTCH.720p.WEB.x264-ADRENALiNE
2019-11-10 19:38:24 The.Navigator.2014.LIMITED.720p.WEBRip.x264-ASSOCiATE
2019-11-10 19:39:02 The.Generator.2017.FESTIVAL.WEBRip.x264-ASSOCiATE
2019-11-10 19:39:13 NBL.2019-20.Round.6.Melbourne.United.vs.Adelaide.36ers.HDTV.x264-WiNNiNG
2019-11-10 19:39:36 The.Generator.2017.FESTIVAL.720p.WEBRip.x264-ASSOCiATE
2019-11-10 19:40:15 The.Rule.of.Lead.2014.FESTIVAL.WEBRip.x264-ASSOCiATE
2019-11-10 19:40:20 NBL.2019-20.Round.6.Melbourne.United.vs.Adelaide.36ers.720p.HDTV.x264-WiNNiNG
2019-11-10 19:40:54 The.Rule.of.Lead.2014.FESTIVAL.720p.WEBRip.x264-ASSOCiATE
2019-11-10 19:41:12 Keizersvrouwen.S01E05.DUTCH.1080p.WEB.x264-ADRENALiNE
2019-11-10 19:41:21 Top.14.2019.11.09.Toulouse.vs.Clermont.FRENCH.720p.HDTV.x264-TiFO
2019-11-10 19:41:27 NBL.2019-20.Round.6.Sydney.Kings.vs.Perth.Wildcats.HDTV.x264-WiNNiNG
2019-11-10 19:41:30 Transport.Services.v1.04-SiMPLEX
2019-11-10 19:41:31 The.Vicious.Kind.2009.FESTIVAL.INTERNAL.WEBRip.x264-ASSOCiATE
2019-11-10 19:41:39 NBL.2019-20.Round.6.Sydney.Kings.vs.Perth.Wildcats.720p.HDTV.x264-WiNNiNG
2019-11-10 19:41:54 EPL.2019.11.10.Liverpool.Vs.Manchester.City.720p.AHDTV.x264-ACES
2019-11-10 19:42:11 The.Vicious.Kind.2009.FESTIVAL.720p.WEBRip.x264-ASSOCiATE
2019-11-10 19:42:52 The.Griddle.House.2018.WEBRip.x264-ASSOCiATE
2019-11-10 19:43:07 Vixen.19.11.10.Oxana.Chic.XXX.1080p.MP4-KTR
2019-11-10 19:43:16 Keizersvrouwen.S01E06.DUTCH.720p.WEB.x264-ADRENALiNE
2019-11-10 19:43:29 The.Griddle.House.2018.720p.WEBRip.x264-ASSOCiATE
2019-11-10 19:44:02 Ask.Video.FL.Studio.103.Audio.Recording.and.Editing.TUTORiAL-ADSR
2019-11-10 19:44:08 The.Kovak.Box.2006.INTERNAL.WEBRip.x264-ASSOCiATE
2019-11-10 19:44:47 The.Kovak.Box.2006.720p.WEBRip.x264-ASSOCiATE
2019-11-10 19:45:03 Castlevania.S02D1.NTSC.DVDR-JFKDVD
2019-11-10 19:45:27 The.Last.Reunion.1980.WEBRip.x264-ASSOCiATE
2019-11-10 19:45:54 Keizersvrouwen.S01E06.DUTCH.1080p.WEB.x264-ADRENALiNE
2019-11-10 19:46:00 Matewan.1987.720p.BluRay.x264-SiNNERS
2019-11-10 19:46:08 The.Last.Reunion.1980.720p.WEBRip.x264-ASSOCiATE
2019-11-10 19:46:24 DemonCrawl.v1.06-SiMPLEX
2019-11-10 19:46:44 Things.1993.WEBRip.x264-ASSOCiATE
2019-11-10 19:46:51 Mugen.No.Junin.2019.E06.SUBFRENCH.1080p.WEB.H264-AMZN
2019-11-10 19:46:55 Dixie.Chicks.DCX.MMXVI.Live.2017.720p.HDTV.x264-LiNKLE
2019-11-10 19:47:21 Things.1993.720p.WEBRip.x264-ASSOCiATE
2019-11-10 19:47:43 A-League.2019.11.09.Newcastle.Jets.vs.Perth.Glory.HDTV.x264-WiNNiNG
2019-11-10 19:47:56 Things.4.2017.WEBRip.x264-ASSOCiATE
2019-11-10 19:48:17 Keizersvrouwen.S01E07.DUTCH.720p.WEB.x264-ADRENALiNE
2019-11-10 19:48:25 Matewan.1987.1080p.BluRay.x264-SiNNERS
2019-11-10 19:48:30 Things.4.2017.720p.WEBRip.x264-ASSOCiATE
2019-11-10 19:49:07 The.Petal.Pushers.2019.WEBRip.x264-ASSOCiATE
2019-11-10 19:49:42 The.Petal.Pushers.2019.720p.WEBRip.x264-ASSOCiATE
2019-11-10 19:49:49 Cris_Grey-November-(HG016)-SINGLE-WEB-2019-AFO_INT
2019-11-10 19:50:00 G-Clubber_and_Vincent_Price-JIBLI-(HG009)-SINGLE-WEB-2018-AFO_INT
2019-11-10 19:50:12 Kiyoi_and_Eky-Mellifliosu-(HG023)-SINGLE-WEB-2019-AFO_INT
2019-11-10 19:50:22 The_Avains-Ocean-(HG014)-SINGLE-WEB-2019-AFO_INT
2019-11-10 19:50:29 Keizersvrouwen.S01E07.DUTCH.1080p.WEB.x264-ADRENALiNE
2019-11-10 19:50:33 Ramin_Arab-Love_in_the_Day-(HG024)-SINGLE-WEB-2019-AFO_INT
2019-11-10 19:50:44 Varldens.Hemskaste.Sjukdomar.S01E05.SWEDiSH.720p.WEB.x264-NORUSH
2019-11-10 19:50:45 Rene_Ablaze_and_F.G._Noise_Ft_Lucid_Blue-Oblivion_(Renes_Ablazing_Remix)-(HG022)-SINGLE-WEB-2019-AFO_INT
2019-11-10 19:50:56 Motorway.Patrol.S05E02.HR.PDTV.x264-LiNKLE
2019-11-10 19:50:57 Fisical_Project-Triunfo-(HG020)-SINGLE-WEB-2019-AFO_INT
2019-11-10 19:51:06 Varldens.Hemskaste.Sjukdomar.S01E05.SWEDiSH.1080p.WEB.x264-NORUSH
2019-11-10 19:51:07 Lightcontrol-Devils_Voice-(HG027)-SINGLE-WEB-2019-AFO_INT
2019-11-10 19:51:17 Sajjad_Zakaria_and_Lightcontrol-Rising_of_the_Phoenix-(HG021)-SINGLE-WEB-2019-AFO_INT
2019-11-10 19:51:28 Rene_Ablaze_and_UDM-Second_Match-(HG013)-SINGLE-WEB-2019-AFO_INT
2019-11-10 19:51:38 FAWZY_and_Follow_Focus-The_Conflict_Within-(HG007)-SINGLE-WEB-2018-AFO_INT
2019-11-10 19:51:40 Varldens.Hemskaste.Sjukdomar.S01E06.SWEDiSH.720p.WEB.x264-NORUSH
2019-11-10 19:51:42 Motorway.Patrol.S05E03.HR.PDTV.x264-LiNKLE
2019-11-10 19:51:52 Keizersvrouwen.S01E08.DUTCH.720p.WEB.x264-ADRENALiNE
2019-11-10 19:51:53 Quantor_and_Nadi_Sunrise-Hunter-(HG018)-SINGLE-WEB-2019-AFO_INT
2019-11-10 19:51:55 Nicole_Moudaber-Live_at_Primavera_Folck-Read_Nfo-SAT-10-06-2019-PTC
2019-11-10 19:52:01 Deeper.19.11.10.Skye.Blue.XXX.1080p.MP4-KTR
2019-11-10 19:52:04 Rezwan_Khan-Everlastingly-(HG026)-SINGLE-WEB-2019-AFO_INT
2019-11-10 19:52:14 Varldens.Hemskaste.Sjukdomar.S01E06.SWEDiSH.1080p.WEB.x264-NORUSH
2019-11-10 19:52:16 DJ_T.H.-License_to_Dance-(HG008)-SINGLE-WEB-2018-AFO_INT
2019-11-10 19:52:33 Dixie.Chicks.DCX.MMXVI.Live.2017.1080p.HDTV.H264-LiNKLE
2019-11-10 19:53:52 Keizersvrouwen.S01E08.DUTCH.1080p.WEB.x264-ADRENALiNE
2019-11-10 19:55:20 Keizersvrouwen.S01E09.DUTCH.720p.WEB.x264-ADRENALiNE
2019-11-10 19:55:31 Castlevania.S02D2.NTSC.DVDR-JFKDVD
2019-11-10 19:56:00 Make.Belgium.Great.Again.Extra.S01E05.FLEMISH.WEB.h264-BELGA
2019-11-10 19:56:05 Make.Belgium.Great.Again.Extra.S01E05.FLEMISH.720p.WEB.h264-BELGA
2019-11-10 19:56:29 Make.Belgium.Great.Again.Extra.S01E05.FLEMISH.1080p.WEB.h264-BELGA
2019-11-10 19:57:41 Keizersvrouwen.S01E09.DUTCH.1080p.WEB.x264-ADRENALiNE
2019-11-10 19:57:44 The.NFL.Show.S04E11.720p.HDTV.x264-ACES
2019-11-10 19:58:25 The_Farm-Hullabaloo-WEB-1994-ENTiTLED_iNT
2019-11-10 19:58:41 The_Farm-Pastures_Old_And_New-WEB-1993-ENTiTLED_iNT
2019-11-10 19:59:08 Keizersvrouwen.S01E10.DUTCH.720p.WEB.x264-ADRENALiNE
2019-11-10 19:59:49 Babel.S30E11.SWEDiSH.720p.WEB.h264-NORUSH
2019-11-10 19:59:54 Babel.S30E12.SWEDiSH.720p.WEB.h264-NORUSH
2019-11-10 20:00:29 TushyRaw.19.11.10.Lena.Anderson.And.Bella.Rolland.XXX.1080p.MP4-KTR
2019-11-10 20:01:17 Keizersvrouwen.S01E10.DUTCH.1080p.WEB.x264-ADRENALiNE
2019-11-10 20:01:43 Kriminalka.5.C.S01E11.2019.720p.HDTV.x264.CZ-MAGiCBOX
2019-11-10 20:02:37 Farmen.S15E27.NORWEGiAN.720p.WEB.H264-HENRETTELSE
2019-11-10 20:05:58 True_Damage-Giants-SINGLE-WEB-2019-wAx
2019-11-10 20:06:50 Letterkenny.S01D1.NTSC.DVDR-JFKDVD
2019-11-10 20:06:59 Greatest.Ever.Movie.Blunders.S01E05.720p.HDTV.x264-LiNKLE
2019-11-10 20:07:59 Fairy.Gone.E18.SUBFRENCH.1080p.WEBRip.x264-AMB3R
2019-11-10 20:09:26 AllAnal.19.11.10.Arietta.Adams.And.Dixie.Lynn.XXX.1080p.MP4-KTR
2019-11-10 20:12:08 Strictly.Come.Dancing.S17E15.720p.HDTV.x264-LiNKLE
2019-11-10 20:12:15 Nicole_Moudaber_-_In_The_MOOD_288-REPACK-CABLE-11-05-2019-TALiON
2019-11-10 20:12:42 Vixen.19.11.10.Oxana.Chic.XXX.2160p.MP4-KTR
2019-11-10 20:12:59 Strictly.Come.Dancing.S17E15.HDTV.x264-LiNKLE
2019-11-10 20:14:27 Fate.Grand.Order.Zettai.Majuu.Sensen.Babylonia.E06.SUBFRENCH.1080p.WEBRip.x264-AMB3R
2019-11-10 20:16:45 Deeper.19.11.10.Skye.Blue.XXX.2160p.MP4-KTR
2019-11-10 20:16:55 Letterkenny.S02D1.NTSC.DVDR-JFKDVD
2019-11-10 20:22:28 TushyRaw.19.11.10.Lena.Anderson.And.Bella.Rolland.XXX.2160p.MP4-KTR
2019-11-10 20:26:37 NOS4A2.S01D1.NTSC.DVDR-JFKDVD
2019-11-10 20:29:47 Hellenius.Horna.S11E04.SWEDiSH.720p.WEB.X264-EXECUTION
2019-11-10 20:30:48 Hellenius.Horna.S11E04.SWEDiSH.1080p.WEB.X264-EXECUTION
2019-11-10 20:33:26 NOS4A2.S01D2.NTSC.DVDR-JFKDVD
2019-11-10 20:36:31 A4_(ES)-The_Heart_Of_The_Sun-(IAR251)-WEB-2019-ENTANGLE
2019-11-10 20:36:43 A_Birth_Defect-Monuments_of_Sins-(STLTD005)-WEB-2019-ENTANGLE
2019-11-10 20:36:54 About130-Zenith_LP-(TRM108)-WEB-2019-ENTANGLE
2019-11-10 20:37:06 Benjamin_Damage-Overton_Window_EP-(FIGUREX14)-WEB-2019-ENTANGLE
2019-11-10 20:37:18 Evod-Codici_EP-(VIRNA005)-WEB-2019-ENTANGLE
2019-11-10 20:37:30 JC_Laurent-Paradigm_Over-(WRK023)-WEB-2019-ENTANGLE
2019-11-10 20:37:42 Marla_Singer-Assault-(AX004)-WEB-2019-ENTANGLE
2019-11-10 20:37:54 VA-Affinity_3-(AFFIN048LTD)-WEB-2019-ENTANGLE
2019-11-10 20:38:05 VA-Principia_Estructurale_Vol._1-(NTSPE001)-WEB-2018-ENTANGLE
2019-11-10 20:38:18 VA-Principia_Estructurale_Vol._2-(NTSPE002)-WEB-2018-ENTANGLE
2019-11-10 20:38:29 VA-Violent_Melancholy_Vol_3-(VFR061)-WEB-2019-ENTANGLE
2019-11-10 20:38:41 Various_Artists-Principia_Estructurale_Vol._3-(NTSPE003)-WEB-2019-ENTANGLE
2019-11-10 20:38:53 Yuka-Atom_Ep-(KM012D)-WEB-2019-ENTANGLE
2019-11-10 20:40:18 Seven.Worlds.One.Planet.S01E03.South.America.HDTV.x264-LiNKLE
2019-11-10 20:40:34 NOS4A2.S01D3.NTSC.DVDR-JFKDVD
2019-11-10 20:42:07 3.Op.Reis.S13E10.DUTCH.720p.HDTV.x264-DTOD
2019-11-10 20:42:58 Seven.Worlds.One.Planet.S01E03.South.America.1080p.HDTV.H264-LiNKLE
2019-11-10 20:47:12 Tipsport.Extraliga.20191103.HC.Sparta.Praha.vs.HC.Kometa.Brno.720p.HDTV.x264.CZ-iCZi
2019-11-10 20:48:05 Warrior.S01D1.NTSC.DVDR-JFKDVD
2019-11-10 20:48:22 Grum_and_Chris_Severe-Seventeen-SINGLE-WEB-2019-AFO
2019-11-10 20:48:58 Earth.2140.Trilogy.GoG.Classic-I_KnoW
2019-11-10 20:51:22 Earth.2140.Trilogy.GoG.Classic.MACOSX-I_KnoW
2019-11-10 20:52:42 Twin.S01E05.PROPER.NORWEGiAN.720p.WEB.x264-BAKFYLLA
2019-11-10 20:53:21 Earth.2150.Trilogy.RU.GoG.Classic-I_KnoW
2019-11-10 20:54:16 Earth.2150.Trilogy.PL.GoG.Classic-I_KnoW
2019-11-10 20:54:18 Tipsport.Extraliga.20191103.HC.Sparta.Praha.vs.HC.Kometa.Brno.1080p.HDTV.x265.iNTERNAL.CZ-iCZi
2019-11-10 20:54:55 Earth.2150.Trilogy.GoG.Classic-I_KnoW
2019-11-10 20:55:45 Earth.2150.Trilogy.FR.GoG.Classic-I_KnoW
2019-11-10 20:55:47 Midsommar.Il.Villaggio.Dei.Dannati.2019.iTALiAN.BDRip.x264-NTROPiC
2019-11-10 20:55:53 Warrior.S01D2.NTSC.DVDR-JFKDVD
2019-11-10 20:57:24 The.Magicians.1x01.Unauthorized.Magic.720p.HDTV.x264.iNTERNAL.CZ-iCZi
2019-11-10 20:57:45 Earth.2150.Trilogy.DE.GoG.Classic-I_KnoW
2019-11-10 20:58:01 The.Magicians.1x01.Unauthorized.Magic.1080p.HDTV.x265.iNTERNAL.CZ-iCZi
2019-11-10 20:59:09 Earth.2160.MULTi2.GoG.Classic-I_KnoW
2019-11-10 20:59:20 EPL.2019.11.10.Manchester.United.vs.Brighton.Hove.Albion.720p.WEB.h264-VERUM
2019-11-10 21:00:32 Fussball.1.Bundesliga.2019-2020.11.Spieltag.FC.Bayern.Muenchen.vs.Borussia.Dortmund.GERMAN.720p.HDTV.x264-SAPH1R
2019-11-10 21:00:49 Vem.Kan.Sla.Anja.och.Foppa.S02E02.SWEDiSH.720p.WEB.x264-DECAPiTATiON
2019-11-10 21:01:01 Das.Ende.der.DDR.E01.GERMAN.DOKU.HDTVRiP.x264-iNFOTv
2019-11-10 21:01:13 Fussball.1.Bundesliga.2019-2020.11.Spieltag.FC.Bayern.Muenchen.vs.Borussia.Dortmund.GERMAN.HDTVRip.x264-SAPH1R
2019-11-10 21:01:18 Vem.Kan.Sla.Anja.och.Foppa.S02E02.SWEDiSH.1080p.WEB.x264-DECAPiTATiON
2019-11-10 21:02:06 Das.Ende.der.DDR.E01.GERMAN.DOKU.HDTV.720p.x264-iNFOTv
2019-11-10 21:02:58 3.Op.Reis.S13E10.DUTCH.1080p.HDTV.x264-DTOD
2019-11-10 21:03:03 Battle_Beast-Steel-(NB_2853-2)-CD-FLAC-2012-WRE
2019-11-10 21:03:23 WWE.Main.Event.2019.10.24.1080p.WEB.x264-ADMIT
2019-11-10 21:03:56 WWE.Main.Event.2019.10.24.720p.WEB.x264-ADMIT
2019-11-10 21:04:07 Blacklace-Unlaced_and_Get_It_While_Its_Hot-(251008)-CD-FLAC-2002-WRE
2019-11-10 21:04:11 Icewind.Dale.2.Complete.MULTi5.GoG.Classic.MacOSX-I_KnoW
2019-11-10 21:04:22 WWE.Main.Event.2019.10.24.WEB.x264-ADMIT
2019-11-10 21:05:09 Charlene_Soraia-Wheres_My_Tribe-(PFG186CD)-CD-FLAC-2019-WRE
2019-11-10 21:05:31 Warrior.S01D3.NTSC.DVDR-JFKDVD
2019-11-10 21:06:11 Eskobula-Dejando_Huellas-(RKM061)-ES-CD-FLAC-2019-WRE
2019-11-10 21:07:16 Gemma_Ray-Psychogeology-(BR53)-CD-FLAC-2019-WRE
2019-11-10 21:08:17 Ian_Brown-Ripples-(CDV_3216)-CD-FLAC-2019-WRE
2019-11-10 21:09:15 Das.Ende.der.DDR.E01.GERMAN.DOKU.HDTV.1080p.x264-iNFOTv
2019-11-10 21:09:20 Induction-Induction-CD-FLAC-2019-WRE
2019-11-10 21:10:24 Jan_Verstraeten-Cheap_Dreams-(UNDAY096CD)-CD-FLAC-2019-WRE
2019-11-10 21:10:35 Icewind.Dale.2.Complete.MULTi5.GoG.Classic-I_KnoW
2019-11-10 21:10:38 Das.Ende.der.DDR.E02.GERMAN.DOKU.HDTVRiP.x264-iNFOTv
2019-11-10 21:10:59 Midsommar.Il.Villaggio.Dei.Dannati.2019.iTALiAN.DTS.720p.BluRay.x264-NTROPiC
2019-11-10 21:11:25 Jax_Jones-Snacks-(7790350)-CD-FLAC-2019-WRE
2019-11-10 21:12:00 Das.Ende.der.DDR.E02.GERMAN.DOKU.HDTV.720p.x264-iNFOTv
2019-11-10 21:12:30 Joey_Baron_Bram_De_Looze_Robin_Verheyen-Mixmonk-(773.596-5)-CD-FLAC-2019-WRE
2019-11-10 21:12:38 UFC.Fight.Night.163.WEB.h264-ADMIT
2019-11-10 21:12:41 Jo.Faerre.Jo.Bedre.S02E06.DANiSH.720p.HDTV.x264-RCDiVX
2019-11-10 21:13:32 Jose_Rubio-Celtic_Lands-(DR-CD_08)-CD-FLAC-2019-WRE
2019-11-10 21:14:40 KT_Tunstall-WAX-(RSTRM406CD)-CD-FLAC-2018-WRE
2019-11-10 21:15:39 Mariza-Mariza-(0190295639143)-PT-CD-FLAC-2019-WRE
2019-11-10 21:16:22 Jo.Faerre.Jo.Bedre.S02E06.DANiSH.HDTV.x264-RCDiVX
2019-11-10 21:16:27 Midsommar.Il.Villaggio.Dei.Dannati.2019.iTALiAN.DTS.1080p.BluRay.x264-NTROPiC
2019-11-10 21:16:43 Robert_Forster-Inferno-(TR429CD)-CD-FLAC-2019-WRE
2019-11-10 21:17:13 Yellowstone.US.S02D1.NTSC.DVDR-JFKDVD
2019-11-10 21:17:47 Rumahoy-The_Triumph_Of_Piracy-(NPR_761_JC)-CD-FLAC-2018-WRE
2019-11-10 21:18:28 Soap_and_Skin-From_Gas_To_Solid_-_You_Are_My_Friend-(PIASR_1040CDX)-CD-FLAC-2018-WRE
2019-11-10 21:19:25 Das.Ende.der.DDR.E02.GERMAN.DOKU.HDTV.1080p.x264-iNFOTv
2019-11-10 21:19:32 Steiger-Give_Space-(SDBANUCD07)-CD-FLAC-2018-WRE
2019-11-10 21:20:36 Steve_Miller_Band-Selections_From_The_Vault-(00602577934124)-CD-FLAC-2019-WRE
2019-11-10 21:21:37 The_Tex_Avery_Syndrome-Origin-(60162_75120)-CD-FLAC-2019-WRE
2019-11-10 21:22:42 VA-Disco_Not_Disco__Leftfield_Disco_Classics_From_The_New_York_Underground-(STRUT204CD)-CD-FLAC-2019-WRE
2019-11-10 21:22:53 AdultAuditions.E302.Ruby.My.First.Adult.Audition.XXX.1080p.MP4-KTR
2019-11-10 21:23:40 AdultAuditions.E303.Charlotte.My.Hard.Bg.Video.XXX.720p.MP4-KTR
2019-11-10 21:23:43 Fussball.1.Bundesliga.2019-2020.11.Spieltag.1.FSV.Mainz.05.vs.1.FC.Union.Berlin.GERMAN.720p.HDTV.x264-SAPH1R
2019-11-10 21:23:49 Vortex-Them_Witches-(GOH48)-CD-FLAC-2019-WRE
2019-11-10 21:24:20 Fussball.1.Bundesliga.2019-2020.11.Spieltag.1.FSV.Mainz.05.vs.1.FC.Union.Berlin.GERMAN.HDTVRip.x264-SAPH1R
2019-11-10 21:24:27 AdultAuditions.E304.Miah.Cameltoe.Photo.Shoot.XXX.1080p.MP4-KTR
2019-11-10 21:24:33 Geheimnisse.des.Zweiten.Weltkriegs.S01E04.German.DL.DOKU.1080p.HDTV.x264-DOKUMANiA
2019-11-10 21:25:15 AdultAuditions.E305.Ariana.Next.Level.For.Ariana.XXX.720p.MP4-KTR
2019-11-10 21:25:16 Bruce_Dickinson-Balls_To_Picasso-(BMGCAT108LP)-REISSUE-LP-FLAC-2017-WRE
2019-11-10 21:25:52 Yellowstone.US.S02D2.NTSC.DVDR-JFKDVD
2019-11-10 21:26:01 AdultAuditions.E306.Georgia.Beach.Scene.Fuck.XXX.1080p.MP4-KTR
2019-11-10 21:26:17 Murder.on.CCTV.S01E06.Silent.Witness.1080p.WEB.x264-LiGATE
2019-11-10 21:26:48 AdultAuditions.E307.Sabrina.My.First.Creampie.Video.XXX.1080p.MP4-KTR
2019-11-10 21:27:01 Bruce_Dickinson-Tattooed_Millionaire-(BMGCAT107LP)-REISSUE-LP-FLAC-2017-WRE
2019-11-10 21:27:34 AdultAuditions.E308.Elsa.My.First.Adult.Audition.XXX.1080p.MP4-KTR
2019-11-10 21:28:22 AdultAuditions.E309.Arianna.Sultry.Teen.Fucks.Hard.XXX.1080p.MP4-KTR
2019-11-10 21:28:51 Bruce_Dickinson-Tyranny_Of_Souls-(BMGCAT112LP)-REISSUE-LP-FLAC-2017-WRE
2019-11-10 21:29:09 AdultAuditions.E310.Lilly.My.First.Adult.Audition.XXX.1080p.MP4-KTR
2019-11-10 21:29:14 Murder.on.CCTV.S01E06.Silent.Witness.720p.WEB.x264-LiGATE
2019-11-10 21:29:56 AdultAuditions.E311.Abigail.Gym.Girl.First.Hard.Fuck.XXX.1080p.MP4-KTR
2019-11-10 21:30:38 Murder.on.CCTV.S01E06.Silent.Witness.WEB.x264-LiGATE
2019-11-10 21:30:45 AdultAuditions.E312.Leyla.My.First.Office.Fuck.XXX.1080p.MP4-KTR
2019-11-10 21:30:51 Keizersvrouwen.S01E01.DUTCH.720p.HDTV.x264-DTOD
2019-11-10 21:31:00 Blaze_Bayley-Alive_In_Poland-(MMP_DVD_0113)-LIMITED_EDITION-2CD-FLAC-2007-WRE
2019-11-10 21:31:32 AdultAuditions.E313.Miah.Cam.Show.XXX.1080p.MP4-KTR
2019-11-10 21:31:35 Geheimnisse.des.Zweiten.Weltkriegs.S01E04.German.DL.DOKU.720p.HDTV.x264-DOKUMANiA
2019-11-10 21:31:56 The.Wall.UK.S01E05.720p.WEB.h264-PFa
2019-11-10 21:32:18 AdultAuditions.E314.Elsa.My.First.Hard.Boy.Girl.Video.XXX.1080p.MP4-KTR
2019-11-10 21:32:23 Bruce_Dickinson-Accident_Of_Birth-(BMGCAT110DLP)-REISSUE-2LP-FLAC-2017-WRE
2019-11-10 21:32:44 Geheimnisse.des.Zweiten.Weltkriegs.S01E04.German.DOKU.HDTVRip.x264-DOKUMANiA
2019-11-10 21:32:56 South.Park.S20E01.SPANiSH.1080p.WEB.x264-4FiRE
2019-11-10 21:33:05 AdultAuditions.E315.Leyla.Swallows.The.Nerd.XXX.1080p.MP4-KTR
2019-11-10 21:33:52 AdultAuditions.E316.Eve.My.First.Bg.Hard.Video.XXX.1080p.MP4-KTR
2019-11-10 21:34:24 Match.Of.The.Day.2019.11.09.1080p.HDTV.x264-ACES
2019-11-10 21:34:27 Bruce_Dickinson-Skunkworks-(BMGCAT109DLP)-REISSUE-2LP-FLAC-2017-WRE
2019-11-10 21:34:39 AdultAuditions.E317.Lilly.Thrown.In.Deep.End.XXX.1080p.MP4-KTR
2019-11-10 21:34:43 South.Park.S20E01.SPANiSH.720p.WEB.x264-4FiRE
2019-11-10 21:35:08 Yellowstone.US.S02D3.NTSC.DVDR-JFKDVD
2019-11-10 21:35:50 South.Park.S20E01.SPANiSH.WEB.x264-4FiRE
2019-11-10 21:36:29 Bruce_Dickinson-The_Chemical_Wedding-(BMGCAT111DLP)-REISSUE-2LP-FLAC-2017-WRE
2019-11-10 21:36:43 South.Park.S20E02.SPANiSH.1080p.WEB.x264-4FiRE
2019-11-10 21:37:33 South.Park.S20E02.SPANiSH.720p.WEB.x264-4FiRE
2019-11-10 21:38:13 Hawaii.Five-0.2010.9x14.Depressed.with.the.Heat.of.Kealwalua.720p.HDTV.x264.CZ-SDTV
2019-11-10 21:38:25 South.Park.S20E02.SPANiSH.WEB.x264-4FiRE
2019-11-10 21:38:32 Supergirl.S04E01.FRENCH.720p.HDTV.x264-SH0W
2019-11-10 21:38:37 Humble_Pie-Tourin__The_Official_Bootleg_Box_Set_Volume_4-(HNEBOX123)-BOXSET-4CD-FLAC-2019-WRE
2019-11-10 21:38:41 Remy-Remy_Dauber-(REPACK)-(RETAiL)-FR-2019-SO
2019-11-10 21:39:17 South.Park.S20E03.SPANiSH.1080p.WEB.x264-4FiRE
2019-11-10 21:39:51 Azur.Lane.E05.SUBFRENCH.1080p.WEBRip.X264-SLEEPINGFOREST
2019-11-10 21:40:02 Remy-Remy_Dauber-FR-REPACK-CD-FLAC-2019-Mrflac
2019-11-10 21:40:07 South.Park.S20E03.SPANiSH.720p.WEB.x264-4FiRE
2019-11-10 21:40:44 Granblue.Fantasy.The.Animation.S02E05.SUBFRENCH.1080p.WEBRip.X264-SLEEPINGFOREST
2019-11-10 21:41:01 South.Park.S20E03.SPANiSH.WEB.x264-4FiRE
2019-11-10 21:41:12 Riot-Live_In_America__The_Official_Bootleg_Box_Set_Vol_3_1981-1988-(HNEBOX122)-BOXSET-6CD-FLAC-2019-WRE
2019-11-10 21:41:50 No.Guns.Life.E04.SUBFRENCH.1080p.WEBRip.X264-SLEEPINGFOREST
2019-11-10 21:41:53 South.Park.S20E04.SPANiSH.1080p.WEB.x264-4FiRE
2019-11-10 21:42:51 South.Park.S20E04.SPANiSH.720p.WEB.x264-4FiRE
2019-11-10 21:43:28 Yellowstone.US.S02D4.NTSC.DVDR-JFKDVD
2019-11-10 21:43:43 South.Park.S20E04.SPANiSH.WEB.x264-4FiRE
2019-11-10 21:44:32 Dr.Oakley.Yukon.Vet.S07E07.The.Stricken.Chicken.720p.WEBRip.x264-CAFFEiNE
2019-11-10 21:44:36 South.Park.S20E05.SPANiSH.1080p.WEB.x264-4FiRE
2019-11-10 21:45:18 Schwester.Schwester.Hier.liegen.Sie.richtig.S01E01.German.1080p.WEB.x264-WvF
2019-11-10 21:45:26 South.Park.S20E05.SPANiSH.720p.WEB.x264-4FiRE
2019-11-10 21:45:56 Supergirl.S04E01.MULTi.1080p.HDTV.H264-SH0W
2019-11-10 21:46:16 Dr.Oakley.Yukon.Vet.S07E07.The.Stricken.Chicken.WEBRip.x264-CAFFEiNE
2019-11-10 21:46:30 Schwester.Schwester.Hier.liegen.Sie.richtig.S01E01.German.720p.WEB.x264-WvF
2019-11-10 21:46:36 Strictly.Come.Dancing.S17E16.The.Results.720p.WEB.h264-PFa
2019-11-10 21:46:37 Unite.42.S02E03.FRENCH.720p.HDTV.x264-HuSSLe
2019-11-10 21:47:10 Farmen.S15E28.NORWEGiAN.720p.WEB.H264-HENRETTELSE
2019-11-10 21:47:30 South.Park.S20E05.SPANiSH.WEB.x264-4FiRE
2019-11-10 21:47:51 Aquarian-Hate_Is_a_Strong_Word_Pt_1-(BDNX004A)-SINGLE-WEB-2019-ENTANGLE
2019-11-10 21:49:24 Tatort.E1108.Das.Leben.nach.dem.Tod.GERMAN.720p.HDTV.x264-ACED
2019-11-10 21:49:57 South.Park.S20E06.SPANiSH.1080p.WEB.x264-4FiRE
2019-11-10 21:51:01 Sea.of.Shadows.2019.720p.WEBRip.x264-CAFFEiNE
2019-11-10 21:51:42 South.Park.S20E06.SPANiSH.720p.WEB.x264-4FiRE
2019-11-10 21:52:38 Lambs.Of.God.S01E01.German.1080p.WEB.x264.PROPER-WvF
2019-11-10 21:52:50 Strictly.Come.Dancing.S17E16.The.Results.WEB.h264-PFa
2019-11-10 21:53:09 South.Park.S20E06.SPANiSH.WEB.x264-4FiRE
2019-11-10 21:54:14 Jonnyonthebeat-Growler-(TTG199)-SINGLE-WEB-2019-ENTANGLE
2019-11-10 21:54:19 South.Park.S20E07.SPANiSH.1080p.WEB.x264-4FiRE
2019-11-10 21:54:25 VA-23-(AFILES023)-WEB-2019-ENTANGLE
2019-11-10 21:54:29 Lambs.Of.God.S01E01.German.720p.WEB.x264.PROPER-WvF
2019-11-10 21:54:35 Dead.Trigger.2017.iTALiAN.1080p.BluRay.x264-HEEHAW
2019-11-10 21:54:41 Sea.of.Shadows.2019.WEBRip.x264-CAFFEiNE
2019-11-10 21:55:10 South.Park.S20E07.SPANiSH.720p.WEB.x264-4FiRE
2019-11-10 21:55:25 Guido_Belcanto-30_Jaar_(Een_Zanger_Moet_Trachten_Pijn_Te_Verzachten)-(SMR277)-NL-3CD-FLAC-2019-WRE
2019-11-10 21:56:33 South.Park.S20E07.SPANiSH.WEB.x264-4FiRE
2019-11-10 21:57:31 Samson_En_Gert-30_Jaar-(F60.PE58.030)-NL-5CD-FLAC-2019-WRE
2019-11-10 21:57:42 Murdoch.Mysteries.S12E15.MULTi.1080p.HDTV.H264-SH0W
2019-11-10 21:58:43 Dead.Trigger.2017.iTALiAN.720p.BluRay.x264-HEEHAW
2019-11-10 21:58:59 South.Park.S20E08.SPANiSH.1080p.WEB.x264-4FiRE
2019-11-10 21:59:08 BH90210.S01E01.FRENCH.720p.HDTV.x264-SH0W
2019-11-10 21:59:44 His.Dark.Materials.S01E02.720p.HDTV.x264-BRISK
2019-11-10 21:59:49 Warum.wir.hassen.E01.Ursprung.GERMAN.DOKU.HDTVRiP.x264-iNFOTv
2019-11-10 22:00:39 VA-Afterhours_Techno_9-(SVRVA111)-WEB-2019-ENTANGLE
2019-11-10 22:00:44 South.Park.S20E08.SPANiSH.720p.WEB.x264-4FiRE
2019-11-10 22:00:48 His.Dark.Materials.S01E02.HDTV.x264-BRISK
2019-11-10 22:00:49 His.Dark.Materials.S01E02.720p.HDTV.x264-ORGANiC
2019-11-10 22:00:59 Supergirl.S04E01.FRENCH.HDTV.x264-AMB3R
2019-11-10 22:02:08 South.Park.S20E08.SPANiSH.WEB.x264-4FiRE
2019-11-10 22:02:32 Warum.wir.hassen.E01.Ursprung.GERMAN.DOKU.HDTV.720p.x264-iNFOTv
2019-11-10 22:03:22 Keizersvrouwen.S01E01.DUTCH.1080p.HDTV.x264-DTOD
2019-11-10 22:03:47 His.Dark.Materials.S01E02.1080p.HDTV.H264-BRISK
2019-11-10 22:04:14 South.Park.S20E09.SPANiSH.1080p.WEB.x264-4FiRE
2019-11-10 22:04:40 VA-Visions_All_Areas_Vol._222-MAG-2019-SDR
2019-11-10 22:04:54 Dead.Trigger.2017.iTALiAN.BDRip.x264-HEEHAW
2019-11-10 22:04:57 Tatort.E1108.Das.Leben.nach.dem.Tod.GERMAN.HDTV.x264-ACED
2019-11-10 22:04:59 VA-Visions_All_Areas_Vol._223-MAG-2019-SDR
2019-11-10 22:05:39 South.Park.S20E09.SPANiSH.720p.WEB.x264-4FiRE
2019-11-10 22:07:12 South.Park.S20E09.SPANiSH.WEB.x264-4FiRE
2019-11-10 22:08:03 South.Park.S20E10.SPANiSH.1080p.WEB.x264-4FiRE
2019-11-10 22:08:55 South.Park.S20E10.SPANiSH.720p.WEB.x264-4FiRE
2019-11-10 22:09:46 South.Park.S20E10.SPANiSH.WEB.x264-4FiRE
2019-11-10 22:10:37 South.Park.S21E01.SPANiSH.1080p.WEB.x264-4FiRE
2019-11-10 22:10:57 Torpet.S02E28.NORWEGiAN.720p.WEB.H264-HENRETTELSE
2019-11-10 22:11:27 Remy-Remy_Dauber-(REAL_REPACK)-(RETAiL)-FR-2019-SO
2019-11-10 22:11:29 South.Park.S21E01.SPANiSH.720p.WEB.x264-4FiRE
2019-11-10 22:12:19 South.Park.S21E01.SPANiSH.WEB.x264-4FiRE
2019-11-10 22:12:44 The.Royal.House.Of.Windsor.S01E01.GERMAN.DUBBED.DL.DOKU.720p.BluRay.x264-TMSF
2019-11-10 22:12:55 VA-Berlin_Nachtblau_Deep_Vibes_Vol._2-(KOLIBRI072)-WEB-2019-ENTANGLE
2019-11-10 22:13:10 South.Park.S21E02.SPANiSH.1080p.WEB.x264-4FiRE
2019-11-10 22:14:03 South.Park.S21E02.SPANiSH.720p.WEB.x264-4FiRE
2019-11-10 22:14:54 South.Park.S21E02.SPANiSH.WEB.x264-4FiRE
2019-11-10 22:15:45 South.Park.S21E03.SPANiSH.1080p.WEB.x264-4FiRE
2019-11-10 22:15:51 21.Soendag.2019.11.10.Boern.Skifter.Koen.DANiSH.720p.WEB.h264-DANES
2019-11-10 22:16:37 South.Park.S21E03.SPANiSH.720p.WEB.x264-4FiRE
2019-11-10 22:17:27 South.Park.S21E03.SPANiSH.WEB.x264-4FiRE
2019-11-10 22:18:18 South.Park.S21E04.SPANiSH.1080p.WEB.x264-4FiRE
2019-11-10 22:19:02 VA-10_Years_of_Animar_Records-(ANIMAR073)-WEB-2019-ENTANGLE
2019-11-10 22:19:10 South.Park.S21E04.SPANiSH.720p.WEB.x264-4FiRE
2019-11-10 22:20:02 South.Park.S21E04.SPANiSH.WEB.x264-4FiRE
2019-11-10 22:20:25 Sasha_Sound-Inertia-(TTG198)-SINGLE-WEB-2019-ENTANGLE
2019-11-10 22:20:54 South.Park.S21E05.SPANiSH.1080p.WEB.x264-4FiRE
2019-11-10 22:20:55 Unite.42.S02E03.FRENCH.HDTV.x264-AMB3R
2019-11-10 22:21:33 Soundtechsystem-Cloudwalker-(MR019)-SINGLE-WEB-2019-ENTANGLE
2019-11-10 22:22:18 South.Park.S21E05.SPANiSH.720p.WEB.x264-4FiRE
2019-11-10 22:23:41 South.Park.S21E05.SPANiSH.WEB.x264-4FiRE
2019-11-10 22:24:33 South.Park.S21E06.SPANiSH.1080p.WEB.x264-4FiRE
2019-11-10 22:25:15 Nejlepsi.kseft.myho.zivota.1988.CZECH.PDTV.x264-I_KnoW
2019-11-10 22:25:24 South.Park.S21E06.SPANiSH.720p.WEB.x264-4FiRE
2019-11-10 22:26:16 South.Park.S21E06.SPANiSH.WEB.x264-4FiRE
2019-11-10 22:27:07 South.Park.S21E07.SPANiSH.1080p.WEB.x264-4FiRE
2019-11-10 22:27:33 BH90210.S01E01.FRENCH.HDTV.x264-AMB3R
2019-11-10 22:27:58 South.Park.S21E07.SPANiSH.720p.WEB.x264-4FiRE
2019-11-10 22:28:35 EvolvedFights.19.08.09.Alexa.Nova.XXX.1080p.MP4-WEIRD
2019-11-10 22:28:40 Glass_Cutters_(Jel_and_Odd_Nosdam)-Glass_Cutters-(BURN16)-WEB-2019-SOUNDz
2019-11-10 22:28:48 Supergirl.S04E02.FRENCH.720p.HDTV.x264-SH0W
2019-11-10 22:28:49 South.Park.S21E07.SPANiSH.WEB.x264-4FiRE
2019-11-10 22:28:57 Maker-Systematic_Soul-(NAML010)-WEB-2019-SOUNDz
2019-11-10 22:29:41 South.Park.S21E08.SPANiSH.1080p.WEB.x264-4FiRE
2019-11-10 22:29:42 Ojah_Ft._Ras_Tavaris-Long_Run-LIMITED_EDITION-7INCH_VINYL-2019-YARD
2019-11-10 22:30:32 South.Park.S21E08.SPANiSH.720p.WEB.x264-4FiRE
2019-11-10 22:30:49 Ojah_Ft._Ras_Tavaris-Long_Run-(ALDBS7009)-LIMITED_EDITION-7INCH_VINYL-FLAC-2019-YARD
2019-11-10 22:31:25 South.Park.S21E08.SPANiSH.WEB.x264-4FiRE
2019-11-10 22:31:49 The.Champion.Within.S04E06.1080p.WEB.x264-LiGATE
2019-11-10 22:32:11 Farmen.S15E27E28.NORWEGiAN.720p.HDTV.x264-NORPiLT
2019-11-10 22:32:15 South.Park.S21E09.SPANiSH.1080p.WEB.x264-4FiRE
2019-11-10 22:33:07 South.Park.S21E09.SPANiSH.720p.WEB.x264-4FiRE
2019-11-10 22:33:57 The.Champion.Within.S04E06.720p.WEB.x264-LiGATE
2019-11-10 22:33:58 South.Park.S21E09.SPANiSH.WEB.x264-4FiRE
2019-11-10 22:34:50 South.Park.S21E10.SPANiSH.1080p.WEB.x264-4FiRE
2019-11-10 22:34:53 Agent.A.A.puzzle.in.disguise-SiMPLEX
2019-11-10 22:34:56 Supergirl.S04E02.MULTi.1080p.HDTV.H264-SH0W
2019-11-10 22:35:04 The.Champion.Within.S04E06.WEB.x264-LiGATE
2019-11-10 22:35:11 Stockholm.Requiem.S01E07-E08.FRENCH.720p.HDTV.x264-SH0W
2019-11-10 22:35:44 South.Park.S21E10.SPANiSH.720p.WEB.x264-4FiRE
2019-11-10 22:36:34 South.Park.S21E10.SPANiSH.WEB.x264-4FiRE
2019-11-10 22:38:36 World.on.Fire.S01E07.German.1080p.WEB.x264-WvF
2019-11-10 22:39:20 Strictly.Come.Dancing.S17E15.1080p.HDTV.x264-LiNKLE
2019-11-10 22:40:10 World.on.Fire.S01E07.German.720p.WEB.x264-WvF
2019-11-10 22:41:35 The.Rookie.1x02.Crash.Course.720p.HDTV.x264.CZ-SDTV
2019-11-10 22:41:37 The.Rookie.S01E02.iNTERNAL.1080p.HDTV.X265.CZ-DELi
2019-11-10 22:42:17 EvolvedFights.19.08.16.Alura.Jenson.XXX.1080p.MP4-WEIRD
2019-11-10 22:42:33 Fodboldmagasinet.2019.11.10.DANiSH.720p.WEB.h264-DANES
2019-11-10 22:42:45 Zondag.Met.Lubach.S10E05.DUTCH.720p.HDTV.x264-DTOD
2019-11-10 22:43:20 EvolvedFights.19.08.23.Song.Lee.XXX.1080p.MP4-WEIRD
2019-11-10 22:44:23 EvolvedFights.19.08.30.Jasmeen.Lefleur.XXX.1080p.MP4-WEIRD
2019-11-10 22:45:26 EvolvedFights.19.09.06.Bella.Rossi.XXX.1080p.MP4-WEIRD
2019-11-10 22:46:26 Zondag.Met.Lubach.S10E05.DUTCH.1080p.HDTV.x264-DTOD
2019-11-10 22:46:28 EvolvedFights.19.09.13.Sofie.Marie.XXX.1080p.MP4-WEIRD
2019-11-10 22:46:56 Murdoch.Mysteries.S12E16.MULTi.1080p.HDTV.H264-SH0W
2019-11-10 22:47:27 Expeditie.Robinson.S20E11.DUTCH.720p.WEB.h264-ADRENALiNE
2019-11-10 22:47:30 EvolvedFights.19.09.14.Sofie.Marie.Arm.Wrestling.XXX.1080p.MP4-WEIRD
2019-11-10 22:48:32 EvolvedFights.19.09.17.London.River.Arm.Wrestling.XXX.1080p.MP4-WEIRD
2019-11-10 22:49:25 MATE_0000-Soldier_Of_Love-(INDUSHE184)-WEB-2019-ENTANGLE
2019-11-10 22:49:28 Stockholm.Requiem.S01E07-E08.FRENCH.1080p.HDTV.H264-SH0W
2019-11-10 22:49:33 EvolvedFights.19.09.20.London.River.XXX.1080p.MP4-WEIRD
2019-11-10 22:49:51 Albertino-Everyday-DAB-11-04-2019-G4E
2019-11-10 22:50:13 BH90210.S01E02.FRENCH.720p.HDTV.x264-SH0W
2019-11-10 22:50:21 VA-New_York_Groove_Cool_Vibes_for_Cool_People-WEB-2019-ENRAGED
2019-11-10 22:50:29 Expeditie.Robinson.S20E11.DUTCH.1080p.WEB.h264-ADRENALiNE
2019-11-10 22:50:34 Albertino-Everyday-DAB-11-05-2019-G4E
2019-11-10 22:50:35 EvolvedFights.19.09.27.Mia.Little.XXX.1080p.MP4-WEIRD
2019-11-10 22:50:40 Albertino-Everyday-DAB-11-06-2019-G4E
2019-11-10 22:50:44 Albertino-Everyday-DAB-11-07-2019-G4E
2019-11-10 22:50:49 Albertino-Everyday-DAB-11-08-2019-G4E
2019-11-10 22:51:04 DJ_Fabio_B_Feat_Wad-One_Two_One_Two-DAB-11-02-2019-G4E
2019-11-10 22:51:08 DJ_Fabio_B_Feat_Wad-One_Two_One_Two-DAB-11-03-2019-G4E
2019-11-10 22:51:13 DJ_Fabio_B_Feat_Wad-One_Two_One_Two-DAB-11-09-2019-G4E
2019-11-10 22:51:25 DJ_Fargetta-Dee_Jay_Time_in_the_Mix-DAB-11-04-2019-G4E
2019-11-10 22:51:30 DJ_Fargetta-Dee_Jay_Time_in_the_Mix-DAB-11-05-2019-G4E
2019-11-10 22:51:34 DJ_Fargetta-Dee_Jay_Time_in_the_Mix-DAB-11-06-2019-G4E
2019-11-10 22:51:38 DJ_Fargetta-Dee_Jay_Time_in_the_Mix-DAB-11-07-2019-G4E
2019-11-10 22:51:40 EvolvedFights.19.10.03.Dee.Williams.Arm.Wrestling.XXX.1080p.MP4-WEIRD
2019-11-10 22:51:50 DJ_Molella-Dee_Jay_Time_in_the_Mix-DAB-11-07-2019-G4E
2019-11-10 22:51:56 DJ_Molella-Dee_Jay_Time_in_the_Mix-DAB-11-06-2019-G4E
2019-11-10 22:52:00 DJ_Molella-Dee_Jay_Time_in_the_Mix-DAB-11-05-2019-G4E
2019-11-10 22:52:04 DJ_Molella-Dee_Jay_Time_in_the_Mix-DAB-11-04-2019-G4E
2019-11-10 22:52:22 DJ_Prezioso-Dee_Jay_Time_in_the_Mix-DAB-11-04-2019-G4E
2019-11-10 22:52:26 DJ_Prezioso-Dee_Jay_Time_in_the_Mix-DAB-11-05-2019-G4E
2019-11-10 22:52:30 DJ_Prezioso-Dee_Jay_Time_in_the_Mix-DAB-11-06-2019-G4E
2019-11-10 22:52:34 DJ_Prezioso-Dee_Jay_Time_in_the_Mix-DAB-11-07-2019-G4E
2019-11-10 22:52:45 Rferrari_DJ_Angelo-Ciao_Belli-DAB-11-04-2019-G4E
2019-11-10 22:53:15 Rferrari_DJ_Angelo-Ciao_Belli-DAB-11-05-2019-G4E
2019-11-10 22:53:17 Mumford.And.Sons.Living.Room.Concert.2019.720p.WEB.H264-CATARACT
2019-11-10 22:53:43 Rferrari_DJ_Angelo-Ciao_Belli-DAB-11-06-2019-G4E
2019-11-10 22:53:54 Rferrari_DJ_Angelo-Ciao_Belli-DAB-11-07-2019-G4E
2019-11-10 22:54:09 Rferrari_DJ_Angelo-Ciao_Belli-DAB-11-08-2019-G4E
2019-11-10 22:54:23 Albertino-Dee_Jay_Time-DAB-11-02-2019-G4E
2019-11-10 22:54:39 Make.Belgium.Great.Again.S02E05.FLEMISH.WEB.h264-BELGA
2019-11-10 22:55:09 Seven.Worlds.One.Planet.S01E03.INTERNAL.1080p.HDTV.x264-FaiLED
2019-11-10 22:55:17 Twin.S01E05E06.NORWEGiAN.720p.HDTV.x264-TvNORGE
2019-11-10 22:55:27 Albertino-Dee_Jay_Time-DAB-11-09-2019-G4E
2019-11-10 22:55:36 Nick_the_Nightfly-Monte_Carlo_Nights-DAB-11-07-2019-G4E
2019-11-10 22:55:38 Make.Belgium.Great.Again.S02E05.FLEMISH.720p.WEB.h264-BELGA
2019-11-10 22:55:41 Nick_the_Nightfly-Monte_Carlo_Nights-DAB-11-10-2019-G4E
2019-11-10 22:55:52 Supergirl.S04E02.FRENCH.HDTV.x264-AMB3R
2019-11-10 22:57:19 Papa_DJ-Buddha_Bar_DJ_Set-DAB-11-02-2019-G4E
2019-11-10 22:57:31 Make.Belgium.Great.Again.S02E05.FLEMISH.1080p.WEB.h264-BELGA
2019-11-10 22:58:05 Der.Maulwurf.1982.German.1080p.BluRay.x264-SPiCY
2019-11-10 22:58:10 World.On.Fire.S01E07.720p.HDTV.x264-BRISK
2019-11-10 22:59:22 World.On.Fire.S01E07.HDTV.x264-BRISK
2019-11-10 22:59:25 Hansa.Studios.By.The.Wall.1976-90.2017.1080p.HDTV.x264-LiNKLE
2019-11-10 23:00:06 World.On.Fire.S01E07.1080p.HDTV.H264-BRISK
2019-11-10 23:00:09 World.on.Fire.S01E07.1080p.HDTV.H264-MTB
2019-11-10 23:00:48 Unite.42.S02E04.FRENCH.720p.HDTV.x264-HuSSLe
2019-11-10 23:02:42 Van.Helsing.S04E06.HDTV.x264-W4F
2019-11-10 23:02:46 Der.Maulwurf.1982.German.720p.BluRay.x264-SPiCY
2019-11-10 23:02:56 Der.Maulwurf.German.1982.AC3.BDRip.x264-SPiCY
2019-11-10 23:02:58 Der.wildeste.Westen.1965.German.1080p.BluRay.x264-SPiCY
2019-11-10 23:02:59 Der.wildeste.Westen.1965.German.720p.BluRay.x264-SPiCY
2019-11-10 23:03:02 Der.wildeste.Westen.German.1965.AC3.BDRip.x264-SPiCY
2019-11-10 23:03:06 Mord.in.der.Rue.Morgue.1932.German.720p.BluRay.x264-SPiCY
2019-11-10 23:03:11 Mord.in.der.Rue.Morgue.1932.German.DL.1080p.BluRay.x264-SPiCY
2019-11-10 23:03:14 Mord.in.der.Rue.Morgue.German.1932.AC3.BDRip.x264-SPiCY
2019-11-10 23:03:15 VIP.Mein.Bruder.der.Supermann.1968.German.1080p.BluRay.x264-SPiCY
2019-11-10 23:03:20 VIP.Mein.Bruder.der.Supermann.1968.German.720p.BluRay.x264-SPiCY
2019-11-10 23:03:26 VIP.Mein.Bruder.der.Supermann.German.1968.AC3.BDRip.x264-SPiCY
2019-11-10 23:04:21 Van.Helsing.S04E06.720p.HDTV.x264-W4F
2019-11-10 23:05:50 Tunecraft_Project-Stalker-(STS478)-SINGLE-WEB-2019-wAx
2019-11-10 23:06:00 Good.Luck.Charlie.S02E29.iNTERNAL.HDTV.x264-W4F
2019-11-10 23:07:05 Unite.42.S02E04.FRENCH.HDTV.x264-AMB3R
2019-11-10 23:07:41 Good.Luck.Charlie.S02E29.iNTERNAL.720p.HDTV.x264-W4F
2019-11-10 23:09:21 Power.Rangers.S26E15.720p.HDTV.x264-W4F
2019-11-10 23:10:38 The.NFL.Show.S04E11.1080p.HDTV.x264-ACES
2019-11-10 23:10:47 Bernauer.Strasse.Una.Calle.Dividida.2019.SPANiSH.DOC.1080p.HDTV.x264-4FiRE
2019-11-10 23:11:02 Power.Rangers.S26E15.HDTV.x264-W4F
2019-11-10 23:11:53 Bernauer.Strasse.Una.Calle.Dividida.2019.SPANiSH.DOC.720p.HDTV.x264-4FiRE
2019-11-10 23:12:41 Rainbow.Butterfly.Unicorn.Kitty.S01E17.720p.HDTV.x264-W4F
2019-11-10 23:12:46 Bernauer.Strasse.Una.Calle.Dividida.2019.SPANiSH.DOC.HDTV.x264-4FiRE
2019-11-10 23:13:13 Where.Is.the.Friends.House.1987.1080p.BluRay.x264-GHOULS
2019-11-10 23:14:21 Rainbow.Butterfly.Unicorn.Kitty.S01E17.HDTV.x264-W4F
2019-11-10 23:18:03 Where.Is.the.Friends.House.1987.720p.BluRay.x264-GHOULS
2019-11-10 23:19:13 Supergirl.S04E03.FRENCH.720p.HDTV.x264-SH0W
2019-11-10 23:20:06 BH90210.S01E02.FRENCH.HDTV.x264-AMB3R
2019-11-10 23:20:16 Where.Is.the.Friends.House.1987.BDRip.x264-GHOULS
2019-11-10 23:22:45 Where.Is.the.Friends.House.1987.COMPLETE.BLURAY-VEXHD
2019-11-10 23:23:10 Murdoch.Mysteries.S08E05.MULTi.1080p.HDTV.H264-SH0W
2019-11-10 23:23:11 The.Royal.House.Of.Windsor.S01E01.GERMAN.DUBBED.DOKU.BDRip.x264-TMSF
2019-11-10 23:24:55 Seven.Worlds.One.Planet.S01E03.South.America.720p.HDTV.x264-LiNKLE
2019-11-10 23:25:02 ZDF.History.Angst.vor.Tod.und.Teufel.Die.Geschichte.des.Aberglaubens.GERMAN.DOKU.720p.HDTV.x264-TMSF
2019-11-10 23:25:40 ZDF.History.Angst.vor.Tod.und.Teufel.Die.Geschichte.des.Aberglaubens.GERMAN.DOKU.WS.HDTVRip.x264-TMSF
2019-11-10 23:25:52 Supergirl.S04E03.MULTi.1080p.HDTV.H264-SH0W
2019-11-10 23:29:19 Karate.Warrior.1987.1080p.BluRay.x264-GHOULS
2019-11-10 23:30:44 The.Royal.House.Of.Windsor.S01E01.GERMAN.DUBBED.DL.DOKU.1080p.BluRay.x264-TMSF
2019-11-10 23:32:43 Karate.Warrior.1987.720p.BluRay.x264-GHOULS
2019-11-10 23:33:10 Terra.X.Das.Eiszeit-Raetsel.Warum.starben.die.Riesentiere.aus.GERMAN.DOKU.720p.HDTV.x264-TMSF
2019-11-10 23:33:25 Dash-Clubding-SAT-11-10-2019-PTC
2019-11-10 23:33:32 Terra.X.Das.Eiszeit-Raetsel.Warum.starben.die.Riesentiere.aus.GERMAN.DOKU.WS.HDTVRip.x264-TMSF
2019-11-10 23:33:57 Most.Haunted.S20E05.Croxteth.Hall.Part.1.REAL.1080p.WEB.x264-DHD
2019-11-10 23:34:26 Most.Haunted.S20E05.Croxteth.Hall.Part.1.REAL.720p.WEB.x264-DHD
2019-11-10 23:34:56 Haunted.Hospitals.S01E02.Faces.of.Death.1080p.WEB.x264-DHD
2019-11-10 23:35:16 Haunted.Hospitals.S01E03.Basement.Terror.1080p.WEB.x264-DHD
2019-11-10 23:35:19 Bobs.Burgers.S09E03.GERMAN.DUBBED.DL.720p.WebHD.x264-TMSF
2019-11-10 23:35:45 Bobs.Burgers.S09E03.GERMAN.DUBBED.WEBRip.x264-TMSF
2019-11-10 23:35:49 Karate.Warrior.1987.BDRip.x264-GHOULS
2019-11-10 23:36:42 Bobs.Burgers.S09E03.GERMAN.DUBBED.DL.1080p.WebHD.x264-TMSF
2019-11-10 23:37:13 Dama.a.Kral.4x03.Jak.basnici.prichazeji.o.zivot.720p.HDTV.x264.CZ-SDTV
2019-11-10 23:37:23 Celebrity.Hunted.S03E05.1080p.HDTV.H264-LiNKLE
2019-11-10 23:38:06 Karate.Warrior.1987.COMPLETE.BLURAY-VEXHD
2019-11-10 23:38:07 Alle.Suenden.S01E02.German.1080p.WEB.x264-WvF
2019-11-10 23:40:10 Alle.Suenden.S01E03.German.1080p.WEB.x264-WvF
2019-11-10 23:40:22 Niall_Horan-Nice_To_Meet_Ya_(The_Graham_Norton_Show_2019-11-08)-720p-x264-2019-SRPx
2019-11-10 23:41:22 Le.Bazar.de.la.Charite.S01E01.FRENCH.720p.HDTV.x264-HuSSLe
2019-11-10 23:41:40 Alle.Suenden.S01E04.German.1080p.WEB.x264-WvF
2019-11-10 23:42:56 Descendants.3.2019.DVDRip.x264-SPOOKS
2019-11-10 23:43:15 BH90210.S01E03.FRENCH.720p.HDTV.x264-SH0W
2019-11-10 23:43:35 Inside.S03E10.Harvey.Nichols.Absolutely.Fabulous.1080p.HDTV.H264-LiNKLE
2019-11-10 23:44:42 Alle.Suenden.S01E05.German.1080p.WEB.x264-WvF
2019-11-10 23:46:19 Alle.Suenden.S01E06.German.1080p.WEB.x264-WvF
2019-11-10 23:47:38 Nils_Frahm-All_Encores-(ERATP126CD)-CD-FLAC-2019-HOUND
2019-11-10 23:48:30 The.100.S06D01.COMPLETE.BLURAY-DiSRUPTION
2019-11-10 23:48:42 Nils_Frahm-All_Encores-(ERATP126CD)-CD-2019-FANG
2019-11-10 23:49:10 Alle.Suenden.S01E02.German.720p.WEB.x264-WvF
2019-11-10 23:50:14 Alle.Suenden.S01E03.German.720p.WEB.x264-WvF
2019-11-10 23:50:55 The.100.S06D02.COMPLETE.BLURAY-DiSRUPTION
2019-11-10 23:51:10 Alle.Suenden.S01E04.German.720p.WEB.x264-WvF
2019-11-10 23:52:07 Alle.Suenden.S01E05.German.720p.WEB.x264-WvF
2019-11-10 23:52:15 The.100.S06D03.COMPLETE.BLURAY-DiSRUPTION
2019-11-10 23:53:09 Alle.Suenden.S01E06.German.720p.WEB.x264-WvF
2019-11-10 23:53:46 Britains.Biggest.Warship.S02E03.720p.HDTV.x264-QPEL
2019-11-10 23:55:48 Deadline.2019.11.10.DANiSH.720p.WEB.h264-DANES
2019-11-10 23:56:02 Roger_Shah_-_Magic_Island_599-SAT-11-10-2019-TALiON
2019-11-10 23:56:28 Supergirl.S04E03.FRENCH.HDTV.x264-AMB3R
2019-11-10 23:57:01 Cosmic_Gate_-_Wake_Your_Mind_Radio_292-SAT-11-10-2019-TALiON
2019-11-10 23:58:00 David_Penn_-_Urbana_437-SAT-11-09-2019-TALiON
2019-11-10 23:58:32 The.Americas.With.Simon.Reeve.S01E05.1080p.HDTV.H264-LiNKLE